[[{"header":{"parameterUnit":"m.s-1","parameterCategory":1,"la1":30.6,"la2":29.2853,"lo1":-89.7004,"lo2":-87.6739,"dy":0.0162,"dx":0.0183,"nx":112,"ny":82,"refTime":"2024-06-30T18:00:00:Z","depth":0,"parameterNumber":2,"parameterNumberName":"U-component_of_WINDS"},"data":[0.0,0.0,0.0,0.0,0.0,0.0,0.0,0.0,0.0,0.0,0.0,0.0,0.0,0.0,0.0,0.0,0.0,0.0,0.0,0.0,0.0,0.0,0.0,0.0,0.0,0.0,0.0,0.0,0.0,0.0,0.0,0.0,0.0,0.0,0.0,0.0,0.0,0.0,0.0,0.0,0.0,0.0,0.0,0.0,0.0,0.0,0.0,0.0,0.0,0.0,0.0,0.0,0.0,0.0,0.0,0.0,0.0,0.0,0.0,0.0,0.0,0.0,0.0,0.0,0.0,0.0,0.0,0.0,0.0,0.0,0.0,0.0,0.0,0.0,0.0,0.0,0.0,0.0,0.0,0.0,0.0,0.0,0.0,0.0,0.0,0.0,0.0,0.0,0.0,0.0,-4.2068,-4.3987,-4.4857,-4.5307,-4.5307,-4.4946,-4.3277,-3.9806,0.0,0.0,0.0,0.0,0.0,0.0,0.0,0.0,0.0,0.0,0.0,0.0,0.0,0.0,0.0,0.0,0.0,0.0,0.0,0.0,0.0,0.0,0.0,0.0,0.0,0.0,0.0,0.0,0.0,0.0,0.0,0.0,0.0,0.0,0.0,0.0,0.0,0.0,0.0,0.0,0.0,0.0,0.0,0.0,0.0,0.0,0.0,0.0,0.0,0.0,0.0,0.0,0.0,0.0,0.0,0.0,0.0,0.0,0.0,0.0,0.0,0.0,0.0,0.0,0.0,0.0,0.0,0.0,0.0,0.0,0.0,0.0,0.0,0.0,0.0,0.0,0.0,0.0,0.0,0.0,0.0,0.0,0.0,0.0,0.0,0.0,0.0,0.0,0.0,0.0,0.0,0.0,0.0,0.0,0.0,0.0,0.0,0.0,0.0,0.0,0.0,0.0,0.0,0.0,-4.1667,-4.4762,-4.522,-4.5307,-4.5307,-4.477,-4.3074,-3.9806,0.0,0.0,0.0,0.0,0.0,0.0,0.0,0.0,0.0,0.0,0.0,0.0,0.0,0.0,0.0,0.0,0.0,0.0,0.0,0.0,0.0,0.0,0.0,0.0,0.0,0.0,0.0,0.0,0.0,0.0,0.0,0.0,0.0,0.0,0.0,0.0,0.0,0.0,0.0,0.0,0.0,0.0,0.0,0.0,0.0,0.0,0.0,0.0,0.0,0.0,0.0,0.0,0.0,0.0,0.0,0.0,0.0,0.0,0.0,0.0,0.0,0.0,0.0,0.0,0.0,0.0,0.0,0.0,0.0,0.0,0.0,0.0,0.0,0.0,0.0,0.0,0.0,0.0,0.0,0.0,0.0,0.0,0.0,0.0,0.0,0.0,0.0,0.0,0.0,0.0,0.0,0.0,0.0,0.0,0.0,0.0,0.0,0.0,0.0,0.0,0.0,0.0,0.0,-4.117,-4.2584,-4.5029,-4.5151,-4.5034,-4.5034,-4.4078,-4.2282,-3.95,-3.7453,0.0,0.0,0.0,0.0,0.0,0.0,0.0,0.0,0.0,0.0,0.0,0.0,0.0,0.0,0.0,0.0,0.0,0.0,0.0,0.0,0.0,0.0,0.0,0.0,0.0,0.0,0.0,0.0,0.0,0.0,0.0,0.0,0.0,0.0,0.0,0.0,0.0,0.0,0.0,0.0,0.0,0.0,0.0,0.0,0.0,0.0,0.0,0.0,0.0,0.0,0.0,0.0,0.0,0.0,0.0,0.0,0.0,0.0,0.0,0.0,0.0,0.0,0.0,0.0,0.0,0.0,0.0,0.0,0.0,0.0,0.0,0.0,0.0,0.0,0.0,0.0,0.0,0.0,0.0,0.0,0.0,0.0,0.0,0.0,0.0,0.0,0.0,0.0,0.0,0.0,0.0,0.0,0.0,0.0,0.0,0.0,0.0,0.0,0.0,0.0,0.0,0.0,-4.2908,-4.3843,-4.505,-4.4957,-4.4763,-4.4714,-4.3301,-4.1471,-3.923,-3.6334,0.0,0.0,0.0,0.0,0.0,0.0,0.0,0.0,0.0,0.0,0.0,0.0,0.0,0.0,0.0,0.0,0.0,0.0,0.0,0.0,0.0,0.0,0.0,0.0,0.0,0.0,0.0,0.0,0.0,0.0,0.0,0.0,0.0,0.0,0.0,0.0,0.0,0.0,0.0,0.0,0.0,0.0,0.0,0.0,0.0,0.0,0.0,0.0,0.0,0.0,0.0,0.0,0.0,0.0,0.0,0.0,0.0,0.0,0.0,0.0,0.0,0.0,0.0,0.0,0.0,0.0,0.0,0.0,0.0,0.0,0.0,0.0,0.0,0.0,0.0,0.0,0.0,0.0,0.0,0.0,0.0,0.0,0.0,0.0,0.0,0.0,0.0,0.0,0.0,0.0,0.0,0.0,0.0,0.0,0.0,0.0,0.0,0.0,0.0,0.0,0.0,0.0,-4.3195,-4.505,-4.4868,-4.48,-4.4701,-4.4438,-4.2683,-4.0857,-3.9212,-3.5818,0.0,0.0,0.0,0.0,0.0,0.0,0.0,0.0,0.0,0.0,0.0,0.0,0.0,0.0,0.0,0.0,0.0,0.0,0.0,0.0,0.0,0.0,0.0,0.0,0.0,0.0,0.0,0.0,0.0,0.0,0.0,0.0,0.0,0.0,0.0,0.0,0.0,0.0,0.0,0.0,0.0,0.0,0.0,0.0,0.0,0.0,0.0,0.0,0.0,0.0,0.0,0.0,0.0,0.0,0.0,0.0,0.0,0.0,0.0,0.0,0.0,0.0,0.0,0.0,0.0,0.0,0.0,0.0,0.0,0.0,0.0,0.0,0.0,0.0,0.0,0.0,0.0,0.0,0.0,0.0,0.0,0.0,0.0,0.0,0.0,0.0,0.0,0.0,0.0,0.0,0.0,0.0,0.0,0.0,0.0,0.0,0.0,0.0,0.0,0.0,0.0,0.0,-4.1689,-4.3027,0.0,-4.3696,-4.325,-4.2632,-4.1315,-3.9822,-3.8213,0.0,0.0,0.0,0.0,0.0,0.0,0.0,0.0,0.0,0.0,0.0,0.0,0.0,0.0,0.0,0.0,0.0,0.0,0.0,0.0,0.0,0.0,0.0,0.0,0.0,0.0,0.0,0.0,0.0,0.0,0.0,0.0,0.0,0.0,0.0,0.0,0.0,0.0,0.0,0.0,0.0,0.0,0.0,0.0,0.0,0.0,0.0,0.0,0.0,0.0,0.0,0.0,0.0,0.0,0.0,0.0,0.0,0.0,0.0,0.0,0.0,0.0,0.0,0.0,0.0,0.0,0.0,0.0,0.0,0.0,0.0,0.0,0.0,0.0,0.0,0.0,0.0,0.0,0.0,0.0,0.0,0.0,0.0,0.0,0.0,0.0,0.0,0.0,0.0,0.0,0.0,0.0,0.0,0.0,0.0,0.0,0.0,0.0,0.0,0.0,0.0,0.0,-3.9632,-4.0836,-4.1904,0.0,-4.2609,-4.2058,-4.1418,-4.0004,-3.8557,-3.7199,0.0,0.0,0.0,0.0,0.0,0.0,0.0,0.0,0.0,0.0,0.0,0.0,0.0,0.0,0.0,0.0,0.0,0.0,0.0,0.0,0.0,0.0,0.0,0.0,0.0,0.0,0.0,0.0,0.0,0.0,0.0,0.0,0.0,0.0,0.0,0.0,0.0,0.0,0.0,0.0,0.0,0.0,0.0,0.0,0.0,0.0,0.0,0.0,0.0,0.0,0.0,0.0,0.0,0.0,0.0,0.0,0.0,0.0,0.0,0.0,0.0,0.0,0.0,0.0,0.0,0.0,0.0,0.0,0.0,0.0,0.0,0.0,0.0,0.0,0.0,0.0,0.0,0.0,0.0,0.0,0.0,0.0,0.0,0.0,0.0,0.0,0.0,0.0,0.0,0.0,0.0,0.0,0.0,0.0,0.0,0.0,0.0,0.0,0.0,0.0,0.0,0.0,-3.8868,-4.0961,-4.2255,-4.1912,-4.1642,-4.1378,-4.1091,-3.8872,-3.7144,0.0,0.0,0.0,0.0,0.0,0.0,0.0,0.0,0.0,0.0,0.0,0.0,0.0,0.0,0.0,0.0,0.0,0.0,0.0,0.0,0.0,0.0,0.0,0.0,0.0,0.0,0.0,0.0,0.0,0.0,0.0,0.0,0.0,0.0,0.0,0.0,0.0,0.0,0.0,0.0,0.0,0.0,0.0,0.0,0.0,0.0,0.0,0.0,0.0,0.0,0.0,0.0,0.0,0.0,0.0,0.0,0.0,0.0,0.0,0.0,0.0,0.0,0.0,0.0,0.0,0.0,0.0,0.0,0.0,0.0,0.0,0.0,0.0,0.0,0.0,0.0,0.0,0.0,0.0,0.0,0.0,0.0,0.0,0.0,0.0,0.0,0.0,0.0,0.0,0.0,0.0,0.0,0.0,0.0,0.0,0.0,0.0,0.0,0.0,0.0,0.0,0.0,0.0,-3.7718,-3.9789,-4.1092,-4.0789,-4.053,-4.0102,-3.946,-3.823,-3.6905,-3.5463,0.0,0.0,0.0,0.0,0.0,0.0,0.0,0.0,0.0,0.0,0.0,0.0,0.0,0.0,0.0,0.0,0.0,0.0,0.0,0.0,0.0,0.0,0.0,0.0,0.0,0.0,0.0,0.0,0.0,0.0,0.0,0.0,0.0,0.0,0.0,0.0,0.0,0.0,0.0,0.0,0.0,0.0,0.0,0.0,0.0,0.0,0.0,0.0,0.0,0.0,0.0,0.0,0.0,0.0,0.0,0.0,0.0,0.0,0.0,0.0,0.0,0.0,0.0,0.0,0.0,0.0,0.0,0.0,0.0,0.0,0.0,0.0,0.0,0.0,0.0,0.0,0.0,0.0,0.0,0.0,0.0,0.0,0.0,0.0,0.0,0.0,0.0,0.0,0.0,0.0,0.0,0.0,0.0,0.0,0.0,0.0,0.0,0.0,0.0,0.0,0.0,0.0,-3.6644,-3.8747,-4.0119,-3.9849,-3.9567,-3.9093,-3.8285,-3.7477,-3.6156,-3.4179,0.0,0.0,0.0,0.0,0.0,0.0,0.0,0.0,0.0,0.0,0.0,0.0,0.0,0.0,0.0,0.0,0.0,0.0,0.0,0.0,0.0,0.0,0.0,0.0,0.0,0.0,0.0,0.0,0.0,0.0,0.0,0.0,0.0,0.0,0.0,0.0,0.0,0.0,0.0,0.0,0.0,0.0,0.0,0.0,0.0,0.0,0.0,0.0,0.0,0.0,0.0,0.0,0.0,0.0,0.0,0.0,0.0,0.0,0.0,0.0,0.0,0.0,0.0,0.0,0.0,0.0,0.0,0.0,0.0,0.0,0.0,0.0,0.0,0.0,0.0,0.0,0.0,0.0,0.0,0.0,0.0,0.0,0.0,0.0,0.0,0.0,0.0,0.0,0.0,0.0,0.0,0.0,0.0,0.0,0.0,0.0,0.0,0.0,0.0,0.0,0.0,0.0,-3.5592,-3.7763,-3.9195,-3.8971,-3.8667,-3.8175,-3.7456,-3.6652,-3.5183,-3.2858,0.0,0.0,0.0,0.0,0.0,0.0,0.0,0.0,0.0,0.0,0.0,0.0,0.0,0.0,0.0,0.0,0.0,0.0,0.0,0.0,0.0,0.0,0.0,0.0,0.0,0.0,0.0,0.0,0.0,0.0,0.0,0.0,0.0,0.0,0.0,0.0,0.0,0.0,0.0,0.0,0.0,0.0,0.0,0.0,0.0,0.0,0.0,0.0,0.0,0.0,0.0,0.0,0.0,0.0,0.0,0.0,0.0,0.0,0.0,0.0,-3.8439,0.0,0.0,0.0,0.0,0.0,0.0,0.0,0.0,0.0,0.0,0.0,0.0,0.0,0.0,0.0,0.0,0.0,0.0,0.0,0.0,0.0,0.0,0.0,0.0,0.0,0.0,0.0,0.0,0.0,0.0,0.0,0.0,0.0,0.0,0.0,0.0,0.0,0.0,0.0,0.0,0.0,-3.4416,-3.6257,-3.7623,-3.7819,-3.721,-3.6743,-3.656,-3.5771,-3.4784,-3.3623,-3.1963,0.0,0.0,0.0,0.0,0.0,0.0,0.0,0.0,0.0,0.0,0.0,0.0,0.0,0.0,0.0,0.0,0.0,0.0,0.0,0.0,0.0,0.0,0.0,0.0,0.0,0.0,0.0,0.0,0.0,0.0,0.0,0.0,0.0,0.0,0.0,0.0,0.0,0.0,0.0,0.0,0.0,0.0,0.0,0.0,0.0,0.0,0.0,0.0,0.0,0.0,0.0,0.0,0.0,0.0,0.0,0.0,0.0,0.0,0.0,0.0,-3.8427,0.0,0.0,0.0,0.0,0.0,0.0,0.0,0.0,0.0,0.0,0.0,0.0,0.0,0.0,0.0,0.0,0.0,0.0,0.0,0.0,0.0,0.0,0.0,0.0,0.0,0.0,0.0,0.0,0.0,0.0,0.0,0.0,0.0,0.0,0.0,0.0,0.0,0.0,0.0,0.0,-3.3414,-3.5496,-3.6982,-3.6926,-3.6556,-3.6138,-3.5701,-3.5261,-3.4491,-3.3311,-3.1677,0.0,0.0,0.0,0.0,0.0,0.0,0.0,0.0,0.0,0.0,0.0,0.0,0.0,0.0,0.0,0.0,0.0,0.0,0.0,0.0,0.0,0.0,0.0,0.0,0.0,0.0,0.0,0.0,0.0,0.0,0.0,0.0,0.0,0.0,0.0,0.0,0.0,0.0,0.0,0.0,0.0,0.0,0.0,0.0,0.0,0.0,0.0,0.0,0.0,0.0,0.0,0.0,0.0,0.0,-4.4075,-4.4033,-4.2872,-4.2674,-4.3098,-4.0674,-3.9605,-3.9515,0.0,0.0,0.0,0.0,0.0,0.0,0.0,0.0,0.0,0.0,0.0,0.0,0.0,0.0,0.0,0.0,0.0,0.0,0.0,0.0,0.0,0.0,0.0,0.0,0.0,-3.8476,-3.8285,0.0,0.0,0.0,0.0,0.0,0.0,0.0,0.0,0.0,0.0,0.0,0.0,-3.2667,-3.4884,-3.641,-3.6103,-3.5954,-3.5569,-3.4857,-3.4784,-3.4215,-3.2894,-3.1427,-2.9929,0.0,0.0,0.0,0.0,0.0,0.0,0.0,0.0,0.0,0.0,0.0,0.0,0.0,0.0,0.0,0.0,0.0,0.0,0.0,0.0,0.0,0.0,0.0,0.0,0.0,0.0,0.0,0.0,0.0,0.0,0.0,0.0,-3.1983,-3.3105,0.0,0.0,0.0,0.0,0.0,0.0,0.0,0.0,0.0,0.0,0.0,0.0,0.0,0.0,-4.3177,-4.4153,-4.4658,-4.4678,-4.5533,-4.5941,-4.5882,-4.4172,-4.3397,-4.3267,-4.1354,0.0,-4.0296,-3.9465,0.0,0.0,0.0,0.0,0.0,0.0,0.0,0.0,0.0,0.0,0.0,0.0,0.0,0.0,0.0,0.0,0.0,0.0,0.0,0.0,0.0,0.0,-3.8897,-3.9747,-3.8897,-3.819,0.0,-3.7207,-3.5037,-3.5037,0.0,0.0,0.0,0.0,0.0,0.0,0.0,0.0,-3.2542,-3.3759,-3.4729,-3.5138,-3.4559,-3.4082,-3.3972,-3.3972,-3.3862,-3.366,-3.2797,-3.1842,-3.0875,-2.9424,0.0,0.0,0.0,0.0,0.0,0.0,0.0,0.0,0.0,0.0,0.0,0.0,0.0,0.0,0.0,0.0,0.0,0.0,0.0,0.0,0.0,0.0,0.0,0.0,0.0,0.0,0.0,0.0,0.0,-3.1628,-3.3644,-3.4023,-3.488,-3.5087,0.0,0.0,0.0,0.0,0.0,0.0,0.0,0.0,0.0,-4.2337,-4.2494,-4.3393,-4.5148,-4.5539,-4.5987,-4.6454,-4.6358,-4.6046,-4.5539,-4.476,-4.4036,-4.3355,-4.2571,-4.1848,-4.1123,-3.9835,-3.8854,-3.8065,0.0,0.0,0.0,0.0,0.0,-3.609,-3.6501,0.0,0.0,0.0,0.0,0.0,0.0,0.0,0.0,0.0,0.0,0.0,0.0,0.0,0.0,-3.925,-3.8992,-3.8763,-4.0034,-3.8362,-3.6604,0.0,-3.5706,-3.4149,-3.1623,0.0,0.0,0.0,0.0,-3.2499,-3.2585,-3.3537,-3.4228,-3.433,-3.4009,-3.3807,-3.3807,-3.3807,-3.3605,-3.3146,-3.2375,-3.1555,-3.0711,-2.9893,-2.87,0.0,0.0,0.0,0.0,0.0,0.0,0.0,0.0,0.0,0.0,0.0,0.0,0.0,0.0,0.0,0.0,0.0,0.0,0.0,0.0,0.0,0.0,0.0,0.0,0.0,0.0,0.0,0.0,-3.3665,-3.5444,-3.5018,-3.654,-3.7135,0.0,0.0,0.0,0.0,0.0,0.0,-4.1656,-4.1773,-4.2376,-4.3684,-4.4367,-4.5421,-4.6924,-4.6944,-4.7276,-4.7899,-4.7042,-4.63,-4.5654,-4.5176,-4.4494,-4.3704,-4.3246,-4.257,-4.1692,-4.045,-3.9681,-3.9169,-3.7873,-3.7231,0.0,-3.7021,-3.6957,-3.6979,-3.7598,-3.7755,-3.7483,-3.626,0.0,-3.4942,-3.3463,0.0,0.0,0.0,0.0,-3.5526,-3.5526,0.0,-3.6863,-3.8323,-3.8514,-3.8591,-3.9451,-3.8629,-3.7693,0.0,-3.7177,-3.5721,-3.2402,0.0,0.0,0.0,0.0,-3.2822,-3.2627,-3.3474,-3.4023,-3.3815,-3.3807,-3.3807,-3.3807,-3.3807,-3.3458,-3.2656,-3.2045,-3.1347,-3.054,-3.038,-2.9648,-2.8244,0.0,0.0,0.0,0.0,0.0,0.0,0.0,0.0,0.0,0.0,0.0,0.0,0.0,0.0,0.0,0.0,0.0,0.0,0.0,0.0,0.0,0.0,0.0,0.0,0.0,0.0,0.0,0.0,0.0,-3.6113,-3.9563,0.0,0.0,0.0,0.0,-4.0836,-4.0171,-4.0854,-4.3432,-4.3569,-4.4738,-4.7254,-4.7372,-4.7803,-4.8662,-4.8662,-4.8701,-4.872,-4.792,-4.7508,-4.7411,-4.5613,-4.4744,-4.4545,-4.2825,-4.1961,-4.1788,-4.1712,-4.0739,-3.9284,-3.9207,-3.862,-3.784,-3.784,-3.7805,-3.7742,-3.78,-3.7755,-3.7693,-3.7597,-3.6509,-3.5037,-3.4178,-3.3975,0.0,0.0,-3.5133,-3.6424,-3.6424,-3.6462,-3.671,-3.7559,-3.7177,-3.6844,-3.7655,-3.775,-3.7693,0.0,-3.581,-3.4053,-3.3635,0.0,-3.2062,-3.1719,-3.2213,-3.2627,-3.2601,-3.3324,-3.3802,-3.3807,-3.3807,-3.3807,-3.3807,-3.3807,-3.3458,-3.2656,-3.2564,-3.2192,-3.1378,-3.1221,-3.0742,-2.9885,-2.8239,0.0,0.0,0.0,0.0,0.0,0.0,0.0,0.0,0.0,0.0,0.0,0.0,0.0,0.0,0.0,0.0,0.0,0.0,0.0,0.0,0.0,0.0,0.0,0.0,0.0,0.0,0.0,0.0,-3.8435,-4.0798,0.0,-4.0352,-4.0973,-4.183,-4.271,-4.3001,-4.4036,-4.6105,-4.6202,-4.6866,-4.833,-4.8369,-4.8779,-4.9636,-4.9072,-4.9072,-4.9616,-4.825,-4.7315,-4.6749,-4.6071,-4.5076,-4.386,-4.3771,-4.2989,-4.1788,-4.1788,-4.1123,-4.0073,-4.0073,-3.9873,-3.9646,-4.0196,-4.037,-4.0313,-4.0313,-3.9896,-3.9107,-3.7455,-3.6137,-3.5152,-3.4866,-3.477,-3.477,-3.477,-3.5209,-3.566,-3.566,-3.566,-3.587,-3.6729,-3.671,-3.671,-3.7521,-3.7292,-3.692,-3.692,-3.6222,-3.5198,-3.392,-3.3665,-3.3401,-3.2676,-3.3031,-3.3366,-3.3366,-3.3623,-3.3807,-3.3807,-3.3807,-3.3807,-3.3807,-3.333,-3.2687,-3.188,-3.1347,-3.0693,-2.9886,-3.0222,-3.005,-2.9235,-2.905,-2.7489,0.0,0.0,0.0,0.0,0.0,0.0,0.0,0.0,0.0,0.0,0.0,0.0,0.0,0.0,0.0,0.0,0.0,0.0,0.0,0.0,0.0,0.0,0.0,0.0,0.0,0.0,-3.9733,-3.9756,-4.1835,-4.282,-4.1656,-4.2337,-4.3313,-4.4484,-4.5109,-4.6066,-4.7528,-4.8133,-4.8699,-4.9228,-4.952,-4.995,-5.0534,-4.9969,-4.9969,-5.0514,-4.8816,-4.7705,-4.712,-4.6554,-4.5574,-4.432,-4.4273,-4.3509,-4.2221,-4.1609,-4.1027,-4.0496,-4.0496,-4.0689,-4.1008,-4.1585,-4.1931,-4.2026,-4.1434,-4.027,-3.8735,-3.7054,-3.5908,-3.5209,-3.5209,-3.5209,-3.5209,-3.5209,-3.5209,-3.5209,-3.5209,-3.5209,-3.5362,-3.5927,-3.6061,-3.6214,-3.6738,-3.6451,-3.6061,-3.6061,-3.6061,-3.5664,-3.4418,-3.4453,-3.4381,-3.3616,-3.3759,-3.3895,-3.382,-3.3807,-3.3807,-3.3807,-3.3807,-3.3807,-3.3807,-3.3073,-3.2265,-3.1452,-3.0632,-2.9971,-2.9427,-2.9795,-2.9758,-2.9217,-2.8796,-2.7526,-2.5407,0.0,0.0,0.0,0.0,0.0,0.0,0.0,0.0,0.0,0.0,0.0,0.0,0.0,0.0,0.0,0.0,0.0,0.0,0.0,0.0,0.0,0.0,0.0,-3.7102,-4.0103,-4.1686,-4.0026,-4.2851,-4.4311,-4.2632,-4.3235,-4.4445,-4.6163,-4.6339,-4.6729,-4.7586,-4.9206,-5.0104,-5.0143,-5.0965,-5.1394,-5.1394,-5.1394,-5.1394,-5.1375,-4.9638,-4.8798,-4.874,-4.7061,-4.6238,-4.5997,-4.4189,-4.3322,-4.3053,-4.1239,-4.0496,-4.0496,-4.0496,-4.1008,-4.1769,-4.1808,-4.2296,-4.2649,-4.0883,-3.862,-3.6538,-3.6481,-3.5889,-3.5209,-3.5209,-3.5209,-3.5209,-3.5209,-3.5209,-3.5209,-3.5209,-3.5209,-3.5209,-3.5209,-3.5209,-3.519,-3.5171,-3.5171,-3.5171,-3.5171,-3.5152,-3.5152,-3.519,-3.5037,-3.4803,-3.4513,-3.4318,0.0,-3.3768,-3.3797,-3.3815,-3.3784,-3.3802,-3.382,-3.3807,-3.3036,-3.2228,-3.1452,-3.0613,-3.0173,-3.0173,-3.0033,-2.9958,-2.9958,-2.7507,-2.6222,-2.6204,0.0,0.0,0.0,0.0,0.0,0.0,0.0,0.0,0.0,0.0,0.0,0.0,0.0,0.0,0.0,0.0,0.0,0.0,0.0,0.0,0.0,-3.6748,-3.8288,-3.958,-4.117,-4.2284,-4.2434,-4.3395,-4.4115,-4.4271,-4.4504,-4.5109,-4.6222,-4.6885,-4.7608,-4.8427,-4.9519,-5.0397,-5.1023,-5.1277,-5.1394,-5.1394,-5.1394,-5.1394,-5.1375,-4.9638,-4.8798,-4.874,-4.7061,-4.6238,-4.5997,-4.4189,-4.3322,-4.3053,-4.1239,-4.0496,-4.0496,-4.0496,-4.065,-4.1008,-4.2277,-4.2815,-4.2554,-4.0175,-3.8495,-3.7177,-3.5954,-3.5392,-3.5209,-3.5209,-3.5209,-3.5209,-3.5209,-3.5209,-3.5209,-3.5209,-3.5209,-3.5209,-3.5209,-3.5209,-3.5037,-3.4464,-3.4331,-3.4331,-3.4331,-3.3815,-3.3769,-3.4991,-3.5037,-3.4661,-3.3951,0.0,0.0,-3.2657,-3.3556,-3.4013,-3.3235,-3.3716,-3.4011,-3.382,-3.2522,-3.1641,-3.1415,-3.0099,-2.9305,-2.9258,-2.9174,-2.9089,-2.8989,-2.7767,-2.683,0.0,0.0,0.0,0.0,0.0,0.0,0.0,0.0,0.0,0.0,0.0,0.0,0.0,0.0,0.0,0.0,0.0,0.0,0.0,0.0,0.0,0.0,-3.8702,-4.0268,-4.1641,-4.2359,-4.2794,-4.2939,-4.3075,-4.3495,-4.4371,-4.4797,-4.5363,-4.6222,-4.7764,-4.8699,-4.8798,-4.9969,-5.0887,-5.1375,-5.1394,-5.1394,-5.1394,-5.1394,-5.1394,-5.1375,-4.9638,-4.8798,-4.874,-4.7061,-4.6052,0.0,-4.405,-4.316,-4.2612,-4.1114,-4.0496,0.0,0.0,0.0,0.0,0.0,-4.252,-4.1634,-4.008,-3.8514,-3.7043,-3.6061,-3.5488,-3.5209,-3.5209,-3.5209,-3.5209,-3.5209,-3.5209,-3.5209,-3.5209,-3.5209,-3.5114,-3.4789,-3.4694,-3.4464,-3.3643,-3.3452,-3.3452,-3.3452,0.0,0.0,-3.3979,-3.4069,-3.3776,-3.3183,-3.3402,-3.3228,0.0,-3.2852,-3.317,-3.247,-3.2855,-3.3068,-3.2823,-3.1623,0.0,0.0,0.0,-2.897,-2.8858,-2.8846,0.0,0.0,0.0,0.0,0.0,0.0,0.0,0.0,-2.758,-2.8057,0.0,0.0,0.0,0.0,0.0,0.0,0.0,0.0,0.0,0.0,0.0,0.0,0.0,0.0,0.0,0.0,-4.0893,-4.2202,-4.3176,-4.3422,-4.3188,-4.2304,-4.222,-4.2636,-4.3615,-4.4486,-4.5402,-4.6378,-4.8718,-4.9753,-4.8993,0.0,0.0,0.0,0.0,-5.1394,-5.1394,-5.1394,-5.1355,-5.1238,-4.9481,-4.8603,-4.8466,-4.6768,-4.5578,-4.4791,-4.3732,-4.2835,-4.2015,-4.0957,-4.0569,-4.065,-4.0535,-4.1027,-4.1876,-4.2426,-4.1747,0.0,0.0,0.0,0.0,-3.6538,-3.5908,-3.5209,-3.5209,-3.5209,-3.5209,-3.5209,-3.5209,-3.5209,-3.5209,-3.5209,-3.4999,-3.4178,-3.3995,-3.3738,-3.2776,-3.2565,-3.2565,-3.2565,-3.2489,-3.2451,-3.2546,-3.2642,-3.2607,-3.2346,-3.2377,0.0,-3.1814,-3.1934,-3.1927,-3.1597,0.0,0.0,-3.1409,-3.065,-3.021,-3.021,-2.9445,-2.8947,-2.881,-2.887,-2.8803,-2.8625,-2.8687,-2.8687,-2.8612,-2.9422,-2.9857,-2.9911,-2.921,-2.9644,0.0,0.0,0.0,0.0,0.0,0.0,0.0,0.0,0.0,0.0,0.0,0.0,0.0,0.0,0.0,-4.0274,-4.0816,-4.1589,-4.3168,-4.3449,-4.317,-4.2295,-4.1702,-4.1971,-4.3551,-4.4495,-4.5654,-4.7235,-4.905,-5.0026,-4.985,-5.0828,0.0,-5.1394,-5.1394,-5.1394,-5.1394,-5.1394,-5.1043,-5.0338,0.0,0.0,-4.671,-4.4992,-4.4114,-4.3897,-4.2922,-4.2366,-4.2039,-4.1059,-4.1012,-4.1489,-4.0766,-4.1027,-4.1723,-4.1112,-4.1125,-4.125,-3.9755,-3.8476,-3.7368,-3.671,-3.5908,-3.5209,-3.5209,-3.5209,0.0,-3.5209,-3.5209,-3.5209,-3.5209,-3.5209,-3.4999,-3.4178,-3.3995,-3.3586,-3.2057,-3.1687,-3.1668,-3.1732,-3.1159,-3.0911,-3.1618,-3.226,-3.2474,-3.1775,-3.2225,-3.2075,-3.0517,-3.1492,-3.1911,-3.0857,-3.1366,-3.1684,-3.1421,-3.065,-3.021,-3.021,-2.9392,-2.8917,-2.8881,-2.8893,-2.8858,-2.8761,-2.8773,-2.8749,-2.8669,-2.943,-3.0129,-3.0763,-3.0604,-3.0695,0.0,0.0,0.0,0.0,0.0,0.0,0.0,0.0,0.0,0.0,0.0,-3.7077,-3.7528,0.0,-4.0249,-4.0719,-4.1145,-4.1557,-4.202,-4.2527,-4.2868,-4.2889,-4.2588,-4.2881,-4.4218,-4.513,-4.6195,-4.749,-4.9148,-5.0104,-5.0104,-5.0926,-5.1394,-5.1394,-5.1394,-5.1394,-5.1394,-5.1394,-5.0965,-5.0085,-4.8406,-4.7139,-4.6241,-4.4484,-4.345,-4.3019,-4.2524,-4.2263,-4.2163,-4.1596,-4.1523,-4.1712,-4.0835,-4.1027,-4.1684,-4.0781,-4.0701,-4.0867,-3.9513,-3.8465,-3.7559,-3.6748,-3.5908,-3.5209,-3.5209,-3.5209,-3.5209,-3.5209,-3.5209,-3.5114,-3.4694,-3.4598,-3.4273,-3.2993,-3.2726,-3.2401,-3.1121,-3.0815,-3.0815,-3.0835,-3.0491,-3.0338,-3.0777,-3.1178,-3.1312,-3.0911,-3.1197,-3.1062,-3.0035,-3.0717,-3.0932,-2.9996,-3.0383,-3.0562,-3.0215,-2.9831,-2.9592,-2.9592,-2.9184,-2.8929,-2.8905,-2.8905,-2.8858,-2.8761,-2.8749,-2.8724,-2.865,-2.9417,-3.002,-3.0418,-3.1234,-3.1818,0.0,0.0,0.0,0.0,0.0,0.0,0.0,-3.1719,-3.3247,-3.4814,-3.7309,-3.9359,-3.9887,-4.1371,-4.2299,-4.1641,-4.1932,-4.2093,-4.1628,-4.2075,-4.2795,-4.3721,-4.3704,-4.3961,-4.4883,-4.578,-4.6654,-4.753,-4.8992,-4.9928,-5.0085,-5.077,-5.1238,-5.1394,-5.1394,-5.1394,-5.1394,-5.1238,-5.0711,-4.9831,-4.7977,-4.6632,-4.5734,-4.3998,-4.2806,-4.2141,-4.2075,-4.2146,-4.2273,-4.2064,-4.193,-4.174,-4.1024,-4.1181,-4.1692,-4.0825,-4.0362,-4.007,-3.9357,-3.8376,-3.7366,-3.6719,-3.5908,-3.5209,-3.5209,-3.5209,-3.5209,-3.5209,-3.5095,-3.4827,-3.4167,-3.3872,-3.3356,-3.1763,-3.1446,-3.1255,-3.0395,-3.0211,-3.0211,-3.0211,-3.0211,-3.0211,-3.0211,-3.0211,-3.0211,-3.0211,-3.0211,-3.0128,-2.994,-3.0042,-2.9945,-2.9407,-2.9494,-2.9465,-2.9138,-2.9089,-2.9055,-2.9055,-2.901,-2.8982,-2.8917,-2.8917,-2.887,-2.8731,-2.8737,-2.87,-2.8625,-2.9404,-2.9802,-2.9821,-3.1288,-3.2397,-2.5507,-2.6029,-2.6957,-2.8606,-2.965,-3.112,0.0,-3.5684,-3.6593,-3.7574,-4.0423,-4.2531,-4.1854,-4.315,-4.4284,-4.4194,-4.3595,-4.3402,-4.4162,-4.374,-4.3685,-4.456,-4.4036,-4.3954,-4.4838,-4.5742,-4.6654,-4.753,-4.8447,-4.9286,-5.0065,-5.0182,-5.0592,-5.1375,-5.1394,-5.1394,-5.1394,-5.0631,-4.9811,-4.8915,-4.6456,-4.4836,-4.394,-4.2183,-4.1343,-4.1243,-4.1176,-4.1578,-4.2273,-4.202,-4.1899,-4.1873,-4.1717,-4.1712,-4.1692,-4.0825,-4.0013,-3.9306,-3.9155,-3.8019,-3.6624,-3.6536,-3.5908,-3.5209,-3.5209,-3.5209,-3.5209,-3.5209,-3.4694,-3.4109,-3.4014,-3.3433,-3.2604,-3.163,-3.1446,-3.1255,-3.0395,-3.0211,-3.0211,-3.0211,-3.0211,-3.0211,-3.0211,-3.0211,-3.0211,-3.0211,-3.0211,-3.0128,-2.994,-2.9913,-2.9847,-2.9598,-2.9589,-2.9589,-2.9542,-2.9365,-2.928,-2.928,-2.9093,-2.8994,-2.8994,-2.8994,-2.894,-2.8893,-2.8822,-2.8761,-2.8682,-2.9448,-2.9802,-2.9821,-3.0726,-3.1564,-2.6826,-2.7194,-2.7871,-2.9611,-3.0675,-3.1932,-3.4394,-3.5607,-3.6729,-3.8586,-4.05,-4.2028,-4.2647,-4.3343,-4.3846,0.0,-4.3537,-4.3253,-4.3131,-4.3336,-4.3428,-4.3253,-4.3868,-4.4462,-4.4855,-4.5677,-4.6582,-4.7533,-4.7918,-4.8466,-4.9306,-4.9345,-4.9501,-4.9872,-4.9891,-4.9891,-4.9891,-4.954,-4.8935,-4.8076,-4.5986,-4.4816,-4.4406,-4.265,-4.1869,-4.1869,-4.1831,-4.198,-4.2231,-4.217,-4.2047,-4.1848,-4.1343,-4.1111,-4.1008,-4.0627,-3.9949,-3.9122,-3.8594,-3.7565,-3.6422,-3.5905,-3.5488,-3.5209,-3.5209,-3.5209,-3.5209,-3.5209,-3.4617,-3.388,-3.3375,-3.2623,-3.1782,-3.0911,-3.072,-3.0643,-3.0287,-3.0211,-3.0211,-3.0211,-3.0211,-3.0211,-3.0211,-3.0211,-3.0211,-3.0211,-3.0211,-3.0128,-2.994,-3.0003,-3.0003,-2.9805,-2.9672,-2.9608,-2.9608,-2.9532,-2.9465,-2.9465,-2.9395,-2.9301,-2.9174,-2.9149,-2.906,-2.8887,-2.8834,-2.8761,-2.8694,-2.9014,-2.914,-2.9119,-2.9929,-3.0473,-2.7464,-2.7991,-2.8765,-3.0501,-3.1739,-3.2972,-3.4671,-3.5552,-3.6607,-3.8652,-4.0004,-4.1152,-4.2337,-4.3169,-4.3639,-4.3612,-4.3826,-4.3692,-4.2841,-4.3164,-4.3232,-4.2543,-4.3632,-4.4541,-4.4841,-4.5622,-4.6419,-4.7173,-4.724,-4.7608,-4.8427,-4.8466,-4.8564,-4.8798,-4.8798,-4.8798,-4.8798,-4.8584,-4.8174,-4.7586,-4.583,-4.499,-4.4932,-4.3196,-4.2533,-4.2728,-4.2259,-4.2124,-4.2239,-4.2032,-4.1824,-4.1582,-4.0957,-4.0636,-4.0518,-4.0262,-3.9762,-3.9108,-3.8212,-3.7317,-3.6415,-3.5525,-3.5234,-3.5226,-3.5226,-3.5218,-3.5209,-3.5209,-3.4617,-3.3796,-3.2928,-3.2107,-3.1274,-3.0414,-3.0211,-3.0211,-3.0211,-3.0211,-3.0211,-3.0211,-3.0211,-3.0211,-3.0211,-3.0211,-3.0211,-3.0211,-3.0211,-3.015,-3.0003,-3.0113,-3.0142,-3.0003,-2.9845,-2.9769,-2.9769,-2.9716,-2.9662,-2.9608,-2.9551,-2.9435,-2.9228,-2.9174,-2.9082,-2.8887,-2.8858,-2.8785,-2.8694,-2.8694,-2.8675,-2.8618,-2.9192,-2.9463,-2.6721,-2.7967,-2.965,-3.1347,-3.3054,-3.474,-3.6363,-3.6799,-3.7087,-3.7886,-3.9515,-4.0784,-4.0694,-4.2811,-4.4527,-4.4384,-4.5136,-4.5432,-4.4632,-4.3928,-4.3479,-4.3366,-4.3469,-4.3869,-4.4718,-4.5581,-4.616,-4.6327,-4.6333,-4.6729,-4.7586,-4.7645,-4.7998,-4.8779,-4.8798,-4.8798,-4.8798,-4.8037,-4.7625,-4.7586,-4.583,-4.499,-4.4932,-4.3196,-4.2864,-4.3569,-4.187,-4.1615,-4.2313,-4.1407,-4.1029,-4.1009,-4.0787,-4.0694,-4.0578,-3.9663,-3.9323,-3.9161,-3.8212,-3.7371,-3.6538,-3.5611,-3.5297,-3.5304,-3.5304,-3.5261,-3.5209,-3.5209,-3.4617,-3.3796,-3.2928,-3.2107,-3.1274,-3.0414,-3.0211,-3.0211,-3.0211,-3.0211,-3.0211,-3.0211,-3.0211,-3.0211,-3.0211,-3.0211,-3.0211,-3.0211,-3.0211,-3.0204,-3.0185,-3.0204,-3.0204,-3.0185,-3.0197,-3.0178,-3.0178,-3.0003,-2.9813,-2.9617,-2.9425,-2.9217,-2.9028,-2.9017,-2.8964,-2.8905,-2.8905,-2.8827,-2.8694,-2.8694,-2.8675,-2.86,-2.8636,-2.8636,-2.8103,-2.8857,-2.9708,-3.1386,-3.2237,-3.3105,-3.4712,-3.5152,-3.5587,-3.6815,-3.7634,-3.8619,-4.0177,-4.1192,-4.2375,-4.4129,-4.467,-4.4812,-4.4626,-4.4421,-4.4058,-4.3402,-4.3387,-4.3546,-4.3836,-4.5212,0.0,-4.6288,-4.6294,-4.6436,-4.6729,-4.6749,-4.6866,-4.7139,-4.7139,-4.7139,-4.7139,-4.6866,-4.6749,-4.6729,-4.5558,-4.4699,-4.4094,-4.2923,-4.2552,-4.2767,-4.1617,-4.1265,-4.1518,-4.1193,-4.105,-4.0987,-4.0937,-4.0466,-3.9804,-3.949,-3.8966,-3.8308,-3.7406,-3.6546,-3.5782,-3.5419,-3.53,-3.5312,-3.5312,-3.5281,-3.5269,-3.5269,-3.4232,-3.3062,-3.2776,-3.1668,-3.0567,-3.0268,-3.0211,-3.0211,-3.0211,-3.0211,-3.0211,-3.0211,-3.0211,-3.0211,-3.0211,-3.0211,-2.9994,-2.9414,-2.9822,-3.0211,-3.0211,-3.0211,-3.0211,-3.0211,-3.0211,-2.9975,-2.9395,-2.9688,-2.9407,-2.8204,-2.8997,-2.9173,-2.8429,-2.8918,-2.9097,-2.8887,-2.8905,-2.8827,-2.8694,-2.8694,-2.8675,-2.86,-2.86,-2.86,-2.8915,-2.9534,-3.0095,-3.1463,-3.2024,-3.2515,-3.3487,-3.4038,-3.448,-3.5047,-3.5751,-3.6813,-3.8646,-3.9265,-4.0447,-4.3333,-4.386,-4.4064,-4.4445,-4.4608,-4.4473,-4.3834,-4.4079,-4.4426,-4.4723,-4.583,0.0,-4.5838,-4.6383,-4.6604,-4.6321,-4.63,-4.63,-4.63,-4.63,-4.63,-4.63,-4.63,-4.6144,-4.5831,-4.5265,-4.4543,-4.3666,-4.2806,-4.2396,-4.2357,-4.1479,-4.1109,-4.1109,-4.1109,-4.1074,-4.1022,-4.1,-4.0389,-3.9456,-3.9091,-3.8363,-3.7519,-3.6904,-3.633,-3.5804,-3.5475,-3.5357,-3.535,-3.535,-3.532,-3.5232,-3.4952,-3.406,-3.3028,-3.2435,-3.1472,-3.0586,-3.0261,-3.0211,-3.0211,-3.0211,-3.0211,-3.0211,-3.0211,-3.0211,-3.0211,-3.0211,-3.0211,-3.0013,-2.9452,-2.9593,-2.9631,-2.9344,-2.9306,-2.9306,-2.9306,-2.9306,-2.9077,-2.8516,-2.8865,-2.862,-2.7475,-2.8228,-2.8521,-2.8076,-2.8238,-2.8518,-2.8922,-2.8642,-2.8554,-2.8749,-2.8706,-2.8675,-2.86,-2.86,-2.86,-2.9074,-2.994,-3.0772,-3.1541,-3.2353,-3.2924,-3.2775,-3.3435,-3.3795,-3.2787,-3.3957,-3.5389,-3.6133,-3.716,-3.8922,-4.2077,-4.2904,-4.3435,-4.4267,-4.4599,-4.4724,-4.4665,-4.5351,-4.6164,-4.6984,-4.7155,0.0,-4.501,0.0,-4.7105,-4.6341,-4.63,-4.63,-4.63,-4.63,-4.63,-4.63,-4.6261,-4.5792,-4.4932,-4.4893,-4.4426,-4.3606,-4.2728,-4.2337,-4.2298,-4.1459,-4.1109,-4.1109,-4.1109,-4.1109,-4.1087,-4.102,-4.0448,-3.9517,-3.8501,-3.7578,-3.6814,-3.6677,-3.6642,-3.65,-3.575,-3.546,-3.5405,-3.5405,-3.5364,-3.5143,-3.4326,-3.4028,-3.3558,-3.1931,-3.1482,-3.1224,-3.0402,-3.0211,-3.0192,-3.0192,-3.0192,-3.0192,-3.0211,-3.0211,-3.0211,-3.0211,-3.0211,-3.0185,-3.0128,-2.9395,-2.8574,-2.7848,-2.774,-2.7701,-2.7701,-2.7701,-2.7682,-2.7644,-2.7657,-2.7572,-2.7282,-2.7156,-2.7343,-2.787,-2.7087,-2.735,-2.8851,-2.8079,-2.8011,-2.8743,-2.8676,-2.862,-2.8612,-2.8612,-2.86,-2.9248,-2.994,-3.0656,-3.0849,-3.1062,-3.1346,-3.1751,-3.209,-3.2359,-3.2439,-3.2899,-3.3508,-3.4251,-3.6112,-3.8289,-4.0621,-4.2598,-4.4201,-4.5271,-4.549,-4.5511,-4.5497,-4.5156,-4.5008,-4.5247,-4.5879,0.0,0.0,-4.5929,-4.6518,-4.6302,-4.63,-4.63,-4.63,-4.63,-4.63,-4.63,-4.5656,-4.4894,-4.4016,-4.3372,-4.2942,-4.2708,-4.183,-4.142,-4.142,-4.1207,-4.1109,-4.1109,-4.1109,-4.1109,-4.1108,-4.1078,-4.0118,-3.8694,-3.8426,-3.7343,-3.5999,-3.5911,-3.5843,-3.5769,-3.5577,-3.5493,-3.5467,-3.5467,-3.542,-3.5199,-3.4342,-3.3623,-3.286,-3.1844,-3.109,-3.0554,-3.0324,-3.0266,-3.026,-3.0207,-3.02,-3.0194,-3.0192,-3.0211,-3.0211,-3.0211,-3.0211,-2.9975,-2.9338,-2.8535,-2.8153,-2.8535,-2.8077,-2.7701,-2.7701,-2.7701,-2.7434,-2.6784,-2.7195,-2.6928,-2.5622,-2.6519,-2.6901,-2.6445,-2.6785,-2.7074,-2.7274,-2.7069,-2.7276,-2.7916,-2.7893,-2.8191,-2.8749,-2.8749,-2.8724,-2.9766,-3.023,-3.0598,-3.0598,-3.0598,-3.0573,-3.0432,-3.1021,-3.1449,-3.0899,-3.1423,-3.2216,-3.2984,-3.4263,-3.6331,-3.9772,-4.1538,-4.3225,-4.5414,-4.5752,-4.5807,-4.5807,-4.5742,-4.5717,-4.5744,-4.6177,-4.6311,0.0,-4.6459,-4.664,-4.6317,-4.6306,-4.63,-4.63,-4.5929,-4.5558,-4.5168,-4.5051,-4.4367,-4.3118,-4.263,-4.2201,-4.181,-4.1324,-4.1109,-4.1109,0.0,-4.1109,-4.1109,-4.1109,-4.1109,-4.1051,-4.0678,-3.9692,-3.8439,-3.7959,-3.6892,-3.5696,-3.5585,-3.5528,-3.55,-3.55,-3.55,-3.55,-3.55,-3.5467,-3.5261,-3.4384,-3.3511,-3.2652,-3.1827,-3.0957,-3.0286,-3.0266,-3.0266,-3.0253,-3.0219,-3.0194,-3.0206,-3.0192,-3.0211,-3.0211,-3.0211,-3.0211,-2.9898,-2.9032,-2.8211,-2.7714,-2.779,-2.7109,-2.6599,-2.6599,-2.6599,-2.6408,-2.5912,-2.6219,-2.6033,-2.5095,-2.5728,-2.6094,-2.5988,-2.603,-2.6314,-2.686,-2.6403,-2.6507,-2.7207,-2.7123,-2.7303,-2.7747,-2.7747,-2.7917,-3.0385,-3.0598,-3.0598,-3.0598,-3.0598,-3.0313,-2.9266,-3.0222,-3.0838,-2.9076,-2.9943,-3.1242,-3.1943,-3.2341,-3.4176,-3.9099,-4.0276,-4.1756,-4.515,-4.5723,-4.5807,-4.5807,-4.6464,-4.695,-4.701,-4.7023,-4.7073,-4.7205,-4.7226,-4.6958,-4.6327,-4.6296,-4.6245,-4.6124,-4.5285,-4.4406,-4.3548,-4.4289,-4.384,-4.224,-4.224,-4.183,-4.1109,-4.1109,-4.1109,-4.1109,0.0,0.0,-4.1109,-4.1109,-4.1109,-4.1012,-4.0132,-3.9312,-3.8468,-3.7423,-3.6487,-3.5709,-3.5564,-3.5528,-3.5508,-3.5507,-3.55,-3.55,-3.55,-3.55,-3.5327,-3.4449,-3.3564,-3.2692,-3.1834,-3.0964,-3.0292,-3.0234,-3.0202,-3.0207,-3.0199,-3.0192,-3.0211,-3.0211,-3.0211,-3.0211,-3.0211,-3.0211,-2.9898,-2.9032,-2.8211,-2.7396,-2.6517,-2.5701,-2.5191,-2.5191,-2.5191,-2.5191,-2.5191,-2.5191,-2.5191,-2.5191,-2.5044,-2.5237,-2.5908,-2.5156,-2.5357,-2.6725,-2.5838,-2.5736,-2.6529,-2.6358,-2.6312,-2.6421,-2.6421,-2.6797,-3.0559,-3.0598,-3.0598,-3.0598,-3.0598,-3.0323,-2.9319,-2.983,-3.0177,-2.902,-2.9505,-3.0162,-3.0313,-3.2037,-3.4524,-3.7773,-4.0046,-4.2415,-4.5344,-4.5793,-4.5807,-4.5807,-4.5923,-4.602,-4.6033,-4.6087,0.0,0.0,0.0,-4.6316,-4.6307,-4.6305,-4.5968,-4.5246,-4.4387,-4.3509,-4.263,-4.2786,-4.2337,-4.1324,-4.1324,-4.1246,-4.1109,-4.1109,-4.1109,-4.1109,0.0,0.0,-4.1109,-4.1109,-4.1109,-4.1012,-4.0132,-3.9312,-3.8492,-3.7581,-3.6655,-3.5843,-3.5709,-3.5635,-3.5575,-3.5521,-3.55,-3.55,-3.55,-3.55,-3.5327,-3.4449,-3.3564,-3.2712,-3.1885,-3.0995,-3.0298,-3.0292,-3.0286,-3.0266,-3.0214,-3.0206,-3.0211,-3.0211,-3.0211,-3.0211,-3.0211,-3.0211,-2.9898,-2.9032,-2.8211,-2.7396,-2.6517,-2.5701,-2.5191,-2.5191,-2.5191,-2.5191,-2.5191,-2.5191,-2.5191,-2.5191,-2.5168,-2.5139,-2.511,-2.495,-2.4877,-2.4869,-2.4695,-2.4931,-2.5635,-2.5585,-2.5921,-2.657,-2.657,-2.6603,-3.0598,-3.0598,-3.0598,-3.0598,-3.0598,-3.0231,-2.88,-2.9459,-2.994,-2.8489,-2.9155,-2.9977,-2.9905,-3.1602,-3.3785,-3.6116,-3.8249,-4.0572,-4.333,-4.4167,-4.4678,-4.5123,-4.5548,-4.5801,-4.5854,-4.5861,-4.5717,-4.5391,0.0,-4.5423,-4.5565,-4.5172,-4.4555,-4.3665,-4.3684,-4.306,-4.1732,-4.2162,-4.1967,-4.1109,-4.1109,-4.1109,-4.1109,-4.1109,-4.0855,-4.0444,0.0,0.0,-3.9821,-4.0249,-4.0424,-4.0307,-3.9,-3.8531,-3.8434,-3.7067,-3.6282,-3.588,-3.5749,-3.5655,-3.5596,-3.5558,-3.5522,-3.55,-3.55,-3.55,-3.5404,-3.4988,-3.393,-3.2814,-3.2429,-3.134,-3.0342,-3.031,-3.0299,-3.0279,-3.0221,-3.02,-3.0206,-3.0192,-3.0211,-3.0051,-2.9612,-2.9898,-2.9612,-2.7848,-2.8001,-2.7714,-2.6007,-2.5797,-2.5663,-2.5249,-2.5191,-2.5191,-2.5191,-2.5191,-2.5191,-2.5191,-2.5191,-2.5162,-2.5057,-2.4967,-2.4821,-2.4666,-2.4491,-2.4559,-2.4885,-2.4799,-2.4961,-2.5346,-2.5346,-2.5556,-3.0598,-3.0598,-3.0598,-3.0598,-3.0598,-3.0177,-2.8579,-2.9335,-2.9935,-2.8256,-2.9081,-3.011,-3.02,-3.1259,-3.2866,-3.51,-3.6791,-3.8827,-4.1682,-4.2941,-4.3904,-4.4755,-4.5413,-4.5827,-4.5861,-4.5699,0.0,-4.4827,0.0,0.0,-4.4637,-4.3864,-4.3105,-4.2415,-4.2884,-4.2495,-4.1109,-4.1771,-4.1771,-4.1109,-4.0914,-4.0914,-4.109,-4.0914,-4.0444,-3.9839,0.0,0.0,0.0,-3.9273,-3.9546,-3.939,-3.7887,-3.7711,-3.8139,-3.6508,-3.5919,-3.5883,-3.5787,-3.5687,-3.562,-3.5593,-3.5559,-3.55,-3.55,-3.55,-3.55,-3.55,-3.4231,-3.2891,-3.2891,-3.1654,-3.0367,-3.0304,-3.0292,-3.0279,-3.0227,-3.0221,-3.0214,-3.0206,-3.0199,-2.9982,-2.9299,-2.9593,-2.9249,-2.7243,-2.7905,-2.7867,-2.572,-2.6007,-2.6084,-2.5287,-2.5191,-2.5191,-2.5191,-2.5191,-2.5191,-2.5191,-2.5191,-2.518,-2.5131,-2.4987,-2.4874,-2.4792,-2.4522,-2.4398,-2.4398,-2.4303,-2.4238,-2.4238,-2.4238,-2.4568,-3.0598,-3.0598,-3.0598,-3.0598,-3.0598,-3.0346,-2.9394,-2.9814,-3.0122,-2.9157,-2.957,-3.0349,-3.1116,-3.1287,-3.2391,-3.5749,-3.7182,-3.9073,-4.2491,-4.3842,-4.4775,-4.5587,-4.5749,-4.5807,-4.5814,-4.5209,-4.4781,0.0,0.0,0.0,0.0,-4.2988,-4.2473,-4.2396,-4.1713,-4.1265,-4.1109,-4.1187,-4.1187,-4.109,-4.0307,-4.0327,-4.107,-4.0288,-3.9878,-3.98,0.0,0.0,0.0,-3.8689,-3.8708,-3.8611,-3.7672,-3.734,-3.7301,-3.6341,-3.5947,-3.5908,-3.5883,-3.5797,-3.5672,-3.562,-3.5559,-3.55,-3.55,-3.55,-3.55,-3.55,-3.4231,-3.2891,-3.2891,-3.1603,-3.0304,-3.0305,-3.0292,-3.0312,-3.0286,-3.0286,-3.0273,-3.0214,-3.0207,-3.0181,-3.0096,-2.949,-2.893,-2.8701,-2.8172,-2.7434,-2.6421,-2.6345,-2.6084,-2.5287,-2.5191,-2.5191,-2.5191,-2.5191,-2.5191,-2.5191,-2.5191,-2.5119,-2.4947,-2.4908,-2.4756,-2.4449,-2.4415,-2.4398,-2.4398,-2.4399,-2.4372,-2.4372,-2.4372,-2.4348,-3.0462,-3.0598,-3.0598,-3.0598,-3.0598,-3.0366,-2.9495,-2.9936,-3.0249,-2.9305,-2.9691,-3.0301,-3.0574,-3.0934,-3.1798,-3.3679,-3.4909,-3.6627,-3.9504,-4.0853,-4.2222,-4.4078,-4.4755,-4.5084,0.0,0.0,-4.4215,0.0,0.0,0.0,0.0,-4.1775,-4.1617,-4.1613,-4.1271,-4.1109,-4.1109,-4.0581,-4.0327,-4.0307,-3.9468,-3.9255,-3.9587,-3.9235,-3.8785,-3.8316,0.0,0.0,0.0,-3.7594,-3.783,-3.7731,-3.6852,-3.6833,-3.7184,-3.6324,-3.5985,-3.5953,-3.5953,-3.5902,-3.5827,-3.5795,-3.5706,-3.5612,-3.5515,-3.55,-3.55,-3.55,-3.4231,-3.2891,-3.2891,-3.1648,-3.0367,-3.0349,-3.0368,-3.0343,-3.0311,-3.0305,-3.0292,-3.0273,-3.0266,-2.9941,-2.8932,-2.9289,-2.9225,-2.7689,-2.8033,-2.7975,-2.658,-2.6402,-2.6084,-2.5287,-2.5191,-2.5191,-2.5191,-2.5191,-2.5191,-2.5191,-2.5191,-2.5168,-2.5075,-2.4948,-2.4847,-2.4704,-2.4623,-2.4586,-2.4586,-2.4586,-2.4586,-2.4586,-2.4586,-2.4553,-3.0056,-3.0404,-3.0598,-3.0598,-3.0598,-3.0443,-2.9824,-3.0153,-3.0409,-2.9694,-3.0148,-3.0707,-3.0873,-3.1472,-3.2198,-3.3013,-3.4108,-3.5618,-3.7878,-3.9359,-4.1106,-4.3421,-4.4446,-4.4871,0.0,-4.413,0.0,0.0,0.0,0.0,0.0,-4.1028,-4.1074,-4.1092,-4.1104,-4.0978,-4.0719,-4.0112,-3.9683,-3.9449,-3.8611,-3.8357,-3.8591,-3.8337,-3.7888,0.0,0.0,0.0,0.0,-3.6657,-3.6911,-3.6852,-3.6246,-3.6383,-3.6833,-3.6226,-3.5992,-3.5992,-3.5992,-3.5976,-3.5929,-3.5914,-3.584,-3.5729,-3.561,-3.556,-3.5534,-3.5514,-3.4231,-3.2795,-3.2295,-3.1269,-3.0404,-3.0404,-3.0404,-3.0398,-3.0342,-3.0336,-3.0329,-3.0292,-3.0305,-2.9845,-2.8394,-2.913,-2.9213,-2.7158,-2.7854,-2.8071,-2.6599,-2.6402,-2.6084,-2.5287,-2.5191,-2.5191,-2.5191,-2.5191,-2.5191,-2.5191,-2.5191,-2.5191,-2.5191,-2.5063,-2.4967,-2.4902,-2.4816,-2.4757,-2.4757,-2.4757,-2.4757,-2.4757,-2.4757,-2.4757,-2.9306,-2.994,-3.0598,-3.0598,-3.0598,-3.0598,-3.0598,-3.0598,-3.0598,-3.0598,-3.1074,-3.1755,-3.261,-3.328,-3.3941,-3.4737,-3.5834,-3.716,-3.8857,-4.0747,-4.2628,-4.4381,-4.5297,-4.5471,-4.4671,-4.3034,0.0,0.0,0.0,0.0,0.0,-4.0933,-4.1025,-4.1092,-4.1092,-4.0697,-3.9819,-3.98,-3.939,-3.8591,-3.7731,-3.777,-3.8572,-3.7711,-3.7301,0.0,0.0,0.0,0.0,-3.6012,-3.6012,-3.6012,-3.5992,-3.6012,-3.6012,-3.5992,-3.5992,-3.5992,-3.5992,-3.5992,-3.5986,-3.5926,-3.5908,-3.5878,-3.5741,-3.565,-3.5599,-3.5521,-3.4231,-3.2526,-3.0865,-3.0404,-3.0404,-3.0404,-3.0404,-3.0404,-3.0404,-3.0404,-3.0379,-3.031,-3.0304,-3.0023,-2.9136,-2.8996,-2.8709,-2.7816,-2.7695,-2.7396,-2.6517,-2.6402,-2.6084,-2.5287,-2.5191,-2.5191,-2.5191,-2.5191,-2.5191,-2.5191,-2.5191,-2.5191,-2.5191,-2.521,-2.5107,-2.4908,-2.4902,-2.4902,-2.4902,-2.4902,-2.4902,-2.4902,-2.4902,-2.4902,-2.8242,-2.861,-2.8977,-2.9553,-2.9708,-2.9863,-3.0462,-3.0598,-3.0752,-3.1308,-3.1529,-3.1891,-3.2782,-3.295,-3.3597,-3.5606,-3.6302,-3.7379,-3.9608,-4.0644,-4.1816,-4.3518,-4.4465,-4.4891,0.0,0.0,0.0,0.0,0.0,0.0,0.0,-4.0845,-4.0914,-4.1021,-4.0506,-4.0076,-3.9799,-3.8656,-3.7965,-3.7692,-3.6833,-3.6558,-3.6813,-3.6539,0.0,0.0,0.0,0.0,0.0,-3.5992,-3.5992,-3.5992,-3.5992,-3.5992,-3.5992,-3.5992,-3.5992,-3.5992,-3.5992,-3.5992,-3.5991,-3.598,-3.5976,-3.5832,-3.5154,-3.5294,-3.5436,-3.4255,-3.3073,-3.1895,-3.0756,-3.0428,-3.0404,-3.0404,-3.0404,-3.0404,-3.0404,-3.0404,-3.0379,-3.0373,-3.0373,-3.0092,-2.9217,-2.907,-2.8759,-2.7841,-2.7236,-2.6752,-2.6447,-2.5912,-2.5478,-2.5229,-2.5191,-2.5191,-2.5191,-2.5191,-2.5191,-2.5191,-2.5191,-2.5191,-2.5191,-2.5191,-2.5174,-2.5113,-2.5107,-2.5107,-2.5107,-2.5107,-2.5107,-2.5107,-2.5107,-2.5107,-2.7368,-2.7991,-2.8629,-2.9171,-2.9553,-2.9921,-3.0482,-3.0598,-3.083,-3.1637,-3.1995,-3.242,-3.3293,-3.3534,-3.4113,-3.5658,-3.6347,-3.7425,-3.9558,-4.0393,-4.1545,-4.3556,-4.4265,0.0,0.0,0.0,0.0,0.0,0.0,0.0,0.0,0.0,-4.0223,-3.9995,-3.9836,-3.9452,-3.8828,-3.7803,-3.7128,-3.6794,-3.6265,-3.5992,-3.5992,-3.5992,0.0,0.0,0.0,0.0,0.0,-3.5992,-3.5992,-3.5992,-3.5992,-3.5992,-3.5992,-3.5992,-3.5992,-3.5992,-3.5992,-3.5992,-3.5992,-3.5992,-3.5778,-3.5462,-3.5203,-3.4941,-3.4544,-3.3483,-3.2535,-3.1635,-3.0768,-3.0482,-3.0433,-3.0433,-3.0419,-3.0404,-3.0404,-3.0404,-3.0404,-3.0404,-3.0404,-3.0129,-2.9252,-2.91,-2.8673,-2.7431,-2.682,-2.6362,-2.5994,-2.5516,-2.5191,-2.5191,-2.5191,-2.5191,-2.5191,-2.5191,-2.5191,-2.5191,-2.5191,-2.5191,-2.5191,-2.5191,-2.5191,-2.5191,-2.5191,-2.5191,-2.5191,-2.5191,-2.5191,-2.5191,-2.5191,-2.5191,0.0,-2.7847,-2.907,-2.9248,-2.9863,-3.0443,-3.0578,-3.0598,0.0,-3.1715,-3.2439,-3.3223,-3.4212,-3.4896,-3.5343,-3.5479,-3.6331,-3.7509,-3.9073,-4.0272,-4.1874,-4.4304,-4.4652,0.0,0.0,0.0,0.0,0.0,0.0,0.0,0.0,0.0,-3.9178,-3.8223,-3.9049,-3.8762,-3.7224,-3.7204,-3.6802,-3.5994,-3.5992,-3.5992,-3.5992,-3.5992,0.0,0.0,0.0,0.0,0.0,-3.5992,-3.5992,-3.5992,-3.5992,-3.5992,-3.5992,-3.5992,-3.5992,-3.5992,-3.5992,-3.5992,-3.5992,-3.5934,-3.533,-3.4764,-3.5563,-3.455,-3.3138,-3.3207,-3.2547,-3.1626,-3.0817,-3.056,-3.051,-3.051,-3.0465,-3.0416,-3.0416,-3.041,-3.0404,-3.0404,-3.0404,-3.0115,-2.9256,-2.906,-2.8436,-2.6757,-2.6454,-2.6119,-2.5293,-2.5191,-2.5191,-2.5191,-2.5191,-2.5191,-2.5191,-2.5191,-2.5191,-2.5191,-2.5191,-2.5191,-2.5191,-2.5191,-2.5191,-2.5191,-2.5191,-2.5191,-2.5191,-2.5191,-2.5191,-2.5191,-2.5191,-2.5191,-2.6702,0.0,-2.6865,-2.8799,-2.8958,-2.8958,0.0,-3.0598,-3.1023,-3.2488,-3.2937,-3.3713,-3.5863,-3.5823,-3.6283,-3.8823,-3.8839,-3.9173,-4.092,-4.2056,-4.3189,-4.4439,-4.5142,-4.52,0.0,0.0,0.0,0.0,0.0,0.0,0.0,0.0,-3.8827,-3.7274,-3.7484,-3.7497,-3.7201,-3.656,-3.6151,-3.6002,-3.5995,-3.5992,-3.5992,-3.5992,0.0,0.0,0.0,0.0,0.0,-3.5992,-3.5992,-3.5992,-3.5992,-3.5992,-3.5992,-3.5992,-3.5992,-3.5992,-3.5992,-3.5992,-3.5895,-3.5213,-3.4413,-3.3748,-3.3943,-3.3249,-3.2494,-3.3177,-3.2218,-3.0923,-3.073,-3.0623,-3.0587,-3.0587,-3.0537,-3.0482,-3.0482,-3.0433,-3.0404,-3.0404,-3.0404,-3.0129,-2.9246,-2.8549,-2.7744,-2.665,-2.5929,-2.542,-2.5225,-2.5201,-2.5195,-2.5191,-2.5191,-2.5191,-2.5191,-2.5191,-2.5191,-2.5191,-2.5191,-2.5191,-2.5191,-2.5191,-2.5191,-2.5191,-2.5191,-2.5191,-2.5191,-2.5191,-2.5191,-2.5191,-2.5191,-2.5191,-2.7189,-2.7561,-2.818,-2.9553,-2.9824,-2.9998,-3.0946,-3.0868,-3.0965,-3.2237,-3.2817,-3.3648,-3.5433,-3.5973,-3.6698,-3.8389,-3.9003,-3.989,-4.1656,-4.3361,-4.4485,-4.4594,-4.4987,0.0,0.0,0.0,0.0,0.0,0.0,0.0,0.0,0.0,-3.7715,-3.6381,-3.6381,-3.6444,-3.6518,-3.6093,-3.5917,-3.5956,-3.5987,-3.5999,-3.5998,-3.5994,0.0,0.0,0.0,0.0,-3.5992,-3.5992,-3.5992,-3.5992,-3.5992,-3.5992,-3.5992,-3.5992,-3.5992,-3.5992,-3.5992,-3.5992,-3.5914,-3.5446,-3.4431,-3.3474,-3.3886,-3.2831,-3.1699,-3.2558,-3.1806,-3.0757,-3.0757,-3.0704,-3.0645,-3.0645,-3.059,-3.0548,-3.0548,-3.0524,-3.0472,-3.046,-3.0122,-2.9696,-2.9187,-2.806,-2.7089,-2.6614,-2.5803,-2.5222,-2.5195,-2.519,-2.5204,-2.5193,-2.5206,-2.5206,-2.5189,-2.5208,-2.5203,-2.5191,-2.5191,-2.5191,-2.5191,-2.5191,-2.5191,-2.5191,-2.5191,-2.5191,-2.5191,-2.5191,-2.5191,-2.5191,-2.5191,-2.5191,-2.7933,-2.9457,-3.0752,-3.0636,-3.112,-3.1618,-3.1618,-3.1101,-3.0868,-3.1811,-3.2585,-3.3494,-3.4756,-3.6021,-3.6974,-3.726,-3.8856,-4.0597,-4.2144,-4.413,-4.52,-4.4671,-4.4478,0.0,0.0,0.0,0.0,0.0,0.0,0.0,0.0,0.0,0.0,-3.5723,-3.5704,-3.5703,-3.5694,-3.5819,-3.5861,-3.5889,-3.5937,-3.5973,-3.5973,-3.5986,0.0,0.0,0.0,0.0,-3.5992,-3.5992,-3.5992,-3.5992,-3.5856,-3.5797,-3.5797,-3.5797,-3.5719,-3.5621,-3.5758,-3.5797,-3.5778,-3.5641,-3.4509,-3.3318,-3.3925,-3.2558,-3.0956,-3.1699,-3.1368,-3.08,-3.08,-3.0764,-3.072,-3.072,-3.0659,-3.0614,-3.0614,-3.0603,-3.0575,-3.0537,-2.9808,-2.9162,-2.8979,-2.7653,-2.6579,-2.6447,-2.5783,-2.5288,-2.5222,-2.5217,-2.5217,-2.5192,-2.5192,-2.5201,-2.5198,-2.5198,-2.5206,-2.5203,-2.5197,-2.5191,-2.5191,-2.5191,-2.5191,-2.5191,-2.5191,-2.5191,-2.5191,-2.5191,-2.5191,-2.5191,-2.5191,-2.5191,-2.8664,-3.0327,-3.1444,-3.0772,-3.0694,-3.0772,-3.0772,-3.0694,-3.1043,-3.2585,-3.301,-3.4035,-3.7052,-3.7121,-3.7667,-4.0512,-4.1871,-4.2884,0.0,0.0,-4.3904,-4.4536,0.0,0.0,0.0,0.0,0.0,0.0,0.0,0.0,0.0,0.0,0.0,-3.5723,-3.5704,-3.5695,-3.5702,-3.5718,-3.5761,-3.5825,-3.5822,-3.5828,-3.583,-3.5895,-3.5918,0.0,0.0,0.0,-3.5992,-3.5992,-3.5992,-3.5934,-3.5193,-3.4901,-3.4901,-3.4901,-3.4432,-3.3904,-3.4647,-3.4901,-3.4783,-3.404,-3.3124,-3.2187,-3.1582,-3.1113,-3.0839,-3.0956,-3.0898,-3.08,-3.08,-3.0798,-3.0776,-3.0776,-3.073,-3.0677,-3.0677,-3.0639,-3.0593,-3.0598,-2.9873,-2.9066,-2.836,-2.7426,-2.6493,-2.5708,-2.5464,-2.5372,-2.5297,-2.5282,-2.5257,-2.5212,-2.5192,-2.5192,-2.5206,-2.5206,-2.5206,-2.5201,-2.5195,-2.5191,-2.5191,-2.5191,-2.5191,-2.5191,-2.5191,-2.5191,-2.5191,-2.5191,-2.5191,-2.5191,-2.5191,-2.5191,-2.8131,-2.9495,-3.0578,-3.112,-3.1952,-3.2653,-3.2653,-3.23,-3.2144,-3.285,-3.3379,-3.433,-3.6362,-3.7096,-3.8393,-4.1419,-4.2572,-4.3277,-4.375,-4.3503,-4.346,0.0,0.0,0.0,0.0,0.0,0.0,0.0,0.0,0.0,0.0,0.0,0.0,0.0,-3.5704,-3.5704,-3.5704,-3.5694,-3.5728,-3.5749,-3.578,-3.5799,-3.5802,-3.5867,-3.5895,0.0,0.0,-3.5999,-3.596,-3.5487,-3.5291,-3.5213,-3.4334,-3.4003,-3.4003,-3.4003,-3.3748,-3.3455,-3.3866,-3.4003,-3.3925,-3.3533,-3.2812,-3.2032,-3.1621,-3.1172,-3.08,-3.08,-3.08,-3.08,-3.08,-3.08,-3.08,-3.08,-3.0771,-3.0742,-3.0742,-3.0728,-3.0567,-3.0108,-2.9305,-2.8438,-2.7544,-2.6663,-2.5955,-2.5518,-2.5453,-2.5425,-2.5367,-2.5354,-2.5327,-2.5259,-2.5253,-2.5248,-2.5252,-2.5252,-2.5247,-2.5192,-2.5198,-2.5195,-2.5195,-2.5197,-2.5191,-2.5191,-2.5191,-2.5191,-2.5191,-2.5191,-2.5191,-2.5191,-2.5191,-2.5191,-2.7567,-2.8653,-2.9708,-3.1386,-3.2803,-3.3847,-3.404,-3.3576,-3.3125,-3.3232,-3.3947,-3.4815,-3.5644,-3.7145,-3.9059,-4.1516,-4.2406,-4.2914,-4.3253,-4.3131,0.0,0.0,0.0,0.0,0.0,0.0,0.0,0.0,0.0,0.0,0.0,0.0,0.0,0.0,-3.5704,-3.5704,-3.5704,-3.5704,-3.5707,-3.5706,-3.5751,-3.5668,-3.5476,-3.574,-3.5759,-3.5586,-3.5859,-3.5855,-3.562,-3.4968,-3.4572,-3.4317,-3.3438,-3.3105,-3.3064,-3.2869,-3.3045,-3.3377,-3.3162,-3.3103,-3.3103,-3.3103,-3.2519,-3.1797,-3.1797,-3.1328,-3.08,-3.08,-3.08,-3.08,-3.08,-3.08,-3.08,-3.08,-3.08,-3.0742,-3.0567,-3.0664,-3.0483,-2.9421,-2.8677,-2.7926,-2.7009,-2.6126,-2.5539,-2.5526,-2.5524,-2.5501,-2.5429,-2.5418,-2.5395,-2.5348,-2.5336,-2.5322,-2.5292,-2.5311,-2.5276,-2.5192,-2.5209,-2.5206,-2.5201,-2.5203,-2.5191,-2.5191,-2.5191,-2.5191,-2.5191,-2.5191,-2.5191,-2.5191,-2.5191,-2.5191,-2.7617,-2.8674,-2.9708,-3.1386,-3.1889,-3.2198,-3.301,-3.3146,-3.3339,-3.4132,-3.4983,-3.5825,-3.6569,-3.797,-3.9599,-4.134,-4.1788,-4.2217,-4.3169,0.0,0.0,0.0,0.0,0.0,0.0,0.0,0.0,0.0,0.0,0.0,0.0,0.0,0.0,0.0,0.0,-3.5704,-3.5704,-3.5704,-3.569,-3.5701,-3.5711,-3.5291,-3.4521,-3.5341,-3.5307,-3.4656,-3.5525,-3.5446,-3.4704,-3.4705,-3.4211,-3.3405,-3.2526,-3.2192,-3.209,-3.1289,-3.201,-3.3279,-3.2461,-3.2187,-3.2187,-3.2187,-3.1602,-3.0898,-3.0898,-3.0859,-3.08,-3.08,-3.08,-3.08,-3.08,-3.08,-3.08,-3.08,-3.08,-3.0606,-2.9846,-3.0274,-3.0312,-2.869,-2.8339,-2.8007,-2.7148,-2.6269,-2.5654,-2.5601,-2.5595,-2.5578,-2.5504,-2.5495,-2.5492,-2.5489,-2.5429,-2.538,-2.5302,-2.5311,-2.5276,-2.5192,-2.5209,-2.5201,-2.5197,-2.5191,-2.5191,-2.5191,-2.5191,-2.5191,-2.5191,-2.5191,-2.5191,-2.5191,-2.5191,-2.5191,-2.6981,-2.8309,-2.9637,-3.0763,-3.1456,-3.2362,-3.4278,-3.466,-3.4968,-3.6258,-3.644,-3.644,-3.6647,-3.8147,-3.9704,-4.0793,-4.1087,-4.1306,0.0,0.0,0.0,0.0,0.0,0.0,0.0,0.0,0.0,0.0,0.0,0.0,0.0,0.0,0.0,0.0,0.0,-3.5438,-3.4897,-3.4897,-3.4621,-3.4093,-3.4621,-3.4447,-3.3596,-3.3988,-3.3972,-3.3708,-3.4105,-3.4122,-3.3801,-3.33,-3.289,-3.2512,-3.1689,-3.1333,-3.125,-3.0917,-3.121,-3.1737,-3.1407,-3.1289,-3.1289,-3.1289,-3.1075,-3.08,-3.08,-3.08,-3.08,-3.08,-3.08,-3.08,-3.08,-3.08,-3.08,-3.08,-3.08,-3.0722,-3.0411,-3.0196,-2.9708,-2.8537,-2.7854,-2.7211,-2.6333,-2.5922,-2.5684,-2.5675,-2.5654,-2.5642,-2.5561,-2.5554,-2.5542,-2.5507,-2.548,-2.545,-2.5433,-2.541,-2.5403,-2.5383,-2.5274,-2.5206,-2.5195,-2.5197,-2.5191,-2.5191,-2.5191,-2.5191,-2.5191,-2.5191,-2.5191,-2.5191,-2.5191,-2.5191,-2.7095,-2.8508,-3.0014,-3.0836,-3.1657,-3.2928,-3.5523,-3.5599,-3.5598,-3.718,-3.6892,-3.6392,-3.6599,-3.748,-3.8524,0.0,-3.9663,0.0,0.0,0.0,0.0,0.0,0.0,0.0,0.0,0.0,0.0,0.0,0.0,0.0,0.0,0.0,0.0,0.0,0.0,0.0,-3.4413,-3.4137,-3.3557,-3.2701,-3.3286,-3.3267,-3.2701,-3.3014,-3.3024,-3.278,-3.3111,-3.3141,-3.2872,-3.233,-3.1952,-3.1675,-3.1126,-3.0867,-3.0823,-3.0823,-3.0822,-3.08,-3.08,-3.08,-3.08,-3.08,-3.08,-3.08,-3.08,-3.08,-3.08,-3.08,-3.08,-3.08,-3.08,-3.08,-3.08,-3.08,-3.08,-3.0664,-3.0117,-2.9786,-2.9182,-2.7756,-2.7211,-2.6723,-2.5844,-2.5707,-2.5707,-2.5707,-2.5707,-2.5682,-2.5642,-2.5639,-2.5605,-2.5537,-2.5532,-2.5521,-2.5498,-2.5495,-2.5489,-2.5473,-2.5346,-2.525,-2.525,-2.5254,-2.5269,-2.5269,-2.5269,-2.5269,-2.5269,-2.5269,-2.5269,-2.5269,-2.5233,-2.5233,-2.8198,-2.9424,-3.0918,-3.1776,-3.2505,-3.3721,-3.6386,-3.5669,-3.4891,-3.6555,-3.6048,-3.5595,-3.6516,-3.5926,0.0,-3.7697,-3.7379,0.0,0.0,0.0,0.0,0.0,0.0,0.0,0.0,0.0,0.0,0.0,0.0,0.0,0.0,0.0,0.0,0.0,0.0,0.0,-3.4374,-3.3513,-3.2643,-3.1792,-3.1792,-3.1792,-3.1811,-3.2681,-3.2604,-3.184,-3.2776,-3.2695,-3.1902,-3.2023,-3.1616,-3.0897,-3.0895,-3.0892,-3.0907,-3.0907,-3.0864,-3.08,-3.08,-3.08,-3.08,-3.08,-3.08,-3.08,-3.08,-3.08,-3.08,-3.08,-3.08,-3.08,-3.08,-3.0781,-3.0781,-3.0781,-3.0781,-3.0332,-2.8654,-2.8967,-2.8812,-2.6214,-2.6391,-2.6703,-2.5844,-2.5707,-2.5707,-2.5707,-2.5707,-2.5707,-2.5707,-2.5707,-2.5679,-2.5605,-2.5601,-2.5578,-2.5508,-2.5502,-2.5476,-2.5402,-2.5399,-2.5399,-2.5399,-2.5399,-2.5399,-2.5399,-2.5399,-2.5399,-2.5399,-2.5399,-2.5399,-2.5395,-2.5336,-2.534,-2.7617,-2.8995,-3.0814,-3.1028,-3.2616,-3.4621,-3.6566,-3.6445,-3.6111,-3.6717,-3.6454,-3.6086,-3.5887,-3.5708,0.0,-3.698,0.0,0.0,0.0,0.0,0.0,0.0,0.0,0.0,0.0,0.0,0.0,0.0,0.0,0.0,0.0,0.0,0.0,0.0,0.0,0.0,-3.259,-3.2314,-3.1773,-3.0965,-3.0965,-3.0965,-3.0965,-3.1217,-3.1197,-3.0965,-3.1254,-3.1223,-3.0989,-3.1074,-3.1008,-3.0836,-3.0839,-3.0859,-3.0888,-3.0845,-3.0822,-3.08,-3.08,-3.08,-3.08,-3.08,-3.08,-3.08,-3.08,-3.08,-3.08,-3.08,-3.08,-3.08,-3.08,-3.0372,-2.9962,-2.9962,-2.9962,-2.965,-2.8537,-2.8011,-2.7543,-2.6762,-2.6333,-2.6,-2.5746,-2.5707,-2.5707,-2.5707,-2.5707,-2.5707,-2.5707,-2.5707,-2.5684,-2.5677,-2.5676,-2.5653,-2.5641,-2.5641,-2.5639,-2.5618,-2.5616,-2.5546,-2.5402,-2.5399,-2.5399,-2.5399,-2.5399,-2.5399,-2.5399,-2.5399,-2.5399,-2.5399,-2.5374,-2.5379,-2.907,-3.0375,-3.1987,-3.2614,-3.4195,-3.5904,-3.7085,-3.7295,-3.7152,-3.6832,-3.6368,-3.5928,-3.5637,-3.5566,0.0,0.0,0.0,0.0,0.0,0.0,0.0,0.0,0.0,0.0,0.0,0.0,0.0,0.0,0.0,0.0,0.0,0.0,0.0,0.0,0.0,0.0,-3.1811,-3.1483,-3.1081,-3.0598,-3.0598,-3.0598,-3.0598,-3.0598,-3.0598,-3.0598,-3.0598,-3.0593,-3.06,-3.0667,-3.0737,-3.0808,-3.0836,-3.0859,-3.089,-3.0849,-3.0824,-3.08,-3.08,-3.08,-3.08,-3.08,-3.08,-3.08,-3.08,-3.0587,-3.0313,-3.0313,-3.0313,-3.0313,-3.0313,-2.9962,-2.9592,-2.9592,-2.9339,-2.883,-2.7971,-2.7367,-2.6899,-2.6547,-2.6058,-2.5707,-2.5707,-2.5707,-2.5707,-2.5707,-2.5707,-2.5707,-2.5707,-2.5707,-2.5707,-2.5707,-2.5707,-2.5707,-2.5707,-2.5707,-2.5707,-2.5707,-2.5707,-2.5651,-2.5513,-2.5527,-2.5527,-2.5527,-2.5527,-2.5527,-2.5527,-2.5527,-2.5527,-2.5527,-2.5493,-2.5498,-3.1566,-3.2618,-3.369,-3.5363,-3.6443,-3.7213,-3.7681,-3.7868,-3.7681,-3.6741,-3.5885,-3.5367,-3.5628,-3.5463,-3.5395,0.0,0.0,0.0,0.0,0.0,0.0,0.0,0.0,0.0,0.0,0.0,0.0,0.0,0.0,0.0,0.0,0.0,0.0,0.0,0.0,0.0,-3.1695,-3.0965,-3.0598,0.0,-3.0598,-3.0598,-3.0598,-3.0598,-3.0598,-3.0598,-3.0598,-3.0608,-3.0609,-3.0673,-3.0722,-3.0796,-3.0856,-3.0898,-3.0896,-3.0894,-3.0869,-3.0801,-3.08,-3.08,-3.08,-3.08,-3.0742,-3.0703,-3.0781,-3.0177,-2.9495,-2.9573,-2.9534,-2.9475,-2.9475,-2.9417,-2.9358,-2.9358,-2.8752,-2.7932,-2.7074,-2.6879,-2.6645,-2.5844,-2.5707,-2.5707,-2.5707,-2.5707,-2.5707,-2.5707,-2.5707,-2.5707,-2.5707,-2.5707,-2.5707,-2.5707,-2.5707,-2.5707,-2.5707,-2.5707,-2.5707,-2.5707,-2.5707,-2.5707,-2.5707,-2.5707,-2.5707,-2.5707,-2.5707,-2.5707,-2.5707,-2.5707,-2.5707,-2.5706,-2.5646,-2.564,-3.1154,-3.1719,-3.2774,-3.4469,-3.5954,-3.7001,-3.6907,-3.6411,-3.5897,-3.5514,-3.5278,-3.5195,-3.536,-3.5423,0.0,0.0,0.0,0.0,0.0,0.0,0.0,0.0,0.0,0.0,0.0,0.0,0.0,0.0,0.0,0.0,0.0,0.0,0.0,0.0,0.0,-3.0868,-3.0868,-3.0694,-3.0598,0.0,-3.0598,-3.0598,-3.0598,-3.0598,-3.0598,-3.0598,-3.0598,-3.0592,-3.0591,-3.0613,-3.0633,-3.0645,-3.0728,-3.0781,-3.0837,-3.0876,-3.0889,-3.0866,-3.0822,-3.08,-3.08,-3.08,-3.0372,-2.9982,-3.0606,-2.9767,-2.8713,-2.9417,-2.9104,-2.8576,-2.8576,-2.807,-2.7562,-2.7562,-2.7426,-2.7035,-2.6175,-2.598,-2.5922,-2.5746,-2.5707,-2.5707,-2.5707,-2.5707,-2.5707,-2.5707,-2.5707,-2.5707,-2.5707,-2.5707,-2.5707,-2.5707,-2.5707,-2.5707,-2.5707,-2.5707,-2.5707,-2.5707,-2.5707,-2.5707,-2.5707,-2.5707,-2.5707,-2.5707,-2.5707,-2.5707,-2.5707,-2.5707,-2.5707,-2.5707,-2.5699,-2.5693,-3.1315,-3.2053,-3.3222,-3.5324,-3.6472,-3.6928,-3.6233,-3.5753,-3.5148,-3.4083,-3.387,-3.3944,-3.4081,0.0,0.0,0.0,0.0,0.0,0.0,0.0,0.0,0.0,0.0,0.0,0.0,0.0,0.0,0.0,0.0,0.0,0.0,0.0,0.0,0.0,-3.0598,-3.0598,-3.0598,-3.0598,-3.0598,-3.0598,-3.0598,-3.0598,-3.0598,-3.0598,-3.0598,-3.0598,-3.0598,-3.0598,-3.0602,-3.0608,-3.0595,-3.0565,-3.0207,-3.0373,-3.0752,-3.0328,-3.0488,-3.0892,-3.0818,-3.0814,-3.0845,-3.0845,-3.0277,-2.967,-3.0099,-2.9025,-2.7777,-2.8226,-2.8031,-2.7678,-2.7678,-2.7348,-2.6996,-2.6996,-2.6684,-2.6254,-2.5805,-2.5707,-2.5707,-2.5707,-2.5707,-2.5707,-2.5707,-2.5707,-2.5707,-2.5707,-2.5707,-2.5707,-2.5707,-2.5707,-2.5707,-2.5707,-2.5707,-2.5707,-2.5707,-2.5707,-2.5707,-2.5707,-2.5707,-2.5707,-2.5707,-2.5707,-2.5707,-2.5707,-2.5707,-2.5707,-2.5707,-2.5707,-2.5707,-2.5707,-2.5702,-2.5696,-3.127,-3.2506,-3.3902,-3.5994,-3.6615,-3.6404,-3.5141,-3.4839,-3.4301,-3.2489,-3.2376,-3.2603,-3.2716,0.0,0.0,0.0,0.0,0.0,0.0,0.0,0.0,0.0,0.0,0.0,0.0,0.0,0.0,0.0,0.0,0.0,0.0,0.0,-3.0598,-3.0598,-3.0598,-3.0598,-3.0598,-3.0598,-3.0598,-3.0598,-3.0598,-3.0598,-3.0598,-3.0443,-3.0462,-3.0598,-3.0598,-3.0598,-3.0583,-3.0432,-3.0459,-3.0505,-2.9544,-2.9831,-3.0639,-2.9588,-2.991,-3.0859,-3.0643,-3.0625,-3.0675,-3.0675,-2.9989,-2.9185,-2.9321,-2.8151,-2.6804,-2.6959,-2.6881,-2.6782,-2.6781,-2.6781,-2.6781,-2.6781,-2.6215,-2.5707,-2.5707,-2.5707,-2.5707,-2.5707,-2.5707,-2.5707,-2.5707,-2.5707,-2.5707,-2.5707,-2.5707,-2.5707,-2.5707,-2.5707,-2.5707,-2.5707,-2.5707,-2.5707,-2.5707,-2.5707,-2.5707,-2.5707,-2.5707,-2.5707,-2.5707,-2.5707,-2.5707,-2.5707,-2.5707,-2.5707,-2.5707,-2.5707,-2.5707,-2.5707,-2.5698,-2.5693,-2.9787,-3.1584,-3.3443,-3.3688,-3.4295,-3.4384,-3.26,-3.211,-3.1757,-3.0791,-3.1626,-3.2511,0.0,0.0,0.0,0.0,0.0,0.0,0.0,0.0,0.0,0.0,0.0,0.0,0.0,0.0,0.0,0.0,0.0,0.0,0.0,-3.054,-3.0598,-3.0598,-3.0598,-3.0598,-3.0598,-3.0598,-3.0598,-3.0598,-3.0598,-3.0598,-3.0578,-2.9824,-2.9882,-3.0598,-3.0598,-3.0598,-3.054,-2.9784,-2.9924,-3.0451,-2.8874,-2.924,-3.0441,-2.8924,-2.9391,-3.0697,-2.9938,-2.9726,-2.976,-2.976,-2.8666,-2.7494,-2.8237,-2.7261,-2.603,-2.6788,-2.6455,-2.5868,-2.5864,-2.5863,-2.5863,-2.5863,-2.5785,-2.5707,-2.5707,-2.5707,-2.5707,-2.5707,-2.5707,-2.5707,-2.5707,-2.5707,-2.5707,-2.5707,-2.5707,-2.5707,-2.5707,-2.5707,-2.5707,-2.5707,-2.5707,-2.5707,-2.5707,-2.5707,-2.5707,-2.5707,-2.5707,-2.5707,-2.5707,-2.5707,-2.5707,-2.5707,-2.5707,-2.5707,-2.5707,-2.5707,-2.5707,-2.5707,-2.5706,-2.5705,-2.9973,-3.141,-3.2883,-3.377,-3.3936,-3.3647,-3.2753,-3.213,-3.1448,-3.0546,-3.0859,0.0,0.0,0.0,0.0,0.0,0.0,0.0,0.0,0.0,0.0,0.0,0.0,0.0,0.0,0.0,0.0,0.0,0.0,0.0,-3.0392,-3.0535,-3.0598,-3.0598,-3.0598,0.0,-3.0598,-3.0598,-3.0598,-3.0598,-3.0598,-3.0346,-2.9863,-2.9476,-2.9515,-2.9843,-2.9364,-2.9132,-2.9113,-2.8726,-2.8803,-2.9016,-2.7799,-2.8092,-2.9049,-2.786,-2.8238,-2.9287,-2.8892,-2.8785,-2.8828,-2.8866,-2.8024,-2.7066,-2.7456,-2.6695,-2.5778,-2.6167,-2.599,-2.5698,-2.5696,-2.5694,-2.5691,-2.5691,-2.5709,-2.5707,-2.5707,-2.5707,-2.5707,-2.5707,-2.5707,-2.5707,-2.5707,-2.5707,-2.5707,-2.5707,-2.5707,-2.5707,-2.5707,-2.5707,-2.5707,-2.5707,-2.5707,-2.5707,-2.5707,-2.5707,-2.5707,-2.5707,-2.5707,-2.5707,-2.5707,-2.5707,-2.5707,-2.5707,-2.5707,-2.5707,-2.5707,-2.5707,-2.5707,-2.5707,-2.5707,-2.5707,-2.9957,-3.0948,-3.1789,-3.3261,-3.3358,-3.2998,-3.2659,-3.2068,-3.1355,0.0,-3.0414,0.0,0.0,0.0,0.0,0.0,0.0,0.0,0.0,0.0,0.0,0.0,0.0,0.0,0.0,0.0,0.0,0.0,0.0,0.0,-3.0254,-3.0417,-3.05,-3.053,-3.0361,-3.038,-3.0598,-3.0385,-3.0269,-3.0269,-3.0056,-2.9592,-2.8958,-2.8741,-2.8644,-2.8625,-2.8184,-2.7991,-2.7972,-2.7759,-2.7797,-2.7894,-2.6822,-2.7079,-2.7948,-2.6873,-2.7195,-2.813,-2.792,-2.7863,-2.7878,-2.7927,-2.7363,-2.6679,-2.6679,-2.6229,-2.5701,-2.5701,-2.5701,-2.57,-2.57,-2.5698,-2.5696,-2.5696,-2.5694,-2.5691,-2.5708,-2.5707,-2.5707,-2.5707,-2.5707,-2.5707,-2.5707,-2.5707,-2.5707,-2.5707,-2.5707,-2.5707,-2.5707,-2.5707,-2.5707,-2.5707,-2.5707,-2.5707,-2.5707,-2.5707,-2.5707,-2.5707,-2.5707,-2.5707,-2.5707,-2.5707,-2.5707,-2.5707,-2.5707,-2.5707,-2.5707,-2.5707,-2.5707,-2.5707,-2.5707,-2.5707,-2.8885,-2.9595,-2.9842,-3.0769,-3.1583,-3.1956,-3.1111,-3.0794,-3.0651,-3.0609,0.0,0.0,0.0,0.0,0.0,0.0,0.0,0.0,0.0,0.0,0.0,0.0,0.0,0.0,0.0,0.0,0.0,0.0,0.0,0.0,-2.9842,-3.0075,-3.0241,-3.0316,-2.9692,-2.9762,-3.0598,-2.9785,-2.9364,-2.9364,-2.8533,-2.8107,-2.8049,-2.7209,-2.6841,-2.688,-2.7658,-2.7991,-2.7933,-2.7112,-2.7252,-2.7836,-2.6207,-2.6559,-2.7806,-2.6177,-2.6636,-2.7983,-2.7154,-2.6919,-2.6975,-2.6977,-2.6433,-2.5768,-2.5768,-2.5739,-2.5703,-2.5703,-2.5702,-2.5702,-2.57,-2.57,-2.57,-2.57,-2.57,-2.5698,-2.5709,-2.5707,-2.5707,-2.5707,-2.5707,-2.5707,-2.5707,-2.5707,-2.5707,-2.5707,-2.5707,-2.5707,-2.5707,-2.5707,-2.5707,-2.5707,-2.5707,-2.5707,-2.5707,-2.5707,-2.5707,-2.5707,-2.5707,-2.5707,-2.5707,-2.5707,-2.5707,-2.5707,-2.5707,-2.5707,-2.5707,-2.5707,-2.5707,-2.5707,-2.5707,-2.5707,-2.7654,-2.8268,-2.8873,-2.9741,-3.0193,-3.0492,-3.0743,-3.0767,-3.0578,-3.0014,0.0,0.0,0.0,0.0,0.0,0.0,0.0,0.0,0.0,0.0,0.0,0.0,0.0,0.0,0.0,0.0,0.0,0.0,0.0,0.0,-2.9061,-2.9162,-2.9053,-2.8629,-2.8406,-2.8466,-2.885,-2.8593,-2.8467,-2.8467,-2.8156,-2.772,-2.7151,-2.6841,-2.6416,-2.5952,-2.6265,-2.6401,-2.6362,-2.6068,-2.6107,-2.6343,-2.5724,-2.5878,-2.6312,-2.5721,-2.5903,-2.6384,-2.612,-2.6016,-2.6011,-2.6041,-2.5864,-2.5645,-2.5683,-2.5692,-2.5699,-2.5703,-2.5703,-2.5703,-2.5703,-2.5702,-2.5702,-2.57,-2.57,-2.57,-2.5697,-2.5694,-2.5691,-2.5708,-2.5707,-2.5707,-2.5707,-2.5707,-2.5707,-2.5707,-2.5707,-2.5707,-2.5707,-2.5707,-2.5707,-2.5707,-2.5707,-2.5707,-2.5707,-2.5707,-2.5707,-2.5707,-2.5707,-2.5707,-2.5707,-2.5696,-2.5696,-2.5707,-2.57,-2.5701,-2.5707,-2.5707,-2.5707,-2.5707,-2.5707,-2.5707,-2.6914,-2.738,-2.7993,-2.8858,-2.9058,-2.9217,-2.979,-2.9925,-2.9769,-2.9184,0.0,0.0,0.0,0.0,0.0,0.0,0.0,0.0,0.0,0.0,0.0,0.0,0.0,0.0,0.0,0.0,0.0,0.0,0.0,0.0,-2.807,-2.8134,-2.7906,-2.7276,-2.7543,-2.7602,-2.7421,-2.7518,-2.7547,-2.7499,-2.7265,-2.6865,-2.63,-2.63,-2.601,-2.5507,-2.5507,-2.5507,-2.5507,-2.5507,-2.5507,-2.5507,-2.5507,-2.5507,-2.5496,-2.5508,-2.5498,-2.5507,-2.5543,-2.5546,-2.5515,-2.5557,-2.5564,-2.5563,-2.5613,-2.5647,-2.5679,-2.5673,-2.568,-2.5701,-2.5701,-2.5703,-2.5703,-2.5702,-2.5702,-2.5702,-2.5701,-2.5699,-2.5696,-2.5694,-2.5696,-2.5699,-2.5699,-2.5682,-2.5663,-2.5663,-2.5663,-2.5663,-2.5663,-2.5663,-2.5663,-2.5663,-2.5663,-2.5663,-2.5663,-2.5663,-2.5662,-2.5662,-2.5662,-2.5662,-2.5662,-2.5664,-2.5664,-2.5662,-2.5683,-2.5703,-2.5699,-2.5699,-2.5699,-2.5699,-2.5699,-2.5698,0.0,0.0,0.0,-2.793,-2.8155,-2.8168,-2.816,0.0,-2.8193,-2.8171,0.0,0.0,0.0,0.0,0.0,0.0,0.0,0.0,0.0,0.0,0.0,0.0,0.0,0.0,0.0,0.0,0.0,0.0,0.0,-2.7027,-2.6879,-2.7033,-2.6889,-2.6368,-2.7175,-2.7231,-2.6458,-2.6588,-2.6583,-2.6444,-2.5801,-2.5507,-2.5507,-2.5507,-2.5507,-2.5507,-2.5507,-2.5507,-2.5507,-2.5507,-2.5507,-2.5507,-2.5507,-2.5507,-2.5507,-2.5507,-2.5507,-2.5507,-2.5507,-2.5507,-2.5507,-2.5507,-2.5501,-2.5498,-2.5501,-2.5542,-2.56,-2.56,-2.5647,-2.5706,-2.5707,-2.5699,-2.5703,-2.5703,-2.5703,-2.5703,-2.5703,-2.5702,-2.57,-2.57,-2.5703,-2.57,-2.57,-2.5647,-2.5591,-2.5591,-2.5591,-2.5591,-2.5591,-2.5591,-2.5591,-2.5591,-2.5591,-2.5591,-2.5591,-2.5603,-2.5608,-2.5608,-2.5608,-2.5608,-2.5608,-2.5608,-2.5608,-2.5608,-2.5657,-2.5699,-2.5699,-2.57,-2.57,-2.57,-2.57,-2.5702,-2.5986,0.0,0.0,0.0,0.0,0.0,0.0,0.0,0.0,0.0,0.0,0.0,0.0,0.0,0.0,0.0,0.0,0.0,0.0,0.0,0.0,0.0,0.0,0.0,0.0,0.0,0.0,0.0,-2.7135,-2.6785,-2.6061,-2.5612,-2.5325,-2.5158,-2.5492,-2.5571,-2.5336,-2.5485,-2.5554,-2.5554,-2.5418,-2.5408,-2.5507,-2.5507,-2.5507,-2.5507,-2.5507,-2.5507,-2.5507,-2.5507,-2.5507,-2.5507,-2.5507,-2.5507,-2.5507,-2.5507,-2.5507,-2.5507,-2.5507,-2.5507,-2.5507,-2.5507,-2.5503,-2.5494,-2.5508,-2.5513,-2.5537,-2.5591,-2.5609,-2.5642,-2.5683,-2.5699,-2.5703,-2.5703,-2.5703,-2.5703,-2.5703,-2.5702,-2.5699,-2.5702,-2.5701,-2.5678,-2.5645,-2.5616,-2.5591,-2.5591,-2.5591,-2.5591,-2.5591,-2.5591,-2.5591,-2.5591,-2.5591,-2.5591,-2.5591,-2.5595,-2.5597,-2.5597,-2.5597,-2.5597,-2.5597,-2.56,-2.5598,-2.5597,-2.5623,-2.5632,-2.5636,-2.5672,-2.57,-2.57,-2.57,-2.5701,-2.5805,-2.5694,-2.5699,-2.5702,0.0,0.0,-2.6465,-2.6829,0.0,0.0,0.0,0.0,0.0,0.0,0.0,0.0,0.0,0.0,0.0,0.0,0.0,0.0,0.0,0.0,0.0,0.0,0.0,0.0,-2.6097,-2.5805,-2.5224,-2.4835,-2.4637,-2.47,-2.4779,-2.483,-2.483,-2.4942,-2.5037,-2.5078,-2.521,-2.5326,-2.5456,-2.5484,-2.5507,-2.5507,-2.5507,-2.5507,-2.5507,-2.5507,-2.5507,-2.5507,-2.5507,-2.5507,-2.5507,-2.5507,-2.5507,-2.5507,-2.5507,-2.5507,-2.5507,-2.5507,-2.5507,-2.5499,-2.5505,-2.5499,-2.5509,-2.5546,-2.5554,-2.5563,-2.5644,-2.5664,-2.5653,-2.5653,-2.5677,-2.57,-2.57,-2.5695,-2.5709,-2.5695,-2.5644,-2.5602,-2.558,-2.5559,-2.5564,-2.5564,-2.5564,-2.5564,-2.5564,-2.5564,-2.5564,-2.5564,-2.5564,-2.5564,-2.5564,-2.5556,-2.5563,-2.5563,-2.5563,-2.5563,-2.5563,-2.5559,-2.5559,-2.5561,-2.5585,-2.5593,-2.56,-2.565,-2.5666,-2.5668,-2.5663,-2.5668,-2.5941,-2.5707,-2.569,-2.57,-2.5702,0.0,-2.5692,-2.5705,-2.5699,0.0,0.0,0.0,0.0,0.0,0.0,0.0,0.0,0.0,0.0,0.0,0.0,0.0,0.0,0.0,0.0,0.0,-2.5616,-2.4764,-2.4621,-2.4557,-2.45,-2.45,-2.4549,-2.4676,-2.4676,-2.4676,-2.4676,-2.4806,-2.4877,-2.4872,-2.5094,-2.5255,-2.5385,-2.5456,-2.5507,-2.5507,-2.5507,-2.5507,-2.5507,-2.5507,-2.5507,-2.5507,-2.5507,-2.5507,-2.5507,-2.5507,-2.5507,-2.5507,-2.5507,-2.5507,-2.5507,-2.5507,-2.5507,-2.5507,-2.5507,-2.5507,-2.5507,-2.5507,-2.5508,-2.5515,-2.5563,-2.5598,-2.5601,-2.5601,-2.5645,-2.5683,-2.5683,-2.5681,-2.568,-2.568,-2.5589,-2.5501,-2.5492,-2.5498,-2.5507,-2.5507,-2.5507,-2.5507,-2.5507,-2.5507,-2.5507,-2.5507,-2.5507,-2.5507,-2.5507,-2.5506,-2.5508,-2.5508,-2.5508,-2.5508,-2.5508,-2.5508,-2.5508,-2.5508,-2.5557,-2.5589,-2.5589,-2.5598,-2.5601,-2.5601,-2.5607,-2.559,-2.5941,-2.5707,-2.5708,-2.5691,-2.5692,0.0,-2.5703,-2.5703,-2.5703,0.0,0.0,0.0,0.0,0.0,0.0,0.0,0.0,0.0,0.0,0.0,0.0,0.0,0.0,0.0,0.0,0.0,-2.5062,-2.4734,-2.459,-2.4517,-2.45,-2.45,-2.4517,-2.4551,-2.4551,-2.4551,-2.4551,-2.4621,-2.4696,-2.473,-2.5006,-2.5163,-2.5245,-2.5427,-2.5507,-2.5507,-2.5507,-2.5507,-2.5507,-2.5507,-2.5507,-2.5507,-2.5507,-2.5507,-2.5507,-2.5507,-2.5507,-2.5507,-2.5507,-2.5507,-2.5507,-2.5507,-2.5507,-2.5507,-2.5507,-2.5507,-2.5507,-2.5507,-2.5508,-2.5504,-2.5518,-2.5554,-2.5601,-2.5601,-2.5607,-2.5613,-2.5613,-2.5585,-2.5537,-2.5537,-2.5518,-2.5505,-2.5506,-2.5499,-2.5507,-2.5507,-2.5507,-2.5507,-2.5507,-2.5507,-2.5507,-2.5507,-2.5507,-2.5507,-2.5507,-2.5499,-2.5503,-2.5503,-2.5503,-2.5503,-2.5503,-2.5503,-2.5503,-2.5503,-2.5511,-2.5515,-2.5515,-2.5573,-2.5601,-2.5601,-2.5603,-2.56,-2.5941,-2.5707,-2.5707,-2.5707,0.0,0.0,0.0,-2.5702,-2.5703,-2.5701,0.0,0.0,0.0,0.0,0.0,0.0,0.0,0.0,0.0,0.0,0.0,0.0,0.0,0.0,0.0,0.0,-2.4953,-2.4723,-2.4574,-2.45,-2.45,-2.45,-2.45,-2.45,-2.45,-2.45,-2.45,-2.4524,-2.4596,-2.4693,-2.4891,-2.4849,-2.4561,-2.4765,-2.4842,-2.4853,-2.4853,-2.5105,-2.5507,-2.5507,-2.5507,-2.5507,-2.5507,-2.5507,-2.5507,-2.5507,-2.5507,-2.5507,-2.5507,-2.5507,-2.5507,-2.5507,-2.5507,-2.5507,-2.5507,-2.5507,-2.5507,-2.5507,-2.5499,-2.5508,-2.5508,-2.5515,-2.5543,-2.5543,-2.5546,-2.5547,-2.5547,-2.5524,-2.5501,-2.5501,-2.5496,-2.5498,-2.5496,-2.5507,-2.5507,-2.5507,-2.5507,-2.5507,-2.5507,-2.5507,-2.5507,-2.5507,-2.5507,-2.5507,-2.5507,-2.5507,-2.5507,-2.5507,-2.5507,-2.5507,-2.5507,-2.5507,-2.5507,-2.5507,-2.5507,-2.5507,-2.5507,-2.5529,-2.556,-2.556,-2.5571,-2.5595,0.0,0.0,-2.5707,0.0,0.0,-2.569,0.0,0.0,0.0,-2.5703,0.0,0.0,0.0,0.0,0.0,0.0,0.0,0.0,0.0,0.0,0.0,0.0,0.0,0.0,0.0,0.0,-2.494,-2.4723,-2.4574,-2.45,-2.45,-2.45,-2.45,-2.45,-2.45,-2.45,-2.45,-2.45,-2.4549,-2.466,-2.4636,-2.4366,-2.3861,-2.3875,-2.3894,-2.396,-2.3926,-2.4335,-2.5008,-2.5182,-2.526,-2.5279,-2.543,-2.5507,-2.5507,-2.5507,-2.5507,-2.5507,-2.5507,-2.5507,-2.5507,-2.5507,-2.5507,-2.5507,-2.5507,-2.5507,-2.5507,-2.5507,-2.5507,-2.5507,-2.5507,-2.5507,-2.5507,-2.5507,-2.5501,-2.5502,-2.5502,-2.5502,-2.5502,-2.5502,-2.5494,-2.5507,-2.5507,-2.5507,-2.5507,-2.5507,-2.5507,-2.5507,-2.5507,-2.5507,-2.5507,-2.5507,-2.5507,-2.5507,-2.5507,-2.5507,-2.5507,-2.5507,-2.5507,-2.5507,-2.5507,-2.5507,-2.5507,-2.5507,-2.5507,-2.5507,-2.5507,-2.5507,-2.5507,-2.5505,-2.5557,-2.5587,0.0,0.0,0.0,0.0,-2.5707,0.0,0.0,0.0,-2.569,-2.5692,0.0,0.0,0.0,0.0,0.0,0.0,0.0,0.0,0.0,0.0,0.0,0.0,0.0,0.0,0.0,0.0,0.0,-2.4707,-2.4574,-2.45,-2.45,-2.45,-2.45,-2.45,-2.45,-2.45,-2.45,-2.45,-2.4508,-2.4515,-2.393,-2.368,-2.3708,-2.3015,-2.282,-2.3049,-2.2923,-2.2983,-2.3271,-2.4022,-2.435,-2.4428,-2.5201,-2.5507,-2.5507,-2.5507,-2.5507,-2.5507,-2.5507,-2.5507,-2.5507,-2.5507,-2.5507,-2.5507,-2.5507,-2.5507,-2.5507,-2.5507,-2.5507,-2.5507,-2.5507,-2.5507,-2.5507,-2.5507,-2.5496,-2.5503,-2.5503,-2.5503,-2.5503,-2.5503,-2.5496,-2.5507,-2.5507,-2.5507,-2.5507,-2.5507,-2.5507,-2.5507,-2.5507,-2.5507,-2.5507,-2.5507,-2.5507,-2.5507,-2.5507,-2.5507,-2.5507,-2.5507,-2.5507,-2.5507,-2.5507,-2.5507,-2.5507,-2.5507,-2.5507,-2.5507,-2.5507,-2.5507,-2.5492,-2.5499,-2.5501,-2.5502,0.0,0.0,0.0,0.0,0.0,0.0,-2.5684,0.0,-2.5707,0.0,0.0,0.0,0.0,0.0,0.0,0.0,0.0,0.0,0.0,0.0,0.0,0.0,0.0,0.0,0.0,0.0,0.0,0.0,0.0,-2.4532,-2.45,-2.45,-2.45,-2.45,-2.45,-2.45,-2.45,-2.45,-2.4249,-2.3739,-2.3577,-2.3025,-2.2111,-2.1854,-2.1842,-2.2033,-2.1962,-2.2315,-2.2923,-2.3287,-2.3441,-2.3538,-2.4409,-2.5047,-2.5507,-2.5507,-2.5507,-2.5507,-2.5507,-2.5507,-2.5507,-2.5507,-2.5507,-2.5507,-2.5507,-2.5507,-2.5507,-2.5507,-2.5507,-2.5507,-2.5507,-2.5507,-2.5507,-2.5507,-2.5507,-2.5507,-2.5507,-2.5507,-2.5507,-2.5507,-2.5507,-2.5507,-2.5507,-2.5507,-2.5507,-2.5507,-2.5507,-2.5507,-2.5507,-2.5507,-2.5507,-2.5507,-2.5507,-2.5507,-2.5507,-2.5507,-2.5507,-2.5507,-2.5507,-2.5507,-2.5507,-2.5507,-2.5507,-2.5507,-2.5507,-2.5507,-2.5507,-2.5507,-2.5507,-2.5492,-2.5498,-2.5525,-2.5707,0.0,0.0,0.0,0.0,0.0,0.0,0.0,0.0,0.0,0.0,0.0,0.0,0.0,0.0,-2.5707,0.0,0.0,0.0,0.0,0.0,0.0,0.0,0.0,0.0,0.0,0.0,0.0,0.0,0.0,-2.4508,-2.45,-2.45,-2.45,-2.45,-2.45,-2.45,-2.4249,-2.3832,-2.3203,-2.2899,-2.2145,-2.0991,-2.0834,-2.0842,-2.1022,-2.1008,-2.1442,-2.2206,-2.2448,-2.2552,-2.2652,-2.3499,-2.4389,-2.5163,-2.541,-2.5507,-2.5507,-2.5507,-2.5507,-2.5507,-2.5507,-2.5507,-2.5507,-2.5507,-2.5507,-2.5507,-2.5507,-2.5507,-2.5507,-2.5507,-2.5507,-2.5507,-2.5507,-2.5507,-2.5507,-2.5507,-2.5507,-2.5507,-2.5507,-2.5507,-2.5507,-2.5507,-2.5507,-2.5507,-2.5507,-2.5507,-2.5507,-2.5507,-2.5507,-2.5507,-2.5507,-2.5507,-2.5507,-2.5507,-2.5507,-2.5507,-2.5507,-2.5507,-2.5507,-2.5507,-2.5507,-2.5507,-2.5507,-2.5507,-2.5507,-2.5507,-2.5507,-2.5507,-2.5511,-2.5503,-2.5531,0.0,0.0,0.0,-2.5707,0.0,0.0,0.0,0.0,-2.5707,0.0,0.0,0.0,0.0,-2.5707,-2.5707,-2.5707,-2.5707,0.0,0.0,0.0,0.0,0.0,0.0,0.0,0.0,0.0,0.0,0.0,0.0,0.0,-2.4508,-2.45,-2.45,-2.45,-2.45,-2.45,-2.45,-2.3657,-2.324,-2.3184,-2.1633,-2.0933,-2.0964,-2.0057,-1.9801,-2.0031,-1.9972,-2.0102,-2.0446,-2.1296,-2.1671,-2.1823,-2.2633,-2.3461,-2.4331,-2.5182,-2.5507,-2.5507,-2.5507,-2.5507,-2.5507,-2.5507,-2.5507,-2.5507,-2.5507,-2.5507,-2.5507,-2.5507,-2.5507,-2.5507,-2.5507,-2.5507,-2.5507,-2.5507,-2.5507,-2.5507,-2.5507,-2.5507,-2.5507,-2.5507,-2.5507,-2.5507,-2.5507,-2.5507,-2.5507,-2.5507,-2.5507,-2.5507,-2.5507,-2.5507,-2.5507,-2.5507,-2.5507,-2.5507,-2.5507,-2.5507,-2.5507,-2.5507,-2.5507,-2.5507,-2.5507,-2.5507,-2.5507,-2.5507,-2.5507,-2.5507,-2.5507,-2.5507,-2.5507,-2.5507,-2.5492,-2.5492,0.0,0.0,-2.5645,-2.5683,0.0,0.0,0.0,0.0,0.0,0.0,0.0,0.0,0.0,-2.5676,-2.5707,-2.5707,-2.5707,-2.5707,0.0,0.0,0.0,0.0,0.0,0.0,0.0,0.0,0.0,0.0,0.0,0.0,0.0,-2.4515,-2.45,-2.45,-2.45,-2.45,-2.45,-2.3638,-2.2924,-2.2386,-2.1309,-2.054,-2.0068,-1.9741,-1.9694,-1.9879,-1.9901,-2.0036,-2.025,-2.06,-2.0774,-2.0927,-2.1762,-2.2613,-2.3441,-2.4312,-2.5008,-2.5507,-2.5507,-2.5507,-2.5507,-2.5507,-2.5507,-2.5507,-2.5507,-2.5507,-2.5507,-2.5507,-2.5507,-2.5507,-2.5507,-2.5507,-2.5507,-2.5507,-2.5507,-2.5507,-2.5507,-2.5507,-2.5507,-2.5507,-2.5507,-2.5507,-2.5507,-2.5507,-2.5507,-2.5507,-2.5507,-2.5507,-2.5507,-2.5507,-2.5507,-2.5507,-2.5507,-2.5507,-2.5507,-2.5507,-2.5507,-2.5507,-2.5507,-2.5507,-2.5507,-2.5507,-2.5507,-2.5507,-2.5412,-2.5372,-2.5372,-2.5317,-2.5293,-2.5293,-2.5293,-2.5364,-2.5707,-2.5676,0.0,0.0,-2.5675,0.0,-2.5684,0.0,0.0,0.0,0.0,0.0,0.0,0.0,-2.5707,-2.5707,-2.5707,-2.5708,0.0,-2.5698,0.0,0.0,0.0,0.0,0.0,0.0,-2.5269,-2.505,0.0,0.0,0.0,0.0,-2.4515,-2.45,-2.45,-2.45,-2.45,-2.3341,-2.2516,-2.1996,-2.0882,-2.011,-1.9609,-1.9609,-1.9653,-1.977,-1.9817,-1.9941,-2.0127,-2.0196,-2.0276,-2.0415,-2.1004,-2.1743,-2.2613,-2.377,-2.4757,-2.5507,-2.5507,-2.5507,-2.5507,-2.5507,-2.5507,-2.5507,-2.5507,-2.5507,-2.5507,-2.5507,-2.5507,-2.5507,-2.5507,-2.5507,-2.5507,-2.5507,-2.5507,-2.5507,-2.5507,-2.5507,-2.5507,-2.5507,-2.5507,-2.5507,-2.5507,-2.5484,-2.546,-2.5507,-2.5507,-2.5507,-2.5507,-2.5484,-2.546,-2.546,-2.546,-2.546,-2.5507,-2.5507,-2.5472,-2.5395,-2.5427,-2.54,-2.536,-2.5395,-2.5427,-2.5382,-2.5326,-2.5283,-2.5255,-2.5219,-2.5192,-2.5192,-2.5192,-2.5269]},{"header":{"parameterUnit":"m.s-1","parameterCategory":1,"la1":30.6,"la2":29.2853,"lo1":-89.7004,"lo2":-87.6739,"dy":0.0162,"dx":0.0183,"nx":112,"ny":82,"refTime":"2024-06-30T18:00:00:Z","depth":0,"parameterNumber":3,"parameterNumberName":"V-component_of_WINDS"},"data":[0.0,0.0,0.0,0.0,0.0,0.0,0.0,0.0,0.0,0.0,0.0,0.0,0.0,0.0,0.0,0.0,0.0,0.0,0.0,0.0,0.0,0.0,0.0,0.0,0.0,0.0,0.0,0.0,0.0,0.0,0.0,0.0,0.0,0.0,0.0,0.0,0.0,0.0,0.0,0.0,0.0,0.0,0.0,0.0,0.0,0.0,0.0,0.0,0.0,0.0,0.0,0.0,0.0,0.0,0.0,0.0,0.0,0.0,0.0,0.0,0.0,0.0,0.0,0.0,0.0,0.0,0.0,0.0,0.0,0.0,0.0,0.0,0.0,0.0,0.0,0.0,0.0,0.0,0.0,0.0,0.0,0.0,0.0,0.0,0.0,0.0,0.0,0.0,0.0,0.0,-0.8942,-0.94,-0.9535,-0.9579,-0.9579,-1.0739,-1.1293,-1.1039,0.0,0.0,0.0,0.0,0.0,0.0,0.0,0.0,0.0,0.0,0.0,0.0,0.0,0.0,0.0,0.0,0.0,0.0,0.0,0.0,0.0,0.0,0.0,0.0,0.0,0.0,0.0,0.0,0.0,0.0,0.0,0.0,0.0,0.0,0.0,0.0,0.0,0.0,0.0,0.0,0.0,0.0,0.0,0.0,0.0,0.0,0.0,0.0,0.0,0.0,0.0,0.0,0.0,0.0,0.0,0.0,0.0,0.0,0.0,0.0,0.0,0.0,0.0,0.0,0.0,0.0,0.0,0.0,0.0,0.0,0.0,0.0,0.0,0.0,0.0,0.0,0.0,0.0,0.0,0.0,0.0,0.0,0.0,0.0,0.0,0.0,0.0,0.0,0.0,0.0,0.0,0.0,0.0,0.0,0.0,0.0,0.0,0.0,0.0,0.0,0.0,0.0,0.0,0.0,-0.8857,-0.9514,-0.9612,-0.9579,-0.9579,-1.137,-1.2047,-1.1039,0.0,0.0,0.0,0.0,0.0,0.0,0.0,0.0,0.0,0.0,0.0,0.0,0.0,0.0,0.0,0.0,0.0,0.0,0.0,0.0,0.0,0.0,0.0,0.0,0.0,0.0,0.0,0.0,0.0,0.0,0.0,0.0,0.0,0.0,0.0,0.0,0.0,0.0,0.0,0.0,0.0,0.0,0.0,0.0,0.0,0.0,0.0,0.0,0.0,0.0,0.0,0.0,0.0,0.0,0.0,0.0,0.0,0.0,0.0,0.0,0.0,0.0,0.0,0.0,0.0,0.0,0.0,0.0,0.0,0.0,0.0,0.0,0.0,0.0,0.0,0.0,0.0,0.0,0.0,0.0,0.0,0.0,0.0,0.0,0.0,0.0,0.0,0.0,0.0,0.0,0.0,0.0,0.0,0.0,0.0,0.0,0.0,0.0,0.0,0.0,0.0,0.0,0.0,-0.8751,-0.9051,-0.9571,-1.0113,-1.0449,-1.0449,-1.2224,-1.2876,-1.1888,-1.2214,0.0,0.0,0.0,0.0,0.0,0.0,0.0,0.0,0.0,0.0,0.0,0.0,0.0,0.0,0.0,0.0,0.0,0.0,0.0,0.0,0.0,0.0,0.0,0.0,0.0,0.0,0.0,0.0,0.0,0.0,0.0,0.0,0.0,0.0,0.0,0.0,0.0,0.0,0.0,0.0,0.0,0.0,0.0,0.0,0.0,0.0,0.0,0.0,0.0,0.0,0.0,0.0,0.0,0.0,0.0,0.0,0.0,0.0,0.0,0.0,0.0,0.0,0.0,0.0,0.0,0.0,0.0,0.0,0.0,0.0,0.0,0.0,0.0,0.0,0.0,0.0,0.0,0.0,0.0,0.0,0.0,0.0,0.0,0.0,0.0,0.0,0.0,0.0,0.0,0.0,0.0,0.0,0.0,0.0,0.0,0.0,0.0,0.0,0.0,0.0,0.0,0.0,-0.912,-0.9419,-0.9936,-1.069,-1.1317,-1.1512,-1.2878,-1.3375,-1.2558,-1.26,0.0,0.0,0.0,0.0,0.0,0.0,0.0,0.0,0.0,0.0,0.0,0.0,0.0,0.0,0.0,0.0,0.0,0.0,0.0,0.0,0.0,0.0,0.0,0.0,0.0,0.0,0.0,0.0,0.0,0.0,0.0,0.0,0.0,0.0,0.0,0.0,0.0,0.0,0.0,0.0,0.0,0.0,0.0,0.0,0.0,0.0,0.0,0.0,0.0,0.0,0.0,0.0,0.0,0.0,0.0,0.0,0.0,0.0,0.0,0.0,0.0,0.0,0.0,0.0,0.0,0.0,0.0,0.0,0.0,0.0,0.0,0.0,0.0,0.0,0.0,0.0,0.0,0.0,0.0,0.0,0.0,0.0,0.0,0.0,0.0,0.0,0.0,0.0,0.0,0.0,0.0,0.0,0.0,0.0,0.0,0.0,0.0,0.0,0.0,0.0,0.0,0.0,-0.9181,-0.9936,-1.0979,-1.117,-1.156,-1.2533,-1.31,-1.3177,-1.2552,-1.242,0.0,0.0,0.0,0.0,0.0,0.0,0.0,0.0,0.0,0.0,0.0,0.0,0.0,0.0,0.0,0.0,0.0,0.0,0.0,0.0,0.0,0.0,0.0,0.0,0.0,0.0,0.0,0.0,0.0,0.0,0.0,0.0,0.0,0.0,0.0,0.0,0.0,0.0,0.0,0.0,0.0,0.0,0.0,0.0,0.0,0.0,0.0,0.0,0.0,0.0,0.0,0.0,0.0,0.0,0.0,0.0,0.0,0.0,0.0,0.0,0.0,0.0,0.0,0.0,0.0,0.0,0.0,0.0,0.0,0.0,0.0,0.0,0.0,0.0,0.0,0.0,0.0,0.0,0.0,0.0,0.0,0.0,0.0,0.0,0.0,0.0,0.0,0.0,0.0,0.0,0.0,0.0,0.0,0.0,0.0,0.0,0.0,0.0,0.0,0.0,0.0,0.0,-0.9481,-1.028,0.0,-1.2067,-1.2914,-1.3136,-1.3724,-1.3809,-1.3204,0.0,0.0,0.0,0.0,0.0,0.0,0.0,0.0,0.0,0.0,0.0,0.0,0.0,0.0,0.0,0.0,0.0,0.0,0.0,0.0,0.0,0.0,0.0,0.0,0.0,0.0,0.0,0.0,0.0,0.0,0.0,0.0,0.0,0.0,0.0,0.0,0.0,0.0,0.0,0.0,0.0,0.0,0.0,0.0,0.0,0.0,0.0,0.0,0.0,0.0,0.0,0.0,0.0,0.0,0.0,0.0,0.0,0.0,0.0,0.0,0.0,0.0,0.0,0.0,0.0,0.0,0.0,0.0,0.0,0.0,0.0,0.0,0.0,0.0,0.0,0.0,0.0,0.0,0.0,0.0,0.0,0.0,0.0,0.0,0.0,0.0,0.0,0.0,0.0,0.0,0.0,0.0,0.0,0.0,0.0,0.0,0.0,0.0,0.0,0.0,0.0,0.0,-0.8469,-0.9616,-1.0594,0.0,-1.2672,-1.3716,-1.3909,-1.4117,-1.3986,-1.3493,0.0,0.0,0.0,0.0,0.0,0.0,0.0,0.0,0.0,0.0,0.0,0.0,0.0,0.0,0.0,0.0,0.0,0.0,0.0,0.0,0.0,0.0,0.0,0.0,0.0,0.0,0.0,0.0,0.0,0.0,0.0,0.0,0.0,0.0,0.0,0.0,0.0,0.0,0.0,0.0,0.0,0.0,0.0,0.0,0.0,0.0,0.0,0.0,0.0,0.0,0.0,0.0,0.0,0.0,0.0,0.0,0.0,0.0,0.0,0.0,0.0,0.0,0.0,0.0,0.0,0.0,0.0,0.0,0.0,0.0,0.0,0.0,0.0,0.0,0.0,0.0,0.0,0.0,0.0,0.0,0.0,0.0,0.0,0.0,0.0,0.0,0.0,0.0,0.0,0.0,0.0,0.0,0.0,0.0,0.0,0.0,0.0,0.0,0.0,0.0,0.0,0.0,-0.8306,-0.9598,-1.0879,-1.1919,-1.2831,-1.3845,-1.4905,-1.4148,-1.3473,0.0,0.0,0.0,0.0,0.0,0.0,0.0,0.0,0.0,0.0,0.0,0.0,0.0,0.0,0.0,0.0,0.0,0.0,0.0,0.0,0.0,0.0,0.0,0.0,0.0,0.0,0.0,0.0,0.0,0.0,0.0,0.0,0.0,0.0,0.0,0.0,0.0,0.0,0.0,0.0,0.0,0.0,0.0,0.0,0.0,0.0,0.0,0.0,0.0,0.0,0.0,0.0,0.0,0.0,0.0,0.0,0.0,0.0,0.0,0.0,0.0,0.0,0.0,0.0,0.0,0.0,0.0,0.0,0.0,0.0,0.0,0.0,0.0,0.0,0.0,0.0,0.0,0.0,0.0,0.0,0.0,0.0,0.0,0.0,0.0,0.0,0.0,0.0,0.0,0.0,0.0,0.0,0.0,0.0,0.0,0.0,0.0,0.0,0.0,0.0,0.0,0.0,0.0,-0.8968,-1.0429,-1.1734,-1.2616,-1.361,-1.425,-1.4362,-1.3915,-1.3387,-1.2951,0.0,0.0,0.0,0.0,0.0,0.0,0.0,0.0,0.0,0.0,0.0,0.0,0.0,0.0,0.0,0.0,0.0,0.0,0.0,0.0,0.0,0.0,0.0,0.0,0.0,0.0,0.0,0.0,0.0,0.0,0.0,0.0,0.0,0.0,0.0,0.0,0.0,0.0,0.0,0.0,0.0,0.0,0.0,0.0,0.0,0.0,0.0,0.0,0.0,0.0,0.0,0.0,0.0,0.0,0.0,0.0,0.0,0.0,0.0,0.0,0.0,0.0,0.0,0.0,0.0,0.0,0.0,0.0,0.0,0.0,0.0,0.0,0.0,0.0,0.0,0.0,0.0,0.0,0.0,0.0,0.0,0.0,0.0,0.0,0.0,0.0,0.0,0.0,0.0,0.0,0.0,0.0,0.0,0.0,0.0,0.0,0.0,0.0,0.0,0.0,0.0,0.0,-0.9562,-1.0837,-1.1931,-1.2804,-1.3769,-1.4229,-1.3935,-1.3641,-1.316,-1.2482,0.0,0.0,0.0,0.0,0.0,0.0,0.0,0.0,0.0,0.0,0.0,0.0,0.0,0.0,0.0,0.0,0.0,0.0,0.0,0.0,0.0,0.0,0.0,0.0,0.0,0.0,0.0,0.0,0.0,0.0,0.0,0.0,0.0,0.0,0.0,0.0,0.0,0.0,0.0,0.0,0.0,0.0,0.0,0.0,0.0,0.0,0.0,0.0,0.0,0.0,0.0,0.0,0.0,0.0,0.0,0.0,0.0,0.0,0.0,0.0,0.0,0.0,0.0,0.0,0.0,0.0,0.0,0.0,0.0,0.0,0.0,0.0,0.0,0.0,0.0,0.0,0.0,0.0,0.0,0.0,0.0,0.0,0.0,0.0,0.0,0.0,0.0,0.0,0.0,0.0,0.0,0.0,0.0,0.0,0.0,0.0,0.0,0.0,0.0,0.0,0.0,0.0,-1.008,-1.0873,-1.161,-1.2662,-1.3503,-1.3895,-1.3586,-1.334,-1.2806,-1.2,0.0,0.0,0.0,0.0,0.0,0.0,0.0,0.0,0.0,0.0,0.0,0.0,0.0,0.0,0.0,0.0,0.0,0.0,0.0,0.0,0.0,0.0,0.0,0.0,0.0,0.0,0.0,0.0,0.0,0.0,0.0,0.0,0.0,0.0,0.0,0.0,0.0,0.0,0.0,0.0,0.0,0.0,0.0,0.0,0.0,0.0,0.0,0.0,0.0,0.0,0.0,0.0,0.0,0.0,0.0,0.0,0.0,0.0,0.0,0.0,-0.5616,0.0,0.0,0.0,0.0,0.0,0.0,0.0,0.0,0.0,0.0,0.0,0.0,0.0,0.0,0.0,0.0,0.0,0.0,0.0,0.0,0.0,0.0,0.0,0.0,0.0,0.0,0.0,0.0,0.0,0.0,0.0,0.0,0.0,0.0,0.0,0.0,0.0,0.0,0.0,0.0,0.0,-1.081,-1.0869,-1.1413,-1.3207,-1.3405,-1.3373,-1.3307,-1.3019,-1.2703,-1.2238,-1.1831,0.0,0.0,0.0,0.0,0.0,0.0,0.0,0.0,0.0,0.0,0.0,0.0,0.0,0.0,0.0,0.0,0.0,0.0,0.0,0.0,0.0,0.0,0.0,0.0,0.0,0.0,0.0,0.0,0.0,0.0,0.0,0.0,0.0,0.0,0.0,0.0,0.0,0.0,0.0,0.0,0.0,0.0,0.0,0.0,0.0,0.0,0.0,0.0,0.0,0.0,0.0,0.0,0.0,0.0,0.0,0.0,0.0,0.0,0.0,0.0,-0.6086,0.0,0.0,0.0,0.0,0.0,0.0,0.0,0.0,0.0,0.0,0.0,0.0,0.0,0.0,0.0,0.0,0.0,0.0,0.0,0.0,0.0,0.0,0.0,0.0,0.0,0.0,0.0,0.0,0.0,0.0,0.0,0.0,0.0,0.0,0.0,0.0,0.0,0.0,0.0,0.0,-1.1302,-1.1022,-1.1307,-1.3212,-1.326,-1.3153,-1.3038,-1.2878,-1.2596,-1.2124,-1.1647,0.0,0.0,0.0,0.0,0.0,0.0,0.0,0.0,0.0,0.0,0.0,0.0,0.0,0.0,0.0,0.0,0.0,0.0,0.0,0.0,0.0,0.0,0.0,0.0,0.0,0.0,0.0,0.0,0.0,0.0,0.0,0.0,0.0,0.0,0.0,0.0,0.0,0.0,0.0,0.0,0.0,0.0,0.0,0.0,0.0,0.0,0.0,0.0,0.0,0.0,0.0,0.0,0.0,0.0,-0.2744,-0.279,-0.3657,-0.4674,-0.5722,-0.5581,-0.561,-0.5818,0.0,0.0,0.0,0.0,0.0,0.0,0.0,0.0,0.0,0.0,0.0,0.0,0.0,0.0,0.0,0.0,0.0,0.0,0.0,0.0,0.0,0.0,0.0,0.0,0.0,-0.8178,-0.8138,0.0,0.0,0.0,0.0,0.0,0.0,0.0,0.0,0.0,0.0,0.0,0.0,-1.1608,-1.1208,-1.1306,-1.2962,-1.3086,-1.2946,-1.273,-1.2703,-1.2496,-1.2013,-1.1477,-1.0967,0.0,0.0,0.0,0.0,0.0,0.0,0.0,0.0,0.0,0.0,0.0,0.0,0.0,0.0,0.0,0.0,0.0,0.0,0.0,0.0,0.0,0.0,0.0,0.0,0.0,0.0,0.0,0.0,0.0,0.0,0.0,0.0,0.0768,-0.0108,0.0,0.0,0.0,0.0,0.0,0.0,0.0,0.0,0.0,0.0,0.0,0.0,0.0,0.0,-0.1508,-0.1542,-0.1608,-0.1609,-0.1739,-0.1805,-0.1803,-0.275,-0.3701,-0.4643,-0.5353,0.0,-0.6879,-0.687,0.0,0.0,0.0,0.0,0.0,0.0,0.0,0.0,0.0,0.0,0.0,0.0,0.0,0.0,0.0,0.0,0.0,0.0,0.0,0.0,0.0,0.0,-0.8268,-0.8494,-0.8268,-0.8117,0.0,-0.7951,-0.7447,-0.7447,0.0,0.0,0.0,0.0,0.0,0.0,0.0,0.0,-1.1724,-1.1378,-1.1494,-1.2702,-1.2579,-1.2405,-1.2365,-1.2365,-1.2325,-1.2251,-1.1937,-1.1708,-1.1505,-1.1148,0.0,0.0,0.0,0.0,0.0,0.0,0.0,0.0,0.0,0.0,0.0,0.0,0.0,0.0,0.0,0.0,0.0,0.0,0.0,0.0,0.0,0.0,0.0,0.0,0.0,0.0,0.0,0.0,0.0,0.1415,0.0734,0.0148,-0.0419,-0.0842,0.0,0.0,0.0,0.0,0.0,0.0,0.0,0.0,0.0,-0.1478,-0.1484,-0.1468,-0.1577,-0.159,-0.1606,-0.1673,-0.1619,-0.1608,-0.159,-0.2003,-0.3031,-0.4557,-0.4897,-0.5928,-0.7251,-0.7024,-0.6851,-0.6712,0.0,0.0,0.0,0.0,0.0,-0.7179,-0.7509,0.0,0.0,0.0,0.0,0.0,0.0,0.0,0.0,0.0,0.0,0.0,0.0,0.0,0.0,-0.8388,-0.8288,-0.8239,-0.8555,-0.8154,-0.778,0.0,-0.759,-0.7492,-0.7665,0.0,0.0,0.0,0.0,-1.0835,-1.1779,-1.1425,-1.1453,-1.241,-1.2378,-1.2305,-1.2305,-1.2305,-1.2231,-1.2064,-1.1784,-1.1524,-1.133,-1.1288,-1.1017,0.0,0.0,0.0,0.0,0.0,0.0,0.0,0.0,0.0,0.0,0.0,0.0,0.0,0.0,0.0,0.0,0.0,0.0,0.0,0.0,0.0,0.0,0.0,0.0,0.0,0.0,0.0,0.0,0.1323,0.0619,0.0267,-0.0478,-0.1013,0.0,0.0,0.0,0.0,0.0,0.0,-0.1409,-0.1413,-0.148,-0.1525,-0.1549,-0.1586,-0.1639,-0.1639,-0.1651,-0.1725,-0.1643,-0.1617,-0.1644,-0.1874,-0.2916,-0.4594,-0.4832,-0.5841,-0.7398,-0.7132,-0.6997,-0.6862,-0.6678,-0.6607,0.0,-0.6778,-0.7016,-0.7314,-0.7607,-0.781,-0.7967,-0.7707,0.0,-0.7427,-0.7151,0.0,0.0,0.0,0.0,-0.7592,-0.7592,0.0,-0.7877,-0.8146,-0.8187,-0.8203,-0.8385,-0.8211,-0.8012,0.0,-0.7902,-0.7797,-0.7854,0.0,0.0,0.0,0.0,-1.1222,-1.1835,-1.1608,-1.1632,-1.2224,-1.2305,-1.2305,-1.2305,-1.2305,-1.2178,-1.1926,-1.1663,-1.141,-1.1116,-1.1434,-1.1381,-1.0842,0.0,0.0,0.0,0.0,0.0,0.0,0.0,0.0,0.0,0.0,0.0,0.0,0.0,0.0,0.0,0.0,0.0,0.0,0.0,0.0,0.0,0.0,0.0,0.0,0.0,0.0,0.0,0.0,0.0,-0.0197,-0.0734,0.0,0.0,0.0,0.0,-0.1381,-0.1403,-0.1427,-0.1469,-0.1474,-0.1562,-0.1702,-0.1706,-0.1669,-0.1699,-0.1699,-0.1701,-0.1701,-0.1673,-0.1711,-0.1707,-0.254,-0.3521,-0.4633,-0.5401,-0.6365,-0.7415,-0.7402,-0.7183,-0.6883,-0.6869,-0.694,-0.6971,-0.6971,-0.7263,-0.7679,-0.769,-0.781,-0.8012,-0.7992,-0.776,-0.7447,-0.7265,-0.7183,0.0,0.0,-0.7468,-0.7784,-0.7784,-0.7792,-0.7845,-0.7983,-0.7902,-0.7873,-0.8004,-0.8024,-0.8012,0.0,-0.7571,-0.7472,-0.8153,0.0,-0.9421,-1.0077,-1.1131,-1.1835,-1.1906,-1.2088,-1.2261,-1.2305,-1.2305,-1.2305,-1.2305,-1.2305,-1.2178,-1.1926,-1.1893,-1.1717,-1.1382,-1.1751,-1.1801,-1.1472,-1.1231,0.0,0.0,0.0,0.0,0.0,0.0,0.0,0.0,0.0,0.0,0.0,0.0,0.0,0.0,0.0,0.0,0.0,0.0,0.0,0.0,0.0,0.0,0.0,0.0,0.0,0.0,0.0,0.0,0.0419,-0.049,0.0,-0.1233,-0.1386,-0.1461,-0.1445,-0.1502,-0.1538,-0.161,-0.1613,-0.1637,-0.1688,-0.1689,-0.1703,-0.1788,-0.1714,-0.1714,-0.1787,-0.1738,-0.1652,-0.1633,-0.1961,-0.3004,-0.461,-0.489,-0.5946,-0.7415,-0.7415,-0.7251,-0.7021,-0.7021,-0.7031,-0.708,-0.7223,-0.7573,-0.7973,-0.7973,-0.8162,-0.8312,-0.8004,-0.7722,-0.7472,-0.7411,-0.7391,-0.7391,-0.7391,-0.7484,-0.762,-0.762,-0.762,-0.7665,-0.7849,-0.7845,-0.7845,-0.7975,-0.7927,-0.789,-0.789,-0.7699,-0.7723,-0.8222,-0.906,-0.9854,-1.042,-1.1454,-1.2144,-1.2144,-1.2238,-1.2305,-1.2305,-1.2305,-1.2305,-1.2305,-1.2131,-1.1897,-1.1603,-1.141,-1.1209,-1.0914,-1.1412,-1.1535,-1.1259,-1.1517,-1.1106,0.0,0.0,0.0,0.0,0.0,0.0,0.0,0.0,0.0,0.0,0.0,0.0,0.0,0.0,0.0,0.0,0.0,0.0,0.0,0.0,0.0,0.0,0.0,0.0,0.0,0.0,0.1605,0.0867,-0.0183,-0.1028,-0.1409,-0.1478,-0.1513,-0.1553,-0.1575,-0.1609,-0.1712,-0.1733,-0.1754,-0.1719,-0.1729,-0.1744,-0.182,-0.1745,-0.1745,-0.1819,-0.1758,-0.1666,-0.1645,-0.1626,-0.2538,-0.4121,-0.4409,-0.5439,-0.6971,-0.7196,-0.7234,-0.7095,-0.7095,-0.7129,-0.7231,-0.7333,-0.7724,-0.8169,-0.8242,-0.8285,-0.8277,-0.7918,-0.7673,-0.7484,-0.7484,-0.7484,-0.7484,-0.7484,-0.7484,-0.7484,-0.7484,-0.7484,-0.7516,-0.7677,-0.7706,-0.7739,-0.7809,-0.7748,-0.7706,-0.7706,-0.7706,-0.7784,-0.7986,-0.883,-0.9697,-1.0358,-1.1255,-1.2003,-1.2268,-1.2305,-1.2305,-1.2305,-1.2305,-1.2305,-1.2305,-1.2037,-1.1744,-1.1409,-1.1149,-1.0909,-1.0747,-1.1214,-1.1423,-1.1252,-1.1416,-1.1121,-1.0265,0.0,0.0,0.0,0.0,0.0,0.0,0.0,0.0,0.0,0.0,0.0,0.0,0.0,0.0,0.0,0.0,0.0,0.0,0.0,0.0,0.0,0.0,0.0,0.4063,0.2716,0.1638,0.1004,0.014,-0.0677,-0.1442,-0.151,-0.1552,-0.1612,-0.1618,-0.1632,-0.1714,-0.1772,-0.1804,-0.1806,-0.178,-0.1795,-0.1795,-0.1795,-0.1795,-0.1794,-0.1733,-0.1704,-0.1702,-0.1643,-0.217,-0.3267,-0.406,-0.5032,-0.6051,-0.6809,-0.7095,-0.7095,-0.7095,-0.7231,-0.7412,-0.7419,-0.7791,-0.8339,-0.8504,-0.8253,-0.7808,-0.7796,-0.7669,-0.7484,-0.7484,-0.7484,-0.7484,-0.7484,-0.7484,-0.7484,-0.7484,-0.7484,-0.7484,-0.7484,-0.7484,-0.748,-0.7476,-0.7476,-0.7476,-0.7476,-0.7472,-0.7472,-0.748,-0.8169,-0.896,-0.9734,-1.0533,0.0,-1.2124,-1.2218,-1.2224,-1.2254,-1.2261,-1.2268,-1.2305,-1.2024,-1.173,-1.1409,-1.1142,-1.0982,-1.0982,-1.1304,-1.15,-1.15,-1.0905,-1.0594,-1.0587,0.0,0.0,0.0,0.0,0.0,0.0,0.0,0.0,0.0,0.0,0.0,0.0,0.0,0.0,0.0,0.0,0.0,0.0,0.0,0.0,0.0,0.5165,0.5296,0.5211,0.3828,0.2586,0.1992,0.0568,-0.0722,-0.1498,-0.1554,-0.1575,-0.1614,-0.1637,-0.1662,-0.1691,-0.1783,-0.1815,-0.1782,-0.1791,-0.1795,-0.1795,-0.1795,-0.1795,-0.1794,-0.1733,-0.1704,-0.1702,-0.1643,-0.217,-0.3267,-0.406,-0.5032,-0.6051,-0.6809,-0.7095,-0.7095,-0.7095,-0.7122,-0.7231,-0.7455,-0.7887,-0.832,-0.8356,-0.8182,-0.7902,-0.7642,-0.7563,-0.7484,-0.7484,-0.7484,-0.7484,-0.7484,-0.7484,-0.7484,-0.7484,-0.7484,-0.7484,-0.7484,-0.7484,-0.7447,-0.7326,-0.7297,-0.7297,-0.7297,-0.7188,-0.7216,-0.7477,-0.8169,-0.8722,-0.882,0.0,0.0,-1.0219,-1.0419,-1.0724,-1.116,-1.1322,-1.1669,-1.2268,-1.1837,-1.1516,-1.1395,-1.0955,-1.0739,-1.0866,-1.109,-1.1312,-1.1565,-1.1043,-1.0704,0.0,0.0,0.0,0.0,0.0,0.0,0.0,0.0,0.0,0.0,0.0,0.0,0.0,0.0,0.0,0.0,0.0,0.0,0.0,0.0,0.0,0.0,0.5439,0.5659,0.5852,0.4686,0.3415,0.2438,0.0987,-0.0332,-0.1453,-0.1564,-0.1584,-0.1614,-0.1668,-0.1754,-0.1704,-0.1745,-0.1777,-0.1794,-0.1795,-0.1795,-0.1795,-0.1795,-0.1795,-0.1794,-0.1733,-0.1704,-0.1702,-0.1643,-0.196,0.0,-0.3854,-0.4727,-0.5374,-0.6604,-0.7095,0.0,0.0,0.0,0.0,0.0,-0.7977,-0.814,-0.8337,-0.8187,-0.7874,-0.7706,-0.7584,-0.7484,-0.7484,-0.7484,-0.7484,-0.7484,-0.7484,-0.7484,-0.7484,-0.7484,-0.7464,-0.7395,-0.7374,-0.7326,-0.7151,-0.711,-0.711,-0.711,0.0,0.0,-0.7261,-0.767,-0.807,-0.8274,-0.8833,-0.9254,0.0,-0.9575,-0.9944,-1.055,-1.0754,-1.1105,-1.1866,-1.151,0.0,0.0,0.0,-1.0688,-1.0933,-1.0965,0.0,0.0,0.0,0.0,0.0,0.0,0.0,0.0,-1.1143,-1.1371,0.0,0.0,0.0,0.0,0.0,0.0,0.0,0.0,0.0,0.0,0.0,0.0,0.0,0.0,0.0,0.0,0.5702,0.5931,0.602,0.5187,0.4063,0.2587,0.1474,0.0233,-0.1237,-0.1505,-0.1585,-0.162,-0.1754,-0.1792,-0.1711,0.0,0.0,0.0,0.0,-0.1795,-0.1795,-0.1795,-0.1793,-0.1789,-0.1728,-0.1697,-0.1692,-0.1633,-0.1592,-0.1711,-0.3442,-0.4266,-0.4416,-0.6212,-0.7017,-0.7122,-0.7102,-0.7234,-0.7478,-0.8055,-0.8068,0.0,0.0,0.0,0.0,-0.7808,-0.7673,-0.7484,-0.7484,-0.7484,-0.7484,-0.7484,-0.7484,-0.7484,-0.7484,-0.7484,-0.7439,-0.7265,-0.7187,-0.7171,-0.7004,-0.6959,-0.6959,-0.6959,-0.6943,-0.6935,-0.6955,-0.6975,-0.7229,-0.7915,-0.8035,0.0,-0.9085,-0.9232,-0.9533,-1.0266,0.0,0.0,-1.1354,-1.1156,-1.0995,-1.0995,-1.0754,-1.0751,-1.1059,-1.0902,-1.1021,-1.1529,-1.1373,-1.1373,-1.156,-1.185,-1.2025,-1.2047,-1.1802,-1.1977,0.0,0.0,0.0,0.0,0.0,0.0,0.0,0.0,0.0,0.0,0.0,0.0,0.0,0.0,0.0,0.5615,0.5691,0.566,0.5492,0.495,0.4252,0.3282,0.173,0.0366,-0.0523,-0.1214,-0.1644,-0.1701,-0.1766,-0.1802,-0.1795,-0.1775,0.0,-0.1795,-0.1795,-0.1795,-0.1795,-0.1795,-0.1782,-0.1813,0.0,0.0,-0.1631,-0.1571,-0.154,-0.1581,-0.2719,-0.3613,-0.4372,-0.5497,-0.6496,-0.7316,-0.7142,-0.7234,-0.7451,-0.7852,-0.7994,-0.8065,-0.8269,-0.8178,-0.7943,-0.7845,-0.7673,-0.7484,-0.7484,-0.7484,0.0,-0.7484,-0.7484,-0.7484,-0.7484,-0.7484,-0.7439,-0.7265,-0.7187,-0.7139,-0.6814,-0.6771,-0.6767,-0.6745,-0.6623,-0.657,-0.6721,-0.6894,-0.7014,-0.7008,-0.7144,-0.7368,-0.7821,-0.8108,-0.8737,-0.9952,-1.0154,-1.0563,-1.132,-1.1156,-1.0995,-1.0995,-1.0843,-1.0776,-1.087,-1.0839,-1.0933,-1.1185,-1.1153,-1.1216,-1.1365,-1.1778,-1.2135,-1.239,-1.2365,-1.2401,0.0,0.0,0.0,0.0,0.0,0.0,0.0,0.0,0.0,0.0,0.0,0.5211,0.5232,0.0,0.5657,0.5677,0.5737,0.5748,0.5532,0.4939,0.4128,0.3187,0.2046,0.0889,-0.0289,-0.0788,-0.121,-0.1658,-0.177,-0.1804,-0.1804,-0.1778,-0.1795,-0.1795,-0.1795,-0.1795,-0.1795,-0.1795,-0.178,-0.1804,-0.1743,-0.1646,-0.1615,-0.1553,-0.1517,-0.1549,-0.2508,-0.3187,-0.3689,-0.5153,-0.6391,-0.7402,-0.72,-0.7234,-0.7444,-0.7604,-0.7819,-0.799,-0.8084,-0.8044,-0.7983,-0.7853,-0.7673,-0.7484,-0.7484,-0.7484,-0.7484,-0.7484,-0.7484,-0.7464,-0.7374,-0.7354,-0.7285,-0.7013,-0.6956,-0.6887,-0.6615,-0.655,-0.655,-0.6554,-0.6481,-0.6448,-0.6542,-0.6627,-0.6656,-0.657,-0.6631,-0.6886,-0.7419,-0.7339,-0.7856,-0.9566,-0.9507,-0.9783,-1.0923,-1.0894,-1.0807,-1.0807,-1.073,-1.0744,-1.0807,-1.0807,-1.0933,-1.1185,-1.1216,-1.1279,-1.1466,-1.1811,-1.2091,-1.2251,-1.258,-1.2855,0.0,0.0,0.0,0.0,0.0,0.0,0.0,0.4458,0.4673,0.4893,0.5243,0.5532,0.5561,0.5814,0.5945,0.5852,0.5893,0.5869,0.5665,0.4933,0.4074,0.3057,0.2386,0.1439,-0.0049,-0.03,-0.0763,-0.166,-0.1764,-0.1798,-0.1804,-0.1773,-0.1789,-0.1795,-0.1795,-0.1795,-0.1795,-0.1789,-0.1771,-0.1795,-0.1728,-0.1628,-0.1597,-0.1488,-0.1495,-0.1518,-0.2481,-0.2901,-0.3049,-0.5025,-0.6313,-0.7125,-0.7141,-0.7261,-0.7398,-0.7474,-0.7617,-0.7789,-0.7873,-0.7895,-0.7857,-0.7805,-0.7673,-0.7484,-0.7484,-0.7484,-0.7484,-0.7484,-0.746,-0.7403,-0.7223,-0.72,-0.709,-0.6788,-0.6684,-0.6643,-0.6461,-0.6387,-0.6387,-0.6387,-0.6387,-0.6387,-0.6387,-0.6387,-0.6387,-0.6387,-0.6387,-0.6679,-0.7396,-0.697,-0.7293,-0.9096,-0.8807,-0.8973,-1.0104,-1.0301,-1.0396,-1.0396,-1.0523,-1.0656,-1.0776,-1.0776,-1.0902,-1.1209,-1.1247,-1.1341,-1.1529,-1.1843,-1.2003,-1.201,-1.2602,-1.3089,0.3613,0.3687,0.3819,0.402,0.4167,0.4374,0.0,0.5015,0.5143,0.5322,0.5681,0.5977,0.5882,0.6064,0.6273,0.6211,0.6127,0.5955,0.5569,0.4984,0.4399,0.385,0.2742,0.1631,0.0685,0.0,-0.0763,-0.166,-0.1692,-0.1721,-0.1803,-0.1807,-0.1822,-0.1794,-0.1795,-0.1795,-0.1795,-0.1823,-0.1794,-0.1708,-0.1622,-0.1566,-0.1486,-0.1427,-0.1399,-0.1485,-0.2473,-0.2907,-0.3049,-0.5066,-0.5982,-0.6165,-0.7028,-0.7402,-0.7398,-0.7474,-0.7461,-0.7418,-0.7788,-0.7692,-0.7493,-0.7724,-0.7673,-0.7484,-0.7484,-0.7484,-0.7484,-0.7484,-0.7374,-0.7211,-0.7191,-0.7106,-0.6967,-0.6759,-0.6684,-0.6643,-0.6461,-0.6387,-0.6387,-0.6387,-0.6387,-0.6387,-0.6387,-0.6387,-0.6387,-0.6387,-0.6387,-0.6679,-0.7396,-0.7423,-0.7684,-0.8522,-0.8554,-0.8554,-0.8716,-0.9294,-0.962,-0.962,-1.0231,-1.0624,-1.0624,-1.0624,-1.0713,-1.0839,-1.1028,-1.1185,-1.1334,-1.1786,-1.2003,-1.201,-1.2375,-1.2753,0.377,0.3822,0.3917,0.4162,0.4311,0.4488,0.4795,0.5004,0.5162,0.5423,0.5692,0.5907,0.5994,0.6092,0.6162,0.0,0.6119,0.6031,0.5774,0.5081,0.4612,0.4594,0.3693,0.2476,0.0881,0.0747,0.0102,-0.1556,-0.1726,-0.1692,-0.1722,-0.1723,-0.1729,-0.1742,-0.1742,-0.1742,-0.1742,-0.173,-0.1709,-0.1679,-0.1656,-0.1565,-0.1551,-0.1489,-0.1462,-0.1462,-0.1918,-0.243,-0.3092,-0.3829,-0.4837,-0.5928,-0.6271,-0.6741,-0.7231,-0.7255,-0.7269,-0.7339,-0.7502,-0.7472,-0.741,-0.7591,-0.7584,-0.7484,-0.7484,-0.7484,-0.7484,-0.7484,-0.7358,-0.7163,-0.7094,-0.6971,-0.6792,-0.657,-0.653,-0.6513,-0.6403,-0.6387,-0.6387,-0.6387,-0.6387,-0.6387,-0.6387,-0.6387,-0.6387,-0.6387,-0.6387,-0.6679,-0.7396,-0.7134,-0.7134,-0.7847,-0.8264,-0.849,-0.849,-0.8748,-0.8903,-0.8903,-0.9198,-0.9556,-0.9939,-1.0072,-1.0326,-1.08,-1.0996,-1.1185,-1.1303,-1.1502,-1.1662,-1.1765,-1.2054,-1.2273,0.386,0.3903,0.4011,0.4287,0.4461,0.4671,0.5066,0.5115,0.5186,0.5647,0.5711,0.5829,0.6233,0.6211,0.623,0.6421,0.6306,0.614,0.6021,0.5204,0.4782,0.5129,0.4538,0.3359,0.1419,0.1444,0.076,-0.1184,-0.1546,-0.1662,-0.1691,-0.1692,-0.1696,-0.1704,-0.1704,-0.1704,-0.1704,-0.1697,-0.1682,-0.1714,-0.165,-0.162,-0.1618,-0.1508,-0.1485,-0.1492,-0.1476,-0.1931,-0.2676,-0.2847,-0.3751,-0.5106,-0.5528,-0.6118,-0.6735,-0.6963,-0.7101,-0.7204,-0.7212,-0.7212,-0.7243,-0.7308,-0.7369,-0.7407,-0.7407,-0.7446,-0.7484,-0.7484,-0.7358,-0.7183,-0.7037,-0.6861,-0.6647,-0.6465,-0.6387,-0.6387,-0.6387,-0.6387,-0.6387,-0.6387,-0.6387,-0.6387,-0.6387,-0.6387,-0.6387,-0.6387,-0.6387,-0.6581,-0.7134,-0.6745,-0.6613,-0.7134,-0.7614,-0.7907,-0.7907,-0.8102,-0.8296,-0.849,-0.8683,-0.9069,-0.9779,-0.9939,-1.0263,-1.08,-1.0933,-1.1122,-1.1303,-1.1303,-1.1404,-1.1599,-1.1794,-1.1904,0.3815,0.3931,0.4167,0.444,0.4645,0.4998,0.5881,0.5623,0.5419,0.6128,0.595,0.5913,0.6627,0.6494,0.6506,0.7179,0.6796,0.6385,0.6322,0.5394,0.4858,0.5325,0.4953,0.4127,0.2784,0.199,0.1058,-0.0354,-0.1163,-0.1632,-0.1714,-0.1716,-0.1676,-0.1703,-0.1704,-0.1704,-0.1704,-0.1677,-0.1715,-0.1714,-0.165,-0.162,-0.1618,-0.1508,-0.1497,-0.1474,-0.1416,-0.1453,-0.1616,-0.2533,-0.2914,-0.3183,-0.5008,-0.5719,-0.5838,-0.6637,-0.6889,-0.6905,-0.6996,-0.6926,-0.6813,-0.6882,-0.7061,-0.7223,-0.7223,-0.7334,-0.7484,-0.7484,-0.7358,-0.7183,-0.7037,-0.6861,-0.6647,-0.6465,-0.6387,-0.6387,-0.6387,-0.6387,-0.6387,-0.6387,-0.6387,-0.6387,-0.6387,-0.6387,-0.6387,-0.6387,-0.6387,-0.642,-0.6416,-0.642,-0.642,-0.6416,-0.6453,-0.6449,-0.6449,-0.7134,-0.7814,-0.8458,-0.9102,-0.9811,-1.053,-1.0561,-1.0649,-1.0807,-1.0807,-1.0958,-1.1303,-1.1303,-1.1404,-1.1591,-1.1606,-1.1606,0.395,0.4056,0.4175,0.4446,0.4566,0.4837,0.5692,0.541,0.5279,0.6491,0.634,0.6246,0.722,0.731,0.7234,0.7286,0.7125,0.6847,0.6371,0.57,0.5458,0.581,0.5471,0.4961,0.4462,0.3013,0.0,-0.0252,-0.1162,-0.1622,-0.1632,-0.1633,-0.1637,-0.1646,-0.1646,-0.1646,-0.1646,-0.1637,-0.1633,-0.1632,-0.1591,-0.1561,-0.154,-0.1499,-0.1486,-0.1493,-0.1408,-0.1396,-0.145,-0.1754,-0.2286,-0.2956,-0.3582,-0.4566,-0.5594,-0.5858,-0.6302,-0.6798,-0.6848,-0.6773,-0.6713,-0.6845,-0.6942,-0.6984,-0.6984,-0.7138,-0.7296,-0.7296,-0.7198,-0.7065,-0.7004,-0.6767,-0.6497,-0.6399,-0.6387,-0.6387,-0.6387,-0.6387,-0.6387,-0.6387,-0.6387,-0.6387,-0.6387,-0.6387,-0.6375,-0.6286,-0.6339,-0.6387,-0.6387,-0.6387,-0.6387,-0.6387,-0.6387,-0.6371,-0.6282,-0.7025,-0.7434,-0.7327,-0.8281,-0.9058,-0.9581,-0.9781,-1.0161,-1.08,-1.0807,-1.0958,-1.1303,-1.1303,-1.1404,-1.1591,-1.1591,-1.1591,0.4064,0.4151,0.423,0.4457,0.4536,0.4823,0.5792,0.5581,0.5538,0.6812,0.6666,0.6615,0.7643,0.7632,0.7588,0.7982,0.7586,0.7078,0.6791,0.6071,0.5756,0.6112,0.5754,0.5504,0.5491,0.3909,0.0,0.04,-0.0607,-0.1271,-0.1567,-0.1617,-0.1617,-0.1617,-0.1617,-0.1617,-0.1617,-0.1617,-0.1611,-0.16,-0.1581,-0.1555,-0.1477,-0.1495,-0.148,-0.1479,-0.1448,-0.1391,-0.1391,-0.1391,-0.1793,-0.2419,-0.2777,-0.3578,-0.4626,-0.519,-0.5733,-0.6194,-0.6549,-0.6651,-0.6595,-0.6655,-0.6753,-0.6791,-0.6791,-0.6945,-0.7088,-0.6992,-0.6968,-0.6945,-0.682,-0.6654,-0.6501,-0.6432,-0.6387,-0.6387,-0.6387,-0.6387,-0.6387,-0.6387,-0.6387,-0.6387,-0.6387,-0.6387,-0.6379,-0.6294,-0.629,-0.6298,-0.6237,-0.6229,-0.6229,-0.6229,-0.6229,-0.618,-0.6094,-0.6598,-0.6871,-0.6787,-0.7696,-0.8516,-0.9156,-0.9414,-0.9924,-1.0706,-1.0673,-1.0854,-1.1216,-1.1272,-1.1404,-1.1591,-1.1591,-1.1591,0.4054,0.4208,0.4325,0.4468,0.4583,0.4994,0.6111,0.6084,0.6073,0.7044,0.6986,0.6999,0.7928,0.7602,0.7654,0.9088,0.8049,0.7171,0.7408,0.6417,0.5789,0.6228,0.5971,0.577,0.5821,0.4644,0.0,0.1621,0.0,-0.0668,-0.1568,-0.1617,-0.1617,-0.1617,-0.1617,-0.1617,-0.1617,-0.1615,-0.1599,-0.1618,-0.1617,-0.1551,-0.1523,-0.1492,-0.1478,-0.1477,-0.1448,-0.1391,-0.1391,-0.1391,-0.1391,-0.148,-0.2464,-0.2828,-0.298,-0.4557,-0.5156,-0.5256,-0.6138,-0.6461,-0.6477,-0.6344,-0.6412,-0.6602,-0.6602,-0.6714,-0.6831,-0.6633,-0.673,-0.6789,-0.646,-0.6512,-0.6601,-0.6428,-0.6387,-0.6383,-0.6383,-0.6383,-0.6383,-0.6387,-0.6387,-0.6387,-0.6387,-0.6387,-0.6416,-0.6404,-0.6282,-0.6106,-0.5951,-0.5896,-0.5888,-0.5888,-0.5888,-0.5884,-0.5876,-0.591,-0.6207,-0.6834,-0.7467,-0.8229,-0.9157,-0.9459,-0.9887,-1.0501,-1.0394,-1.0577,-1.1069,-1.1188,-1.1382,-1.156,-1.156,-1.1591,0.4078,0.4208,0.4308,0.4336,0.4365,0.472,0.5956,0.5839,0.5888,0.7526,0.7444,0.7314,0.8183,0.8545,0.8576,0.8126,0.8088,0.7794,0.6816,0.6393,0.6244,0.6344,0.6246,0.6175,0.6158,0.5532,0.0,0.0,0.0852,-0.071,-0.1566,-0.1617,-0.1617,-0.1617,-0.1617,-0.1617,-0.1617,-0.1594,-0.1568,-0.1537,-0.1515,-0.15,-0.1491,-0.1461,-0.1446,-0.1446,-0.1394,-0.1391,-0.1391,-0.1391,-0.1391,-0.1436,-0.1704,-0.2146,-0.2706,-0.3151,-0.3637,-0.4261,-0.5087,-0.5797,-0.6347,-0.6313,-0.6338,-0.6374,-0.6374,-0.6525,-0.6643,-0.6442,-0.646,-0.6499,-0.6298,-0.6184,-0.6078,-0.6032,-0.602,-0.6053,-0.6214,-0.6247,-0.628,-0.6383,-0.6387,-0.6387,-0.6387,-0.6387,-0.6371,-0.6269,-0.6098,-0.6016,-0.6098,-0.6,-0.5888,-0.5888,-0.5888,-0.5831,-0.5693,-0.6278,-0.6558,-0.6388,-0.7354,-0.7936,-0.7959,-0.8253,-0.8764,-0.9458,-0.9453,-0.986,-1.0716,-1.0777,-1.0927,-1.1216,-1.1216,-1.1279,0.4183,0.4249,0.43,0.43,0.43,0.4603,0.5675,0.5819,0.6078,0.7418,0.758,0.7623,0.8186,0.8543,0.8638,0.8182,0.8121,0.7816,0.7041,0.6634,0.6387,0.6387,0.6429,0.6323,0.6124,0.5823,0.5021,0.0,0.1521,0.0051,-0.1011,-0.1415,-0.1617,-0.1617,-0.1604,-0.1591,-0.1577,-0.1573,-0.1549,-0.1506,-0.1489,-0.1474,-0.146,-0.1398,-0.1391,-0.1391,0.0,-0.1391,-0.1391,-0.1391,-0.1391,-0.1389,-0.1421,-0.1646,-0.2099,-0.2862,-0.343,-0.3988,-0.516,-0.5906,-0.63,-0.63,-0.63,-0.63,-0.63,-0.6374,-0.6416,-0.6218,-0.6211,-0.6236,-0.6079,-0.5947,-0.5921,-0.602,-0.602,-0.6086,-0.6251,-0.628,-0.6317,-0.6383,-0.6387,-0.6387,-0.6387,-0.6387,-0.6355,-0.6204,-0.6029,-0.5922,-0.5939,-0.5762,-0.5624,-0.5624,-0.5624,-0.5583,-0.5478,-0.5903,-0.61,-0.5822,-0.6684,-0.7206,-0.7146,-0.7433,-0.792,-0.8598,-0.8802,-0.9224,-0.9936,-1.0276,-1.0515,-1.0721,-1.0721,-1.0821,0.427,0.43,0.43,0.43,0.43,0.4496,0.5325,0.584,0.6344,0.6981,0.7466,0.7826,0.8001,0.8101,0.8244,0.8534,0.8057,0.7598,0.7454,0.6833,0.6387,0.6387,0.6478,0.639,0.5928,0.5826,0.5051,0.3353,0.2372,0.1178,-0.0303,-0.1061,-0.1514,-0.1611,-0.1581,-0.1551,-0.1521,-0.1547,-0.1531,-0.1475,-0.1475,-0.1461,-0.1391,-0.1391,-0.1391,-0.1391,0.0,0.0,-0.1391,-0.1391,-0.1391,-0.1387,-0.1401,-0.1373,-0.1469,-0.2945,-0.3554,-0.3871,-0.5434,-0.6025,-0.6141,-0.6261,-0.63,-0.63,-0.63,-0.63,-0.6269,-0.6074,-0.6032,-0.6022,-0.5828,-0.5809,-0.5888,-0.6083,-0.6145,-0.6214,-0.635,-0.6383,-0.6387,-0.6387,-0.6387,-0.6387,-0.6387,-0.6387,-0.6355,-0.6204,-0.6029,-0.5823,-0.5636,-0.5434,-0.5297,-0.5297,-0.5297,-0.5297,-0.5297,-0.5297,-0.5297,-0.5297,-0.5782,-0.6234,-0.661,-0.6858,-0.7301,-0.798,-0.8333,-0.8705,-0.9102,-0.9757,-1.01,-1.0142,-1.0142,-1.0253,0.4295,0.43,0.43,0.43,0.43,0.443,0.4906,0.5495,0.6071,0.6533,0.7118,0.7555,0.7593,0.8025,0.8129,0.7428,0.7603,0.7574,0.6726,0.6487,0.6387,0.6387,0.6403,0.6416,0.6316,0.5914,0.0,0.0,0.0,0.1719,-0.0303,-0.0556,-0.0903,-0.158,-0.155,-0.1519,-0.1489,-0.1494,-0.1478,-0.1398,-0.1398,-0.1395,-0.1391,-0.1391,-0.1391,-0.1391,0.0,0.0,-0.1391,-0.1391,-0.1391,-0.1387,-0.1401,-0.1373,-0.1344,-0.1641,-0.2162,-0.286,-0.3871,-0.4652,-0.5356,-0.6064,-0.63,-0.63,-0.63,-0.63,-0.6269,-0.6074,-0.5918,-0.5805,-0.5658,-0.564,-0.565,-0.5683,-0.5818,-0.602,-0.6181,-0.6317,-0.6387,-0.6387,-0.6387,-0.6387,-0.6387,-0.6387,-0.6355,-0.6204,-0.6029,-0.5823,-0.5636,-0.5434,-0.5297,-0.5297,-0.5297,-0.5297,-0.5297,-0.5297,-0.5297,-0.5297,-0.5407,-0.5717,-0.6261,-0.6337,-0.6841,-0.7901,-0.7994,-0.8402,-0.9172,-0.9312,-0.953,-0.9802,-0.9802,-0.988,0.43,0.43,0.43,0.43,0.43,0.4383,0.469,0.5128,0.565,0.6218,0.6731,0.7162,0.7456,0.7916,0.8033,0.7348,0.7435,0.7337,0.6718,0.6404,0.6279,0.6342,0.6401,0.6284,0.6037,0.5987,0.5563,0.4421,0.0,0.2778,0.0398,-0.0542,-0.1167,-0.1525,-0.1525,-0.1504,-0.1457,-0.1472,-0.1466,-0.1391,-0.1391,-0.1391,-0.1391,-0.1391,-0.1382,-0.1412,0.0,0.0,-0.1347,-0.1406,-0.1412,-0.1408,-0.1362,-0.1346,-0.1342,-0.178,-0.2179,-0.2627,-0.3482,-0.4338,-0.5082,-0.5473,-0.5944,-0.63,-0.63,-0.63,-0.6282,-0.6169,-0.5983,-0.5786,-0.5718,-0.5597,-0.5521,-0.5583,-0.5752,-0.5954,-0.6148,-0.6247,-0.6317,-0.6383,-0.6387,-0.6388,-0.6294,-0.6355,-0.6294,-0.5951,-0.5984,-0.5922,-0.5498,-0.5454,-0.5426,-0.5309,-0.5297,-0.5297,-0.5297,-0.5297,-0.5297,-0.5297,-0.5297,-0.5434,-0.5727,-0.6023,-0.6448,-0.7015,-0.7605,-0.8098,-0.8538,-0.8843,-0.9085,-0.9225,-0.9225,-0.9333,0.43,0.43,0.43,0.43,0.43,0.4342,0.4463,0.481,0.5245,0.5813,0.6347,0.6848,0.732,0.7757,0.7928,0.7621,0.736,0.7109,0.6882,0.6418,0.617,0.629,0.6382,0.6237,0.5834,0.6016,0.0,0.4366,0.0,0.0,0.1023,-0.0479,-0.1317,-0.1481,-0.1498,-0.1438,-0.1391,-0.1459,-0.1459,-0.1391,-0.1384,-0.1384,-0.139,-0.1384,-0.1412,-0.1391,0.0,0.0,0.0,-0.1371,-0.1381,-0.1376,-0.1323,-0.1317,-0.1374,-0.1993,-0.2354,-0.2588,-0.3288,-0.4066,-0.4768,-0.4963,-0.5592,-0.63,-0.63,-0.63,-0.63,-0.63,-0.6074,-0.58,-0.58,-0.5617,-0.5491,-0.5617,-0.5785,-0.5954,-0.6115,-0.6148,-0.6181,-0.6317,-0.635,-0.6339,-0.6261,-0.629,-0.6217,-0.5791,-0.5963,-0.5955,-0.5438,-0.5498,-0.5514,-0.5317,-0.5297,-0.5297,-0.5297,-0.5297,-0.5297,-0.5297,-0.5297,-0.5352,-0.5485,-0.5941,-0.6317,-0.6556,-0.7439,-0.7898,-0.7898,-0.8368,-0.8613,-0.8613,-0.8613,-0.8791,0.43,0.43,0.43,0.43,0.43,0.4265,0.4164,0.4655,0.5075,0.5043,0.5915,0.6763,0.7005,0.7475,0.7814,0.7762,0.7396,0.7066,0.7015,0.6601,0.6293,0.6407,0.6379,0.6387,0.6337,0.5852,0.5498,0.0,0.0,0.0,0.0,-0.0047,-0.0788,-0.148,-0.1457,-0.1396,-0.1391,-0.1393,-0.1393,-0.139,-0.1408,-0.1408,-0.1389,-0.1407,-0.1393,-0.139,0.0,0.0,0.0,-0.1309,-0.1309,-0.1306,-0.1316,-0.1304,-0.1303,-0.1388,-0.1884,-0.2511,-0.2588,-0.3171,-0.4025,-0.4768,-0.5592,-0.63,-0.63,-0.63,-0.63,-0.63,-0.6074,-0.58,-0.58,-0.5679,-0.5617,-0.5822,-0.5888,-0.5892,-0.5921,-0.5921,-0.5987,-0.6181,-0.6214,-0.6243,-0.6363,-0.6302,-0.6215,-0.6166,-0.602,-0.5831,-0.5616,-0.56,-0.5514,-0.5317,-0.5297,-0.5297,-0.5297,-0.5297,-0.5297,-0.5297,-0.5297,-0.554,-0.6105,-0.6182,-0.6691,-0.7738,-0.7845,-0.7898,-0.7898,-0.7957,-0.7978,-0.7978,-0.7978,-0.8295,0.4281,0.43,0.43,0.43,0.43,0.4268,0.4145,0.4374,0.4656,0.4871,0.5603,0.6337,0.6743,0.7355,0.7855,0.7969,0.7301,0.6871,0.7099,0.6379,0.5934,0.6195,0.629,0.6336,0.0,0.0,0.5772,0.0,0.0,0.0,0.0,0.041,-0.0545,-0.0817,-0.1216,-0.1391,-0.1391,-0.1417,-0.1408,-0.1408,-0.1378,-0.1328,-0.1339,-0.1327,-0.1354,-0.1338,0.0,0.0,0.0,-0.1313,-0.128,-0.1318,-0.1287,-0.1286,-0.1299,-0.1308,-0.1492,-0.1766,-0.1766,-0.2314,-0.3056,-0.3407,-0.4068,-0.4965,-0.5983,-0.63,-0.63,-0.63,-0.6074,-0.58,-0.58,-0.5652,-0.5491,-0.5591,-0.5594,-0.5624,-0.5686,-0.5719,-0.5785,-0.5987,-0.602,-0.5956,-0.5821,-0.5926,-0.5946,-0.5759,-0.5831,-0.5819,-0.562,-0.5612,-0.5514,-0.5317,-0.5297,-0.5297,-0.5297,-0.5297,-0.5297,-0.5297,-0.5297,-0.5407,-0.5645,-0.6018,-0.6426,-0.688,-0.7235,-0.7429,-0.7429,-0.7429,-0.7429,-0.7429,-0.7429,-0.7536,0.4224,0.4273,0.43,0.43,0.43,0.4278,0.4191,0.4238,0.4375,0.467,0.5384,0.6108,0.6562,0.7374,0.8028,0.8231,0.7405,0.6843,0.7191,0.6322,0.5731,0.6102,0.6246,0.6306,0.0,0.6251,0.0,0.0,0.0,0.0,0.0,0.1478,0.0179,-0.0403,-0.0852,-0.1207,-0.1377,-0.1401,-0.1386,-0.1378,-0.1306,-0.1298,-0.1305,-0.1297,-0.1282,0.0,0.0,0.0,0.0,-0.128,-0.1289,-0.1287,-0.1305,-0.131,-0.1286,-0.1305,-0.1296,-0.1296,-0.1296,-0.1689,-0.2198,-0.2433,-0.2899,-0.3677,-0.5124,-0.5712,-0.5986,-0.6222,-0.6074,-0.5783,-0.5694,-0.5549,-0.5395,-0.5395,-0.5395,-0.5428,-0.5521,-0.5554,-0.5587,-0.5785,-0.5822,-0.5734,-0.5519,-0.5728,-0.5811,-0.5525,-0.573,-0.5839,-0.5624,-0.5612,-0.5514,-0.5317,-0.5297,-0.5297,-0.5297,-0.5297,-0.5297,-0.5297,-0.5297,-0.5297,-0.5297,-0.57,-0.6023,-0.6209,-0.662,-0.6837,-0.6837,-0.6837,-0.6837,-0.6837,-0.6837,-0.6837,0.4086,0.4208,0.43,0.43,0.43,0.43,0.43,0.43,0.43,0.43,0.5305,0.6244,0.645,0.753,0.8463,0.8661,0.7739,0.7097,0.7377,0.6545,0.5991,0.6287,0.6366,0.6391,0.6328,0.6048,0.0,0.0,0.0,0.0,0.0,0.3401,0.1567,-0.0359,-0.0403,-0.071,-0.1391,-0.139,-0.1376,-0.1305,-0.1318,-0.1319,-0.1305,-0.1317,-0.1303,0.0,0.0,0.0,0.0,-0.1297,-0.1297,-0.1297,-0.1296,-0.1297,-0.1297,-0.1296,-0.1296,-0.1296,-0.1296,-0.1296,-0.1453,-0.2237,-0.2511,-0.2666,-0.356,-0.4377,-0.5201,-0.6064,-0.6074,-0.5735,-0.5477,-0.5395,-0.5395,-0.5395,-0.5395,-0.5395,-0.5395,-0.5395,-0.5425,-0.5583,-0.5617,-0.5632,-0.5696,-0.5801,-0.5841,-0.5722,-0.5824,-0.5823,-0.5636,-0.5612,-0.5514,-0.5317,-0.5297,-0.5297,-0.5297,-0.5297,-0.5297,-0.5297,-0.5297,-0.5297,-0.5297,-0.5301,-0.5595,-0.6182,-0.6209,-0.6209,-0.6209,-0.6209,-0.6209,-0.6209,-0.6209,-0.6209,0.3938,0.3989,0.404,0.4153,0.4175,0.4197,0.4281,0.43,0.4322,0.4435,0.5064,0.5623,0.5743,0.6741,0.7718,0.822,0.7509,0.7097,0.7609,0.6574,0.5877,0.6116,0.6249,0.6309,0.0,0.0,0.0,0.0,0.0,0.0,0.0,0.4518,0.34,0.1657,0.0353,-0.0437,-0.0651,-0.1097,-0.1326,-0.1316,-0.1286,-0.1317,-0.1286,-0.1316,0.0,0.0,0.0,0.0,0.0,-0.1296,-0.1296,-0.1296,-0.1296,-0.1296,-0.1296,-0.1296,-0.1296,-0.1296,-0.1296,-0.1296,-0.1335,-0.161,-0.1689,-0.1839,-0.2651,-0.3515,-0.4194,-0.4358,-0.4648,-0.4874,-0.4699,-0.5024,-0.5395,-0.5395,-0.5395,-0.5395,-0.5395,-0.5395,-0.5425,-0.5458,-0.5458,-0.5475,-0.5481,-0.5519,-0.559,-0.5696,-0.5634,-0.5564,-0.5591,-0.5478,-0.5357,-0.5305,-0.5297,-0.5297,-0.5297,-0.5297,-0.5297,-0.5297,-0.5297,-0.5297,-0.5297,-0.5297,-0.538,-0.5567,-0.5595,-0.5595,-0.5595,-0.5595,-0.5595,-0.5595,-0.5595,-0.5595,0.3846,0.3903,0.3992,0.4067,0.4153,0.4205,0.4284,0.43,0.4333,0.4482,0.4996,0.5425,0.5534,0.6405,0.729,0.7905,0.7189,0.6852,0.7555,0.6533,0.5839,0.6121,0.627,0.0,0.0,0.0,0.0,0.0,0.0,0.0,0.0,0.0,0.445,0.3367,0.1478,0.0301,-0.0085,-0.0825,-0.1215,-0.1285,-0.1306,-0.1296,-0.1296,-0.1296,0.0,0.0,0.0,0.0,0.0,-0.1296,-0.1296,-0.1296,-0.1296,-0.1296,-0.1296,-0.1296,-0.1296,-0.1296,-0.1296,-0.1296,-0.1296,-0.1296,-0.1288,-0.1355,-0.1883,-0.2865,-0.3745,-0.3556,-0.3779,-0.406,-0.3914,-0.442,-0.499,-0.499,-0.5193,-0.5395,-0.5395,-0.5395,-0.5395,-0.5395,-0.5395,-0.538,-0.529,-0.5361,-0.5411,-0.5456,-0.5426,-0.5423,-0.5466,-0.5365,-0.5297,-0.5297,-0.5297,-0.5297,-0.5297,-0.5297,-0.5297,-0.5297,-0.5297,-0.5297,-0.5297,-0.5297,-0.5297,-0.5297,-0.5297,-0.5297,-0.5297,-0.5297,-0.5297,-0.5297,-0.5297,-0.5297,0.0,0.3945,0.4085,0.4078,0.4197,0.4278,0.4298,0.43,0.0,0.4492,0.5065,0.5597,0.5725,0.6349,0.703,0.7622,0.6857,0.6487,0.7286,0.6424,0.5885,0.6276,0.6325,0.0,0.0,0.0,0.0,0.0,0.0,0.0,0.0,0.0,0.481,0.4736,0.2945,0.1438,0.0406,-0.0487,-0.1044,-0.1257,-0.1296,-0.1296,-0.1296,-0.1296,0.0,0.0,0.0,0.0,0.0,-0.1296,-0.1296,-0.1296,-0.1296,-0.1296,-0.1296,-0.1296,-0.1296,-0.1296,-0.1296,-0.1296,-0.1296,-0.1294,-0.1234,-0.1214,-0.1281,-0.234,-0.3483,-0.338,-0.3313,-0.3289,-0.3137,-0.3685,-0.422,-0.422,-0.4791,-0.5329,-0.5329,-0.5362,-0.5395,-0.5395,-0.5395,-0.5344,-0.5159,-0.5255,-0.5302,-0.514,-0.5262,-0.5344,-0.529,-0.5297,-0.5297,-0.5297,-0.5297,-0.5297,-0.5297,-0.5297,-0.5297,-0.5297,-0.5297,-0.5297,-0.5297,-0.5297,-0.5297,-0.5297,-0.5297,-0.5297,-0.5297,-0.5297,-0.5297,-0.5297,-0.5297,-0.5297,0.3812,0.0,0.3776,0.4047,0.4038,0.4038,0.0,0.43,0.436,0.4602,0.4776,0.5001,0.528,0.5794,0.6357,0.702,0.7155,0.7172,0.7169,0.652,0.607,0.6295,0.6344,0.6352,0.0,0.0,0.0,0.0,0.0,0.0,0.0,0.0,0.5241,0.5073,0.3981,0.2745,0.138,0.0439,-0.0355,-0.0982,-0.1218,-0.1296,-0.1296,-0.1296,0.0,0.0,0.0,0.0,0.0,-0.1296,-0.1296,-0.1296,-0.1296,-0.1296,-0.1296,-0.1296,-0.1296,-0.1296,-0.1296,-0.1296,-0.1293,-0.123,-0.1202,-0.1215,-0.1222,-0.1452,-0.1703,-0.1739,-0.2076,-0.24,-0.2351,-0.2915,-0.3451,-0.3451,-0.402,-0.4556,-0.4556,-0.499,-0.5395,-0.5395,-0.5395,-0.538,-0.5322,-0.5227,-0.5173,-0.518,-0.5099,-0.5056,-0.5132,-0.5156,-0.5183,-0.5297,-0.5297,-0.5297,-0.5297,-0.5297,-0.5297,-0.5297,-0.5297,-0.5297,-0.5297,-0.5297,-0.5297,-0.5297,-0.5297,-0.5297,-0.5297,-0.5297,-0.5297,-0.5297,-0.5297,-0.5297,0.3851,0.3873,0.396,0.4153,0.4191,0.4216,0.4349,0.4338,0.4352,0.4566,0.4649,0.4766,0.498,0.5336,0.5894,0.6899,0.679,0.6586,0.6551,0.6384,0.6252,0.6317,0.6323,0.0,0.0,0.0,0.0,0.0,0.0,0.0,0.0,0.0,0.5301,0.5113,0.4669,0.379,0.2474,0.1221,0.0313,-0.0235,-0.0825,-0.11,-0.1139,-0.1257,0.0,0.0,0.0,0.0,-0.1296,-0.1296,-0.1296,-0.1296,-0.1296,-0.1296,-0.1296,-0.1296,-0.1296,-0.1296,-0.1296,-0.1296,-0.1293,-0.1277,-0.124,-0.1206,-0.1183,-0.1147,-0.1107,-0.1137,-0.1389,-0.1646,-0.1646,-0.2181,-0.2681,-0.2681,-0.3249,-0.3785,-0.3785,-0.412,-0.4486,-0.4824,-0.4838,-0.4903,-0.5212,-0.5074,-0.4959,-0.5053,-0.4928,-0.4846,-0.4983,-0.5011,-0.5042,-0.5097,-0.5128,-0.5128,-0.5211,-0.5215,-0.5242,-0.5297,-0.5297,-0.5297,-0.5297,-0.5297,-0.5297,-0.5297,-0.5297,-0.5297,-0.5297,-0.5297,-0.5297,-0.5297,-0.5297,-0.5297,0.3895,0.414,0.4322,0.4306,0.4374,0.4479,0.4479,0.4371,0.4338,0.4506,0.4616,0.4744,0.4885,0.5143,0.5773,0.699,0.6372,0.5841,0.6064,0.6251,0.6352,0.6328,0.63,0.0,0.0,0.0,0.0,0.0,0.0,0.0,0.0,0.0,0.0,0.5021,0.5018,0.4582,0.3634,0.2073,0.1135,0.0822,-0.0039,-0.0471,-0.0471,-0.0864,0.0,0.0,0.0,0.0,-0.1296,-0.1296,-0.1296,-0.1296,-0.1291,-0.1289,-0.1289,-0.1289,-0.1286,-0.1283,-0.1288,-0.1289,-0.1288,-0.1284,-0.1243,-0.12,-0.1185,-0.1137,-0.1115,-0.1107,-0.1095,-0.1109,-0.1109,-0.1511,-0.1946,-0.1946,-0.2514,-0.3015,-0.3015,-0.3115,-0.3382,-0.402,-0.4024,-0.4131,-0.4687,-0.4566,-0.4478,-0.4663,-0.4604,-0.4601,-0.4846,-0.4873,-0.4873,-0.4897,-0.4897,-0.4956,-0.5069,-0.5069,-0.5128,-0.5242,-0.527,-0.5297,-0.5297,-0.5297,-0.5297,-0.5297,-0.5297,-0.5297,-0.5297,-0.5297,-0.5297,-0.5297,-0.5297,-0.5297,0.4028,0.4262,0.4454,0.4325,0.4314,0.4325,0.4325,0.4314,0.4363,0.4616,0.4676,0.4821,0.5249,0.5714,0.6261,0.7007,0.7054,0.7032,0.0,0.0,0.617,0.6309,0.0,0.0,0.0,0.0,0.0,0.0,0.0,0.0,0.0,0.0,0.0,0.5021,0.5018,0.4937,0.474,0.3597,0.2657,0.1956,0.1642,0.1486,0.1447,0.047,0.0039,0.0,0.0,0.0,-0.1296,-0.1296,-0.1296,-0.1294,-0.1229,-0.1219,-0.1219,-0.1219,-0.1202,-0.1221,-0.121,-0.1219,-0.1215,-0.1226,-0.1157,-0.1124,-0.1103,-0.112,-0.1111,-0.1115,-0.1113,-0.1109,-0.1109,-0.1176,-0.1243,-0.1243,-0.1779,-0.228,-0.228,-0.2748,-0.3215,-0.3351,-0.3338,-0.3344,-0.3325,-0.3246,-0.3312,-0.3727,-0.3777,-0.399,-0.466,-0.4743,-0.4767,-0.4901,-0.4897,-0.4897,-0.4928,-0.4928,-0.4928,-0.4956,-0.5183,-0.5297,-0.5297,-0.5297,-0.5297,-0.5297,-0.5297,-0.5297,-0.5297,-0.5297,-0.5297,-0.5297,-0.5297,-0.5297,0.3891,0.4145,0.4298,0.4374,0.449,0.4553,0.4553,0.4539,0.4661,0.5093,0.5249,0.5361,0.5637,0.6,0.6296,0.6421,0.6886,0.7048,0.6685,0.6356,0.6108,0.0,0.0,0.0,0.0,0.0,0.0,0.0,0.0,0.0,0.0,0.0,0.0,0.0,0.5018,0.5018,0.5018,0.4501,0.3873,0.3049,0.2384,0.2072,0.2033,0.0939,0.047,0.0,0.0,-0.11,-0.1099,-0.12,-0.1232,-0.123,-0.1199,-0.1187,-0.1187,-0.1187,-0.1215,-0.1205,-0.1183,-0.1187,-0.1185,-0.1208,-0.1146,-0.1084,-0.1104,-0.1089,-0.1109,-0.1109,-0.1109,-0.1109,-0.1109,-0.1109,-0.1109,-0.1109,-0.1344,-0.1544,-0.1544,-0.1812,-0.2171,-0.2535,-0.2532,-0.2582,-0.2895,-0.2861,-0.2871,-0.3077,-0.3125,-0.3347,-0.4018,-0.4101,-0.4267,-0.4653,-0.468,-0.4708,-0.4794,-0.4794,-0.4822,-0.4897,-0.5069,-0.5183,-0.5183,-0.527,-0.5297,-0.5297,-0.5297,-0.5297,-0.5297,-0.5297,-0.5297,-0.5297,-0.5297,-0.5297,0.369,0.3963,0.4175,0.4446,0.461,0.4757,0.4784,0.4719,0.484,0.5301,0.5529,0.567,0.5925,0.6299,0.658,0.6436,0.6811,0.6845,0.6175,0.6062,0.0,0.0,0.0,0.0,0.0,0.0,0.0,0.0,0.0,0.0,0.0,0.0,0.0,0.0,0.5018,0.5018,0.5018,0.5018,0.4701,0.4068,0.3246,0.2846,0.2792,0.1717,0.1249,0.1165,-0.0039,-0.0548,-0.0583,-0.0916,-0.1094,-0.1123,-0.1131,-0.1156,-0.1191,-0.1184,-0.119,-0.1202,-0.1194,-0.1192,-0.1192,-0.1192,-0.1136,-0.111,-0.111,-0.1094,-0.1109,-0.1109,-0.1109,-0.1109,-0.1109,-0.1109,-0.1109,-0.1109,-0.1109,-0.1107,-0.1067,-0.1104,-0.1231,-0.1735,-0.1754,-0.1861,-0.2333,-0.2343,-0.2319,-0.2458,-0.2486,-0.2708,-0.332,-0.3403,-0.3569,-0.4015,-0.4211,-0.4408,-0.4688,-0.4691,-0.477,-0.4897,-0.5014,-0.5128,-0.5156,-0.5242,-0.5297,-0.5297,-0.5297,-0.5297,-0.5297,-0.5297,-0.5297,-0.5297,-0.5297,-0.5297,0.3452,0.3807,0.4175,0.4446,0.4517,0.4561,0.4676,0.4695,0.4723,0.4835,0.4955,0.5274,0.5956,0.6909,0.7653,0.7802,0.7415,0.6875,0.6211,0.0,0.0,0.0,0.0,0.0,0.0,0.0,0.0,0.0,0.0,0.0,0.0,0.0,0.0,0.0,0.0,0.5018,0.5018,0.5018,0.4976,0.4898,0.482,0.4724,0.4583,0.3637,0.3167,0.2994,0.1241,0.0503,0.0416,-0.0341,-0.0746,-0.0911,-0.0923,-0.0984,-0.1121,-0.1093,-0.1153,-0.1198,-0.1134,-0.1124,-0.1124,-0.1124,-0.1104,-0.1113,-0.1113,-0.1111,-0.1109,-0.1109,-0.1109,-0.1109,-0.1109,-0.1109,-0.1109,-0.1109,-0.1109,-0.1069,-0.101,-0.1057,-0.1092,-0.1096,-0.1082,-0.107,-0.1037,-0.1032,-0.1232,-0.179,-0.1874,-0.2097,-0.2681,-0.2764,-0.2792,-0.282,-0.332,-0.3935,-0.4632,-0.4691,-0.477,-0.4897,-0.5014,-0.5156,-0.527,-0.5297,-0.5297,-0.5297,-0.5297,-0.5297,-0.5297,-0.5297,-0.5297,-0.5297,-0.5297,-0.5297,0.3014,0.3257,0.3508,0.3948,0.4072,0.4225,0.4779,0.5141,0.5578,0.6271,0.6016,0.5894,0.6544,0.6469,0.6511,0.7101,0.6645,0.6127,0.0,0.0,0.0,0.0,0.0,0.0,0.0,0.0,0.0,0.0,0.0,0.0,0.0,0.0,0.0,0.0,0.0,0.4941,0.4866,0.4866,0.4866,0.4829,0.4866,0.4841,0.4722,0.3797,0.3383,0.3283,0.1937,0.1117,0.0701,0.0254,-0.0215,-0.0709,-0.0795,-0.0957,-0.1091,-0.1113,-0.1124,-0.1143,-0.1097,-0.1093,-0.1093,-0.1093,-0.1085,-0.1109,-0.1109,-0.1109,-0.1109,-0.1109,-0.1109,-0.1109,-0.1109,-0.1109,-0.1109,-0.1109,-0.1109,-0.1106,-0.1062,-0.1054,-0.1037,-0.0997,-0.0973,-0.0921,-0.0891,-0.0905,-0.0981,-0.1205,-0.1232,-0.1456,-0.2068,-0.2151,-0.2291,-0.2653,-0.2903,-0.3153,-0.3433,-0.3458,-0.3514,-0.3652,-0.457,-0.5128,-0.5183,-0.527,-0.5297,-0.5297,-0.5297,-0.5297,-0.5297,-0.5297,-0.5297,-0.5297,-0.5297,-0.5297,0.2669,0.2871,0.3121,0.3513,0.3887,0.4262,0.4756,0.5201,0.5718,0.6556,0.6505,0.6417,0.6701,0.6314,0.6102,0.0,0.6016,0.0,0.0,0.0,0.0,0.0,0.0,0.0,0.0,0.0,0.0,0.0,0.0,0.0,0.0,0.0,0.0,0.0,0.0,0.0,0.4798,0.4798,0.4716,0.4632,0.4678,0.4675,0.4632,0.4054,0.3799,0.3699,0.2715,0.2027,0.1579,0.0952,0.0209,-0.0518,-0.0645,-0.0842,-0.1009,-0.1009,-0.1043,-0.1109,-0.1109,-0.1109,-0.1109,-0.1109,-0.1109,-0.1109,-0.1109,-0.1109,-0.1109,-0.1109,-0.1109,-0.1109,-0.1109,-0.1109,-0.1109,-0.1109,-0.1109,-0.1104,-0.1085,-0.104,-0.0987,-0.0969,-0.0921,-0.0904,-0.0902,-0.0898,-0.0898,-0.0898,-0.0898,-0.1037,-0.1456,-0.1512,-0.1734,-0.2347,-0.2402,-0.2514,-0.2736,-0.2764,-0.282,-0.2959,-0.3901,-0.4481,-0.4481,-0.4567,-0.4598,-0.4598,-0.4598,-0.4598,-0.4598,-0.4598,-0.4598,-0.4598,-0.4791,-0.4791,0.2405,0.2736,0.3113,0.3165,0.4027,0.4814,0.4629,0.4696,0.4904,0.5137,0.6113,0.6758,0.6275,0.6577,0.0,0.6435,0.5711,0.0,0.0,0.0,0.0,0.0,0.0,0.0,0.0,0.0,0.0,0.0,0.0,0.0,0.0,0.0,0.0,0.0,0.0,0.0,0.4793,0.4747,0.4624,0.4503,0.4503,0.4503,0.4506,0.4629,0.4618,0.4439,0.3734,0.34,0.3283,0.1748,0.0552,-0.0303,-0.0438,-0.0607,-0.0809,-0.0809,-0.0943,-0.1109,-0.1109,-0.1109,-0.1109,-0.1109,-0.1109,-0.1109,-0.1109,-0.1109,-0.1109,-0.1109,-0.1109,-0.1109,-0.1109,-0.1109,-0.1109,-0.1109,-0.1109,-0.1092,-0.1001,-0.1012,-0.0975,-0.0915,-0.0893,-0.0903,-0.0902,-0.0898,-0.0898,-0.0898,-0.0898,-0.0898,-0.0898,-0.0898,-0.1121,-0.1734,-0.179,-0.2097,-0.2822,-0.2877,-0.2931,-0.3063,-0.309,-0.309,-0.309,-0.309,-0.309,-0.309,-0.309,-0.309,-0.309,-0.309,-0.309,-0.3118,-0.3702,-0.3674,0.2083,0.225,0.2527,0.2783,0.3212,0.3753,0.4449,0.5487,0.6205,0.5898,0.651,0.6892,0.6126,0.5775,0.0,0.6105,0.0,0.0,0.0,0.0,0.0,0.0,0.0,0.0,0.0,0.0,0.0,0.0,0.0,0.0,0.0,0.0,0.0,0.0,0.0,0.0,0.458,0.4577,0.4501,0.4352,0.4352,0.4352,0.4352,0.4387,0.4384,0.4352,0.4115,0.373,0.3189,0.2207,0.1286,0.0471,0.0269,-0.0202,-0.0809,-0.0942,-0.1043,-0.1109,-0.1109,-0.1109,-0.1109,-0.1109,-0.1109,-0.1109,-0.1109,-0.1109,-0.1109,-0.1109,-0.1109,-0.1109,-0.1109,-0.1061,-0.1046,-0.1046,-0.1046,-0.1035,-0.0997,-0.0948,-0.0932,-0.0905,-0.0891,-0.0908,-0.0899,-0.0898,-0.0898,-0.0898,-0.0898,-0.0898,-0.0898,-0.0898,-0.0981,-0.1149,-0.1177,-0.126,-0.1484,-0.1484,-0.1512,-0.1539,-0.1567,-0.2011,-0.3063,-0.309,-0.309,-0.309,-0.309,-0.309,-0.309,-0.309,-0.309,-0.309,-0.3284,-0.3398,0.2033,0.2124,0.2307,0.2567,0.2879,0.3497,0.5006,0.5865,0.6259,0.6163,0.6658,0.6781,0.5724,0.5673,0.0,0.0,0.0,0.0,0.0,0.0,0.0,0.0,0.0,0.0,0.0,0.0,0.0,0.0,0.0,0.0,0.0,0.0,0.0,0.0,0.0,0.0,0.4506,0.446,0.4368,0.43,0.43,0.43,0.43,0.43,0.43,0.43,0.43,0.3892,0.3149,0.2414,0.1644,0.0874,0.0471,-0.0101,-0.0708,-0.0808,-0.0975,-0.1109,-0.1109,-0.1109,-0.1109,-0.1109,-0.1109,-0.1109,-0.1109,-0.1068,-0.1059,-0.1059,-0.1059,-0.1059,-0.1059,-0.1046,-0.1001,-0.1001,-0.0992,-0.1007,-0.0977,-0.0926,-0.091,-0.0898,-0.091,-0.0898,-0.0898,-0.0898,-0.0898,-0.0898,-0.0898,-0.0898,-0.0898,-0.0898,-0.0898,-0.0898,-0.0898,-0.0898,-0.0898,-0.0898,-0.0898,-0.0898,-0.0898,-0.1288,-0.2176,-0.2233,-0.2233,-0.2233,-0.2233,-0.2233,-0.2233,-0.2233,-0.2233,-0.2233,-0.2595,-0.2736,0.2173,0.2245,0.2319,0.2473,0.2948,0.3952,0.6052,0.5998,0.5673,0.6231,0.6691,0.6595,0.5404,0.6054,0.644,0.0,0.0,0.0,0.0,0.0,0.0,0.0,0.0,0.0,0.0,0.0,0.0,0.0,0.0,0.0,0.0,0.0,0.0,0.0,0.0,0.0,0.449,0.4352,0.43,0.0,0.43,0.43,0.43,0.43,0.43,0.43,0.43,0.3928,0.3251,0.2582,0.1913,0.121,0.0471,-0.0067,-0.0404,-0.0506,-0.0775,-0.1076,-0.1109,-0.1109,-0.1109,-0.1109,-0.1107,-0.1106,-0.1109,-0.1054,-0.0998,-0.1,-0.0999,-0.0997,-0.0997,-0.0995,-0.0993,-0.0993,-0.1004,-0.0975,-0.0916,-0.0909,-0.0901,-0.0902,-0.0898,-0.0898,-0.0898,-0.0898,-0.0898,-0.0898,-0.0898,-0.0898,-0.0898,-0.0898,-0.0898,-0.0898,-0.0898,-0.0898,-0.0898,-0.0898,-0.0898,-0.0898,-0.0898,-0.0898,-0.0898,-0.0898,-0.0898,-0.0898,-0.0898,-0.0898,-0.0898,-0.0898,-0.0898,-0.0926,-0.1709,-0.1793,0.2179,0.2218,0.2256,0.2373,0.3383,0.4748,0.63,0.642,0.641,0.7266,0.7539,0.7361,0.6633,0.6286,0.0,0.0,0.0,0.0,0.0,0.0,0.0,0.0,0.0,0.0,0.0,0.0,0.0,0.0,0.0,0.0,0.0,0.0,0.0,0.0,0.0,0.4338,0.4338,0.4314,0.43,0.0,0.43,0.43,0.43,0.43,0.43,0.43,0.43,0.4197,0.4061,0.3894,0.3389,0.2681,0.1812,0.1109,0.0404,-0.0438,-0.0775,-0.0876,-0.1043,-0.1109,-0.1109,-0.1109,-0.1061,-0.1047,-0.1069,-0.1039,-0.1003,-0.0995,-0.0985,-0.0998,-0.0998,-0.095,-0.0932,-0.0932,-0.0928,-0.0915,-0.0914,-0.0907,-0.0905,-0.0899,-0.0898,-0.0898,-0.0898,-0.0898,-0.0898,-0.0898,-0.0898,-0.0898,-0.0898,-0.0898,-0.0898,-0.0898,-0.0898,-0.0898,-0.0898,-0.0898,-0.0898,-0.0898,-0.0898,-0.0898,-0.0898,-0.0898,-0.0898,-0.0898,-0.0898,-0.0898,-0.0898,-0.0898,-0.0898,-0.0898,-0.1094,-0.1234,0.2121,0.2206,0.2287,0.247,0.3071,0.4044,0.5577,0.5863,0.6158,0.7517,0.7664,0.7331,0.6663,0.0,0.0,0.0,0.0,0.0,0.0,0.0,0.0,0.0,0.0,0.0,0.0,0.0,0.0,0.0,0.0,0.0,0.0,0.0,0.0,0.0,0.43,0.43,0.43,0.43,0.43,0.43,0.43,0.43,0.43,0.43,0.43,0.43,0.43,0.43,0.4267,0.3928,0.3553,0.3111,0.2278,0.1492,0.0772,0.0496,-0.0067,-0.064,-0.0403,-0.0605,-0.0942,-0.0942,-0.0991,-0.1004,-0.1051,-0.1014,-0.094,-0.0955,-0.0948,-0.0967,-0.0967,-0.0925,-0.0913,-0.0913,-0.0903,-0.0888,-0.0901,-0.0898,-0.0898,-0.0898,-0.0898,-0.0898,-0.0898,-0.0898,-0.0898,-0.0898,-0.0898,-0.0898,-0.0898,-0.0898,-0.0898,-0.0898,-0.0898,-0.0898,-0.0898,-0.0898,-0.0898,-0.0898,-0.0898,-0.0898,-0.0898,-0.0898,-0.0898,-0.0898,-0.0898,-0.0898,-0.0898,-0.0898,-0.0898,-0.0898,-0.1038,-0.1178,0.1913,0.2166,0.2371,0.2675,0.2761,0.3185,0.4665,0.5129,0.5663,0.7128,0.7363,0.7153,0.6619,0.0,0.0,0.0,0.0,0.0,0.0,0.0,0.0,0.0,0.0,0.0,0.0,0.0,0.0,0.0,0.0,0.0,0.0,0.0,0.43,0.43,0.43,0.43,0.43,0.43,0.43,0.43,0.43,0.43,0.43,0.4278,0.4281,0.43,0.43,0.43,0.4264,0.3602,0.3369,0.3307,0.2487,0.1759,0.1237,0.1551,0.0849,-0.0202,0.0301,-0.0067,-0.0736,-0.0736,-0.0818,-0.0924,-0.0928,-0.086,-0.0819,-0.0853,-0.0851,-0.0877,-0.0906,-0.0906,-0.0906,-0.0906,-0.0887,-0.0898,-0.0898,-0.0898,-0.0898,-0.0898,-0.0898,-0.0898,-0.0898,-0.0898,-0.0898,-0.0898,-0.0898,-0.0898,-0.0898,-0.0898,-0.0898,-0.0898,-0.0898,-0.0898,-0.0898,-0.0898,-0.0898,-0.0898,-0.0898,-0.0898,-0.0898,-0.0898,-0.0898,-0.0898,-0.0898,-0.0898,-0.0898,-0.0898,-0.0898,-0.0898,-0.1122,-0.1234,0.1496,0.1897,0.2485,0.3281,0.3491,0.3766,0.4509,0.5265,0.5814,0.5881,0.6867,0.773,0.0,0.0,0.0,0.0,0.0,0.0,0.0,0.0,0.0,0.0,0.0,0.0,0.0,0.0,0.0,0.0,0.0,0.0,0.0,0.4564,0.43,0.43,0.43,0.43,0.43,0.43,0.43,0.43,0.43,0.43,0.4298,0.4191,0.42,0.43,0.43,0.43,0.4292,0.4053,0.4039,0.4077,0.313,0.2815,0.2764,0.1864,0.1155,0.0603,0.0457,0.0,-0.0552,-0.0552,-0.0563,-0.057,-0.0554,-0.0506,-0.0511,-0.0672,-0.0722,-0.0762,-0.0875,-0.0903,-0.0903,-0.0903,-0.09,-0.0898,-0.0898,-0.0898,-0.0898,-0.0898,-0.0898,-0.0898,-0.0898,-0.0898,-0.0898,-0.0898,-0.0898,-0.0898,-0.0898,-0.0898,-0.0898,-0.0898,-0.0898,-0.0898,-0.0898,-0.0898,-0.0898,-0.0898,-0.0898,-0.0898,-0.0898,-0.0898,-0.0898,-0.0898,-0.0898,-0.0898,-0.0898,-0.0898,-0.0898,-0.0898,-0.0926,-0.0954,0.1276,0.1852,0.2372,0.2806,0.2932,0.3092,0.3768,0.4194,0.456,0.4906,0.5511,0.0,0.0,0.0,0.0,0.0,0.0,0.0,0.0,0.0,0.0,0.0,0.0,0.0,0.0,0.0,0.0,0.0,0.0,0.0,0.512,0.4597,0.43,0.43,0.43,0.0,0.43,0.43,0.43,0.43,0.43,0.4265,0.4197,0.4143,0.4148,0.4194,0.4094,0.4062,0.4059,0.4005,0.4016,0.4046,0.3567,0.3263,0.2957,0.2468,0.1882,0.1311,0.0914,0.0502,0.0063,-0.0283,-0.0428,-0.0502,-0.0509,-0.0466,-0.0422,-0.0514,-0.0539,-0.0533,-0.0617,-0.0701,-0.0785,-0.0785,-0.0842,-0.0898,-0.0898,-0.0898,-0.0898,-0.0898,-0.0898,-0.0898,-0.0898,-0.0898,-0.0898,-0.0898,-0.0898,-0.0898,-0.0898,-0.0898,-0.0898,-0.0898,-0.0898,-0.0898,-0.0898,-0.0898,-0.0898,-0.0898,-0.0898,-0.0898,-0.0898,-0.0898,-0.0898,-0.0898,-0.0898,-0.0898,-0.0898,-0.0898,-0.0898,-0.0898,-0.0898,-0.0898,0.1177,0.1723,0.2049,0.2289,0.2296,0.2416,0.2965,0.3194,0.3434,0.0,0.4342,0.0,0.0,0.0,0.0,0.0,0.0,0.0,0.0,0.0,0.0,0.0,0.0,0.0,0.0,0.0,0.0,0.0,0.0,0.0,0.5778,0.509,0.4694,0.4631,0.4436,0.4303,0.43,0.427,0.4254,0.4254,0.4224,0.4159,0.4038,0.4039,0.4026,0.4023,0.393,0.3903,0.39,0.387,0.3876,0.3889,0.3799,0.3505,0.3153,0.3092,0.2649,0.2029,0.1647,0.1247,0.0821,0.0366,0.006,-0.0146,-0.0146,-0.0229,-0.0308,-0.0336,-0.0336,-0.0364,-0.0393,-0.0505,-0.0617,-0.0617,-0.0701,-0.0785,-0.087,-0.0898,-0.0898,-0.0898,-0.0898,-0.0898,-0.0898,-0.0898,-0.0898,-0.0898,-0.0898,-0.0898,-0.0898,-0.0898,-0.0898,-0.0898,-0.0898,-0.0898,-0.0898,-0.0898,-0.0898,-0.0898,-0.0898,-0.0898,-0.0898,-0.0898,-0.0898,-0.0898,-0.0898,-0.0898,-0.0898,-0.0898,-0.0898,-0.0898,-0.0898,-0.0898,0.1103,0.1422,0.1564,0.2084,0.2208,0.22,0.2244,0.2762,0.3222,0.3251,0.0,0.0,0.0,0.0,0.0,0.0,0.0,0.0,0.0,0.0,0.0,0.0,0.0,0.0,0.0,0.0,0.0,0.0,0.0,0.0,0.7544,0.6461,0.5741,0.555,0.4802,0.4348,0.43,0.4186,0.4094,0.4094,0.3978,0.3919,0.3911,0.3854,0.3802,0.3808,0.3887,0.3903,0.3895,0.3841,0.383,0.3881,0.3683,0.3703,0.3815,0.3621,0.327,0.2818,0.2674,0.2237,0.1738,0.1709,0.1299,0.0815,0.0815,0.0421,-0.0056,-0.0168,-0.0224,-0.0252,-0.0364,-0.0421,-0.0421,-0.0421,-0.0421,-0.0505,-0.0842,-0.0898,-0.0898,-0.0898,-0.0898,-0.0898,-0.0898,-0.0898,-0.0898,-0.0898,-0.0898,-0.0898,-0.0898,-0.0898,-0.0898,-0.0898,-0.0898,-0.0898,-0.0898,-0.0898,-0.0898,-0.0898,-0.0898,-0.0898,-0.0898,-0.0898,-0.0898,-0.0898,-0.0898,-0.0898,-0.0898,-0.0898,-0.0898,-0.0898,-0.0898,-0.0898,0.0332,0.0864,0.1387,0.1624,0.1913,0.2132,0.2183,0.2388,0.2541,0.2494,0.0,0.0,0.0,0.0,0.0,0.0,0.0,0.0,0.0,0.0,0.0,0.0,0.0,0.0,0.0,0.0,0.0,0.0,0.0,0.0,0.7448,0.6699,0.601,0.5435,0.5137,0.4796,0.4376,0.4241,0.4159,0.4159,0.3988,0.3865,0.3846,0.3802,0.3742,0.3676,0.3691,0.371,0.3705,0.3693,0.3698,0.3702,0.3615,0.3637,0.3639,0.3187,0.3152,0.324,0.24,0.2248,0.2304,0.1935,0.1667,0.14,0.1009,0.0757,0.0477,0.0056,-0.0084,-0.0084,-0.014,-0.0196,-0.028,-0.0393,-0.0393,-0.0421,-0.0561,-0.0673,-0.0785,-0.087,-0.0898,-0.0898,-0.0898,-0.0898,-0.0898,-0.0898,-0.0898,-0.0898,-0.0898,-0.0898,-0.0898,-0.0898,-0.0898,-0.0898,-0.0898,-0.0898,-0.0898,-0.0898,-0.0898,-0.0898,-0.0898,-0.0617,-0.0589,-0.0898,-0.0364,-0.0336,-0.0898,-0.0898,-0.0898,-0.0898,-0.0898,-0.0898,-0.0147,0.0358,0.0916,0.1291,0.1586,0.1883,0.2083,0.2125,0.2114,0.2073,0.0,0.0,0.0,0.0,0.0,0.0,0.0,0.0,0.0,0.0,0.0,0.0,0.0,0.0,0.0,0.0,0.0,0.0,0.0,0.0,0.7752,0.721,0.6411,0.5333,0.5292,0.5085,0.465,0.4297,0.424,0.4417,0.4014,0.3776,0.3725,0.3725,0.3684,0.3613,0.3613,0.3613,0.3613,0.3613,0.3613,0.3613,0.3613,0.3613,0.3555,0.316,0.3244,0.3471,0.2685,0.2657,0.2935,0.2545,0.2265,0.204,0.1623,0.1372,0.1121,0.0728,0.0448,0.0308,0.0308,0.0084,-0.0168,-0.0252,-0.0252,-0.028,-0.0336,-0.0477,-0.0617,-0.0701,-0.0589,-0.0477,-0.0477,-0.0308,-0.0168,-0.0168,-0.0168,-0.0168,-0.0168,-0.0168,-0.0168,-0.0168,-0.0168,-0.0168,-0.0168,-0.0252,-0.0308,-0.0308,-0.0308,-0.0308,-0.0308,0.0,0.0028,-0.028,0.0168,0.0112,-0.0477,-0.0477,-0.0477,-0.0477,-0.0477,-0.0533,0.0,0.0,0.0,0.1036,0.126,0.1415,0.1877,0.0,0.1971,0.2001,0.0,0.0,0.0,0.0,0.0,0.0,0.0,0.0,0.0,0.0,0.0,0.0,0.0,0.0,0.0,0.0,0.0,0.0,0.0,0.8328,0.8669,0.804,0.6954,0.5395,0.5344,0.5262,0.5143,0.442,0.4329,0.4901,0.4029,0.3613,0.3613,0.3613,0.3613,0.3613,0.3613,0.3613,0.3613,0.3613,0.3613,0.3613,0.3613,0.3613,0.3613,0.3613,0.3613,0.3613,0.3613,0.3613,0.3613,0.3613,0.3216,0.2736,0.2708,0.2291,0.1818,0.1818,0.1372,0.0926,0.0898,0.0449,0.0,0.0,0.0,-0.0028,-0.0168,-0.028,-0.0364,-0.0364,0.0056,0.0393,0.0421,0.0924,0.1313,0.1313,0.1313,0.1313,0.1313,0.1313,0.1313,0.1313,0.1313,0.1313,0.1313,0.1062,0.0922,0.0922,0.0922,0.0922,0.0922,0.0922,0.0922,0.0922,0.0616,0.0449,0.0449,0.0421,0.0393,0.0393,0.0393,0.0196,-0.0709,0.0,0.0,0.0,0.0,0.0,0.0,0.0,0.0,0.0,0.0,0.0,0.0,0.0,0.0,0.0,0.0,0.0,0.0,0.0,0.0,0.0,0.0,0.0,0.0,0.0,0.0,0.0,0.8038,0.8253,0.8405,0.7678,0.7053,0.6624,0.6179,0.5933,0.5908,0.5417,0.5083,0.488,0.4311,0.3882,0.3613,0.3613,0.3613,0.3613,0.3613,0.3613,0.3613,0.3613,0.3613,0.3613,0.3613,0.3613,0.3613,0.3613,0.3613,0.3613,0.3613,0.3613,0.3613,0.3613,0.3499,0.3272,0.2822,0.2597,0.2347,0.193,0.1679,0.1456,0.1009,0.0449,0.0,0.0,0.0,0.0,-0.0056,0.0252,0.0477,0.0224,0.0308,0.0532,0.098,0.1202,0.1313,0.1313,0.1313,0.1313,0.1313,0.1313,0.1313,0.1313,0.1313,0.1313,0.1313,0.1229,0.1202,0.1202,0.1202,0.1202,0.1202,0.151,0.1538,0.1202,0.1764,0.1905,0.1568,0.0784,0.0393,0.0393,0.0393,0.0336,-0.0901,-0.0701,-0.0449,-0.0252,0.0,0.0,0.1011,0.1201,0.0,0.0,0.0,0.0,0.0,0.0,0.0,0.0,0.0,0.0,0.0,0.0,0.0,0.0,0.0,0.0,0.0,0.0,0.0,0.0,0.7761,0.7982,0.8135,0.7682,0.7327,0.7112,0.6756,0.6566,0.6566,0.6046,0.5637,0.5359,0.4701,0.4153,0.3691,0.3638,0.3613,0.3613,0.3613,0.3613,0.3613,0.3613,0.3613,0.3613,0.3613,0.3613,0.3613,0.3613,0.3613,0.3613,0.3613,0.3613,0.3613,0.3613,0.3613,0.3527,0.3188,0.3074,0.2991,0.2657,0.2376,0.204,0.1428,0.1008,0.0756,0.0756,0.056,0.0364,0.0364,0.0645,0.0842,0.0645,0.1008,0.1482,0.1817,0.2096,0.2265,0.2265,0.2265,0.2265,0.2265,0.2265,0.2265,0.2265,0.2265,0.2265,0.2265,0.2124,0.204,0.204,0.204,0.204,0.204,0.232,0.232,0.2068,0.2464,0.2577,0.2296,0.1653,0.1373,0.1345,0.1036,0.0896,-0.0906,-0.0898,-0.0813,-0.0393,-0.028,0.0,0.0757,0.0954,0.1094,0.0,0.0,0.0,0.0,0.0,0.0,0.0,0.0,0.0,0.0,0.0,0.0,0.0,0.0,0.0,0.0,0.0,0.6954,0.7101,0.7381,0.7655,0.7901,0.7901,0.7681,0.7192,0.7192,0.7192,0.7192,0.6502,0.6145,0.6086,0.5191,0.4453,0.3907,0.3691,0.3613,0.3613,0.3613,0.3613,0.3613,0.3613,0.3613,0.3613,0.3613,0.3613,0.3613,0.3613,0.3613,0.3613,0.3613,0.3613,0.3613,0.3613,0.3613,0.3613,0.3613,0.3613,0.3613,0.3613,0.316,0.2569,0.204,0.1846,0.179,0.179,0.14,0.1009,0.1009,0.1065,0.1093,0.1093,0.1958,0.2708,0.2792,0.3244,0.3613,0.3613,0.3613,0.3613,0.3613,0.3613,0.3613,0.3613,0.3613,0.3613,0.3613,0.333,0.316,0.316,0.316,0.316,0.316,0.316,0.316,0.316,0.2912,0.2802,0.2802,0.2719,0.2691,0.2691,0.1987,0.1677,-0.0906,-0.0898,-0.087,-0.0785,-0.0757,0.0,-0.0084,0.0056,0.0168,0.0,0.0,0.0,0.0,0.0,0.0,0.0,0.0,0.0,0.0,0.0,0.0,0.0,0.0,0.0,0.0,0.0,0.6452,0.7063,0.7547,0.7848,0.7901,0.7901,0.7848,0.7741,0.7741,0.7741,0.7741,0.7381,0.7052,0.6713,0.5687,0.4948,0.4508,0.3885,0.3613,0.3613,0.3613,0.3613,0.3613,0.3613,0.3613,0.3613,0.3613,0.3613,0.3613,0.3613,0.3613,0.3613,0.3613,0.3613,0.3613,0.3613,0.3613,0.3613,0.3613,0.3613,0.3613,0.3613,0.316,0.2681,0.2541,0.2151,0.179,0.179,0.1706,0.1623,0.1623,0.2014,0.2347,0.2347,0.2541,0.285,0.333,0.3527,0.3613,0.3613,0.3613,0.3613,0.3613,0.3613,0.3613,0.3613,0.3613,0.3613,0.3613,0.3527,0.3499,0.3499,0.3499,0.3499,0.3499,0.3499,0.3499,0.3499,0.3444,0.3416,0.3416,0.2942,0.2691,0.2691,0.2268,0.2071,-0.0906,-0.0898,-0.0898,-0.0898,0.0,0.0,0.0,-0.0196,-0.0084,0.0308,0.0,0.0,0.0,0.0,0.0,0.0,0.0,0.0,0.0,0.0,0.0,0.0,0.0,0.0,0.0,0.0,0.6164,0.7031,0.7601,0.7901,0.7901,0.7901,0.7901,0.7901,0.7901,0.7901,0.7901,0.7762,0.7461,0.6993,0.6091,0.531,0.4663,0.395,0.3574,0.3493,0.3493,0.3528,0.3613,0.3613,0.3613,0.3613,0.3613,0.3613,0.3613,0.3613,0.3613,0.3613,0.3613,0.3613,0.3613,0.3613,0.3613,0.3613,0.3613,0.3613,0.3613,0.3613,0.3385,0.316,0.316,0.2935,0.2685,0.2685,0.246,0.2235,0.2235,0.2486,0.2708,0.2708,0.2933,0.3244,0.3555,0.3613,0.3613,0.3613,0.3613,0.3613,0.3613,0.3613,0.3613,0.3613,0.3613,0.3613,0.3613,0.3613,0.3613,0.3613,0.3613,0.3613,0.3613,0.3613,0.3613,0.3613,0.3613,0.3613,0.3613,0.3304,0.3054,0.2884,0.2603,0.2352,0.0,0.0,-0.0898,0.0,0.0,-0.0813,0.0,0.0,0.0,0.0084,0.0,0.0,0.0,0.0,0.0,0.0,0.0,0.0,0.0,0.0,0.0,0.0,0.0,0.0,0.0,0.0,0.6218,0.7031,0.7601,0.7901,0.7901,0.7901,0.7901,0.7901,0.7901,0.7901,0.7901,0.7901,0.7681,0.7246,0.6458,0.5681,0.4882,0.4183,0.3704,0.3394,0.3496,0.3528,0.3515,0.3539,0.355,0.3553,0.3602,0.3613,0.3613,0.3613,0.3613,0.3613,0.3613,0.3613,0.3613,0.3613,0.3613,0.3613,0.3613,0.3613,0.3613,0.3613,0.3613,0.3613,0.3613,0.3613,0.3613,0.3613,0.3216,0.2877,0.2877,0.2877,0.2877,0.2877,0.3272,0.3613,0.3613,0.3613,0.3613,0.3613,0.3613,0.3613,0.3613,0.3613,0.3613,0.3613,0.3613,0.3613,0.3613,0.3613,0.3613,0.3613,0.3613,0.3613,0.3613,0.3613,0.3613,0.3613,0.3613,0.3613,0.3613,0.3613,0.3471,0.3188,0.2912,0.2633,0.0,0.0,0.0,0.0,-0.0898,0.0,0.0,0.0,-0.0813,-0.0757,0.0,0.0,0.0,0.0,0.0,0.0,0.0,0.0,0.0,0.0,0.0,0.0,0.0,0.0,0.0,0.0,0.0,0.7085,0.7601,0.7901,0.7901,0.7901,0.7901,0.7901,0.7901,0.7901,0.7901,0.7901,0.7875,0.7788,0.689,0.6179,0.5664,0.5102,0.4307,0.3419,0.3836,0.3717,0.3245,0.3376,0.3422,0.3433,0.3542,0.3613,0.3613,0.3613,0.3613,0.3613,0.3613,0.3613,0.3613,0.3613,0.3613,0.3613,0.3613,0.3613,0.3613,0.3613,0.3613,0.3613,0.3613,0.3613,0.3613,0.3613,0.3555,0.3499,0.3499,0.3499,0.3499,0.3499,0.3555,0.3613,0.3613,0.3613,0.3613,0.3613,0.3613,0.3613,0.3613,0.3613,0.3613,0.3613,0.3613,0.3613,0.3613,0.3613,0.3613,0.3613,0.3613,0.3613,0.3613,0.3613,0.3613,0.3613,0.3613,0.3613,0.3613,0.3613,0.3583,0.3527,0.3216,0.3047,0.0,0.0,0.0,0.0,0.0,0.0,-0.0981,0.0,-0.0898,0.0,0.0,0.0,0.0,0.0,0.0,0.0,0.0,0.0,0.0,0.0,0.0,0.0,0.0,0.0,0.0,0.0,0.0,0.0,0.0,0.7735,0.7901,0.7901,0.7901,0.7901,0.7901,0.7901,0.7901,0.7901,0.785,0.7713,0.6984,0.6358,0.5847,0.5272,0.4518,0.3712,0.3897,0.3684,0.3196,0.3273,0.3294,0.3308,0.343,0.352,0.3613,0.3613,0.3613,0.3613,0.3613,0.3613,0.3613,0.3613,0.3613,0.3613,0.3613,0.3613,0.3613,0.3613,0.3613,0.3613,0.3613,0.3613,0.3613,0.3613,0.3613,0.3613,0.3613,0.3613,0.3613,0.3613,0.3613,0.3613,0.3613,0.3613,0.3613,0.3613,0.3613,0.3613,0.3613,0.3613,0.3613,0.3613,0.3613,0.3613,0.3613,0.3613,0.3613,0.3613,0.3613,0.3613,0.3613,0.3613,0.3613,0.3613,0.3613,0.3613,0.3613,0.3613,0.3613,0.3583,0.3244,0.3021,-0.0898,0.0,0.0,0.0,0.0,0.0,0.0,0.0,0.0,0.0,0.0,0.0,0.0,0.0,0.0,-0.0898,0.0,0.0,0.0,0.0,0.0,0.0,0.0,0.0,0.0,0.0,0.0,0.0,0.0,0.0,0.7875,0.7901,0.7901,0.7901,0.7901,0.7901,0.7901,0.785,0.7744,0.7595,0.7001,0.6455,0.5945,0.5558,0.4884,0.4039,0.4107,0.3805,0.3244,0.3205,0.3169,0.3158,0.3303,0.3428,0.3536,0.3599,0.3613,0.3613,0.3613,0.3613,0.3613,0.3613,0.3613,0.3613,0.3613,0.3613,0.3613,0.3613,0.3613,0.3613,0.3613,0.3613,0.3613,0.3613,0.3613,0.3613,0.3613,0.3613,0.3613,0.3613,0.3613,0.3613,0.3613,0.3613,0.3613,0.3613,0.3613,0.3613,0.3613,0.3613,0.3613,0.3613,0.3613,0.3613,0.3613,0.3613,0.3613,0.3613,0.3613,0.3613,0.3613,0.3613,0.3613,0.3613,0.3613,0.3613,0.3613,0.3613,0.3613,0.3585,0.3357,0.3135,0.0,0.0,0.0,-0.0898,0.0,0.0,0.0,0.0,-0.0898,0.0,0.0,0.0,0.0,-0.0898,-0.0898,-0.0898,-0.0898,0.0,0.0,0.0,0.0,0.0,0.0,0.0,0.0,0.0,0.0,0.0,0.0,0.0,0.7875,0.7901,0.7901,0.7901,0.7901,0.7901,0.7901,0.7715,0.7607,0.7589,0.7055,0.655,0.611,0.6276,0.5631,0.4395,0.4657,0.425,0.3376,0.3254,0.3118,0.3019,0.3156,0.3297,0.342,0.3539,0.3613,0.3613,0.3613,0.3613,0.3613,0.3613,0.3613,0.3613,0.3613,0.3613,0.3613,0.3613,0.3613,0.3613,0.3613,0.3613,0.3613,0.3613,0.3613,0.3613,0.3613,0.3613,0.3613,0.3613,0.3613,0.3613,0.3613,0.3613,0.3613,0.3613,0.3613,0.3613,0.3613,0.3613,0.3613,0.3613,0.3613,0.3613,0.3613,0.3613,0.3613,0.3613,0.3613,0.3613,0.3613,0.3613,0.3613,0.3613,0.3613,0.3613,0.3613,0.3613,0.3613,0.3613,0.3583,0.3583,0.0,0.0,-0.14,-0.1009,0.0,0.0,0.0,0.0,0.0,0.0,0.0,0.0,0.0,-0.1177,-0.0898,-0.0898,-0.0898,-0.0898,0.0,0.0,0.0,0.0,0.0,0.0,0.0,0.0,0.0,0.0,0.0,0.0,0.0,0.7788,0.7901,0.7901,0.7901,0.7901,0.7901,0.7709,0.7504,0.7328,0.6975,0.6624,0.6303,0.6367,0.5927,0.5118,0.5031,0.4465,0.3593,0.3401,0.3174,0.2941,0.3034,0.3153,0.3294,0.3417,0.3515,0.3613,0.3613,0.3613,0.3613,0.3613,0.3613,0.3613,0.3613,0.3613,0.3613,0.3613,0.3613,0.3613,0.3613,0.3613,0.3613,0.3613,0.3613,0.3613,0.3613,0.3613,0.3613,0.3613,0.3613,0.3613,0.3613,0.3613,0.3613,0.3613,0.3613,0.3613,0.3613,0.3613,0.3613,0.3613,0.3613,0.3613,0.3613,0.3613,0.3613,0.3613,0.3613,0.3613,0.3613,0.3613,0.3613,0.3613,0.3855,0.399,0.399,0.4322,0.446,0.446,0.446,0.4159,-0.0898,-0.1177,0.0,0.0,-0.1205,0.0,-0.0981,0.0,0.0,0.0,0.0,0.0,0.0,0.0,-0.0898,-0.0898,-0.0898,-0.087,0.0,-0.0505,0.0,0.0,0.0,0.0,0.0,0.0,0.4484,0.5668,0.0,0.0,0.0,0.0,0.7788,0.7901,0.7901,0.7901,0.7901,0.7612,0.737,0.72,0.6835,0.6558,0.6395,0.6395,0.6126,0.5669,0.5426,0.4787,0.3935,0.3675,0.3325,0.2937,0.2952,0.3032,0.3153,0.3341,0.3479,0.3613,0.3613,0.3613,0.3613,0.3613,0.3613,0.3613,0.3613,0.3613,0.3613,0.3613,0.3613,0.3613,0.3613,0.3613,0.3613,0.3613,0.3613,0.3613,0.3613,0.3613,0.3613,0.3613,0.3613,0.3613,0.3613,0.3638,0.3663,0.3613,0.3613,0.3613,0.3613,0.3638,0.3663,0.3663,0.3663,0.3663,0.3613,0.3613,0.3722,0.3965,0.3885,0.3938,0.4187,0.3965,0.3885,0.4049,0.4153,0.4288,0.4453,0.4759,0.4897,0.4897,0.4897,0.4598]}]]